Date	Time of Day	Time of Run (sec)	Data PointGroup	Data Point Number	N1 Frequency (Hz)	N1 Percent	N1 RPM (51,120)	N2 Frequency (Hz)	N2 Percent	N2 RPM (35,000)	Engine TOT (F)	Air Plenum Temperature (F)	Ambient Temperature (F)	Ambient Pressure (psia)	Ambient Relative Humidity	Compressor Bleed Temperature (F)	Compressor Bleed Pressure (psig)	Bleed Temperature (F)	Bleed Pressure (in H2O)	Bleed Pressure (psia)	Bleed DP Pressure (in H2O)	Bleed Air SV	Sample	Orifice Plate	Sonic Orifice Plate Dia.	Dyno RPM	Dyno Torque (lbf*ft)	Dyno HorsePower (Hp)	Compressor Bleed Pressure (psia)	Compressor Pressure Ratio	Compressor Bleed Temperature (C)	Comp Simple Isentropic Temp Expected (C)	Bleed Air Mass Flow (lbm/min)	Bleed Air Volumetric Flow (SCFM)	Bleed Air Volumetric Flow (LPM)
9/22/2014 2:24:33 PM	14:24:33	0	A	1	-1	0	0	0	0	0	76.89004	79.97498	76.87445	14.34937	33.175	78.96136	-0.3699951	77.1104	-0.3299999	14.33759	4.299927E-02	0	1	1	0.15	-2	-0.6000977	1.522825E-04	13.97938	0.9742153	26.08964	24.46342	0.1705903	2.230293	63.15476
9/22/2014 2:25:13 PM	14:25:13	0	A	1	-1	0	0	0	0	0	76.8019	80.37162	76.84879	14.35012	33.595	78.96136	-0.375	77.1104	-0.3320007	14.33813	4.700089E-02	0	1	1	0.15	-2	-0.3999023	1.522825E-04	13.97512	0.9738678	26.08964	24.65236	0.1763811	2.306002	65.29861
9/22/2014 2:25:23 PM	14:25:23	0	A	1	-1	0	0	0	0	0	76.93411	80.5479	76.84879	14.35012	33.595	79.09357	-0.375	76.97818	-0.3239994	14.33816	4.500008E-02	0	1	1	0.15	-2	-0.3999023	2.285168E-04	13.97512	0.9738678	26.1631	24.74954	0.1725829	2.256344	63.89244
9/22/2014 2:25:33 PM	14:25:33	0	A	1	-1	0	0	0	0	0	76.89004	80.28348	76.84879	14.34975	33.935	78.96136	-0.375	76.97818	-0.3260002	14.33808	4.400063E-02	0	1	1	0.15	-2	-0.6000977	2.285168E-04	13.97475	0.9738671	26.08964	24.60366	0.1725824	2.256337	63.89225
9/22/2014 2:25:43 PM	14:25:43	0	A	1	-1	0	0	0	0	0	77.06632	80.8564	76.89157	14.34975	34.345	78.96136	-0.375	77.15446	-0.3299999	14.33779	4.100037E-02	0	1	1	0.15	-2	-0.6000977	1.522825E-04	13.97475	0.9738671	26.08964	24.91962	0.1664657	2.176368	61.62778
9/22/2014 2:25:53 PM	14:25:53	0	A	1	-1	0	0	0	0	0	76.8019	81.25303	76.89157	14.34975	34.345	79.00543	-0.3800049	77.15446	-0.3239994	14.33808	4.199982E-02	0	1	1	0.15	-2	-0.3999023	1.522825E-04	13.96974	0.9735184	26.11413	25.10836	0.1705864	2.230243	63.15334
9/22/2014 2:26:03 PM	14:26:03	0	A	1	-1	0	0	0	0	0	76.84597	81.38525	76.89157	14.34937	34.405	79.00543	-0.3800049	77.15446	-0.3209991	14.33752	4.100037E-02	0	1	1	0.15	-2	-0.6000977	1.522825E-04	13.96937	0.9735177	26.11413	25.18119	0.1664642	2.176348	61.62722
9/22/2014 2:26:13 PM	14:26:13	0	A	1	0	0	0	0	0	0	76.97818	81.51746	76.90009	14.34937	34.315	78.96136	-0.3800049	77.1104	-0.3299999	14.33738	4.100037E-02	0	1	1	0.15	-2	-0.3999023	1.522825E-04	13.96937	0.9735177	26.08964	25.25409	0.1664699	2.176423	61.62932
9/22/2014 2:26:23 PM	14:26:23	0	A	1	-1	0	0	0	0	0	76.84597	81.69374	76.90009	14.34937	34.315	79.0495	-0.3800049	77.06632	-0.3299999	14.33763	4.000092E-02	0	1	1	0.15	-2	-0.6000977	2.285168E-04	13.96438	0.9731699	26.13861	25.32137	0.1644401	2.149886	60.8779
9/22/2014 2:26:33 PM	14:26:33	0	A	1	-1	0	0	0	0	0	76.84597	81.82595	76.91721	14.34937	35.715	78.96136	-0.3800049	76.97818	-0.3349991	14.33734	4.199982E-02	0	1	1	0.15	-2	-0.6000977	2.285168E-04	13.96438	0.9731699	26.08964	25.39427	0.1686209	2.204545	62.42567
9/22/2014 2:26:43 PM	14:26:43	0	A	1	-1	0	0	0	0	0	76.89004	81.42931	76.94284	14.34937	36.075	79.18172	-0.3800049	77.19853	-0.3180008	14.33763	4.100037E-02	0	1	1	0.15	-2	-0.6000977	1.522825E-04	13.96937	0.9735177	26.21207	25.20547	0.1664582	2.17627	61.62502
9/22/2014 2:26:53 PM	14:26:53	0	A	1	-1	0	0	0	0	0	77.02225	80.98861	76.94284	14.34937	36.075	79.13764	-0.375	77.15446	-0.3190002	14.33781	3.899956E-02	0	1	1	0.15	-2	-0.3999023	2.285168E-04	13.96937	0.9735177	26.18758	24.96248	0.1624103	2.123348	60.1264
9/22/2014 2:27:03 PM	14:27:03	0	A	1	0	0	0	0	0	0	77.15446	81.64967	76.95139	14.34863	36.675	79.0495	-0.375	77.15446	-0.3299999	14.33706	4.299927E-02	0	1	1	0.15	-2	-0.3999023	2.285168E-04	13.97363	0.9738651	26.13861	25.3569	0.1705804	2.230164	63.1511
9/22/2014 2:27:13 PM	14:27:13	0	A	1	-1	0	0	0	0	0	77.02225	81.56152	76.9856	14.34937	36.63499	79.18172	-0.3699951	77.19853	-0.3299999	14.33774	4.299927E-02	0	1	1	0.15	-2	-0.3999023	1.522825E-04	13.97437	0.9738665	26.21207	25.30841	0.1705777	2.230129	63.1501
9/22/2014 2:27:23 PM	14:27:23	0	A	1	-1	0	0	0	0	0	77.02225	81.47339	76.9856	14.34937	36.63499	79.22578	-0.3650055	77.24261	-0.3260002	14.33785	4.100037E-02	0	1	1	0.15	-2	-0.3999023	1.522825E-04	13.98437	0.9745629	26.23655	25.31967	0.1664529	2.1762	61.62303
9/22/2014 2:27:33 PM	14:27:33	0	A	1	-1	0	0	0	0	0	77.06632	81.51746	77.01981	14.349	36.735	79.13764	-0.3650055	77.28667	-0.3320007	14.33682	3.800011E-02	0	1	1	0.15	-2	-0.3999023	2.285168E-04	13.979	0.9742146	26.18758	25.31404	0.1602467	2.095061	59.32541
9/22/2014 2:27:43 PM	14:27:43	0	A	1	-1	0	0	0	0	0	77.1104	81.20896	77.05399	14.349	37.03999	79.13764	-0.3650055	77.28667	-0.3290005	14.33704	3.899956E-02	0	1	1	0.15	-2	-0.2001953	1.522825E-04	13.98399	0.9745623	26.18758	25.17377	0.1581307	2.067397	58.54206
9/22/2014 2:27:53 PM	14:27:53	0	A	1	-1	0	0	0	0	0	77.1104	81.2971	77.05399	14.349	37.03999	79.22578	-0.3699951	77.1104	-0.3290005	14.33704	4.299927E-02	0	1	1	0.15	-2	-0.3999023	1.522825E-04	13.979	0.9742146	26.1631	25.19248	0.170587	2.23025	63.15354
9/22/2014 2:28:03 PM	14:28:03	0	A	1	-1	0	0	0	0	0	76.97818	81.6056	77.04544	14.34825	36.03999	79.22578	-0.375	77.1104	-0.3330002	14.33643	4.199982E-02	0	1	1	0.15	-2	-0.3999023	2.285168E-04	13.97325	0.9738644	26.23655	25.33252	0.1685956	2.204214	62.41629
9/22/2014 2:28:13 PM	14:28:13	0	A	1	-1	0	0	0	0	0	77.1104	80.98861	77.07111	14.349	35.485	79.31393	-0.375	77.19853	-0.3290005	14.33722	4.299927E-02	0	1	1	0.15	-2	-0.6000977	2.285168E-04	13.96899	0.973517	26.28552	24.96245	0.1705746	2.230088	63.14895
9/22/2014 2:28:23 PM	14:28:23	0	A	1	-1	0	0	0	0	0	77.28667	81.20896	77.07111	14.349	35.485	79.18172	-0.375	77.28667	-0.3220005	14.33711	4.199982E-02	0	1	1	0.15	-2	-0.6000977	2.285168E-04	13.974	0.9738657	26.21207	25.11392	0.166442	2.176059	61.61902
9/22/2014 2:28:33 PM	14:28:33	0	A	1	-1	0	0	0	0	0	77.28667	80.94453	77.07965	14.349	35.61501	79.26985	-0.3699951	77.15446	-0.3250008	14.33718	4.500008E-02	0	1	1	0.15	-2	-0.3999023	2.285168E-04	13.97901	0.9742146	26.26103	24.99805	0.1744466	2.28071	64.58242
9/22/2014 2:28:43 PM	14:28:43	0	A	1	-1	0	0	0	0	0	77.15446	80.90047	77.12241	14.34825	36.015	79.22578	-0.3650055	77.37482	-0.3139992	14.33669	4.299927E-02	0	1	1	0.15	-2	-0.3999023	2.285168E-04	13.98325	0.974561	26.23655	25.00348	0.1725127	2.255426	63.86646
9/22/2014 2:28:53 PM	14:28:53	0	A	1	-1	0	0	0	0	0	77.33075	80.98861	77.12241	14.34825	36.015	79.35799	-0.3650055	77.37482	-0.3199997	14.3364	4.299927E-02	0	1	1	0.15	-2	-0.6000977	1.522825E-04	13.98825	0.9749098	26.31	25.08204	0.1705428	2.229672	63.13717
9/22/2014 2:29:03 PM	14:29:03	0	A	1	-1	0	0	0	0	0	77.19853	80.94453	77.16516	14.34863	35.62	79.31393	-0.3600006	77.33075	-0.3239994	14.3371	4.000092E-02	0	1	1	0.15	-2	-0.6000977	2.285168E-04	13.98862	0.9749104	26.28552	25.0578	0.1643981	2.149337	60.86235
9/22/2014 2:29:13 PM	14:29:13	0	A	1	-1	0	0	0	0	0	77.24261	81.03268	77.15659	14.34788	35.37	79.40207	-0.3600006	77.28667	-0.3250008	14.33613	4.000092E-02	0	1	1	0.15	-1	-0.6000977	1.142584E-04	13.98787	0.9749091	26.33448	25.10632	0.1643991	2.149349	60.86269
9/22/2014 2:29:23 PM	14:29:23	0	A	1	-1	0	0	0	0	0	77.24261	81.07675	77.15659	14.34788	35.37	79.40207	-0.3699951	77.41888	-0.3309994	14.3362	4.199982E-02	0	1	1	0.15	-2	-0.6000977	2.285168E-04	13.98287	0.9745603	26.33448	25.10066	0.1685477	2.203588	62.39856
9/22/2014 2:29:33 PM	14:29:33	0	A	1	-1	0	0	0	0	0	77.24261	81.03268	77.18225	14.34863	35.07001	79.40207	-0.3699951	77.28667	-0.3180008	14.33699	4.000092E-02	0	1	1	0.15	-2	-0.3999023	7.623425E-05	13.97863	0.9742139	26.33448	25.04661	0.164404	2.149414	60.86452
9/22/2014 2:29:43 PM	14:29:43	0	A	1	-1	0	0	0	0	0	77.41888	81.47339	77.19937	14.34825	34.19	79.44614	-0.3699951	77.33075	-0.323	14.33683	4.000092E-02	0	1	1	0.15	-2	-0.3999023	1.522825E-04	13.97826	0.9742132	26.35897	25.28963	0.1643966	2.149317	60.86178
9/22/2014 2:29:53 PM	14:29:53	0	A	1	-1	0	0	0	0	0	77.28667	81.2971	77.19937	14.34825	34.19	79.40207	-0.3699951	77.41888	-0.323	14.33622	4.100037E-02	0	1	1	0.15	-2	-0.6000977	1.522825E-04	13.97826	0.9742132	26.33448	25.19238	0.1664171	2.175733	61.6098
9/22/2014 2:30:03 PM	14:30:03	0	A	1	-1	0	0	0	0	0	77.28667	81.16489	77.22501	14.3475	34.285	79.35799	-0.3699951	77.50703	-0.3199997	14.3359	4.000092E-02	0	1	1	0.15	-2	-0.6000977	2.285168E-04	13.9775	0.9742119	26.31	25.11934	0.1643653	2.148908	60.85019
9/22/2014 2:30:13 PM	14:30:13	0	A	1	-1	0	0	0	0	0	77.46296	81.2971	77.23355	14.34825	34.05499	79.35799	-0.3699951	77.50703	-0.3209991	14.33636	4.000092E-02	0	1	1	0.15	-1	-0.3999023	1.142584E-04	13.97826	0.9742132	26.31	25.19238	0.164368	2.148942	60.85117
9/22/2014 2:30:23 PM	14:30:23	0	A	1	-1	0	0	0	0	0	77.19853	81.07675	77.23355	14.34825	34.05499	79.31393	-0.3650055	77.33075	-0.3290005	14.33654	4.299927E-02	0	1	1	0.15	-2	-0.6000977	1.522825E-04	13.97826	0.9742132	26.28552	25.07085	0.1705504	2.229771	63.13998
9/22/2014 2:30:33 PM	14:30:33	0	A	1	-1	0	0	0	0	0	77.33075	80.32755	77.25064	14.34788	34.58	79.40207	-0.3650055	77.41888	-0.323	14.33595	4.400063E-02	0	1	1	0.15	-2	-0.3999023	1.522825E-04	13.98287	0.9745603	26.33448	24.68742	0.1725015	2.25528	63.8623
9/22/2014 2:30:43 PM	14:30:43	0	A	1	-1	0	0	0	0	0	77.33075	80.37162	77.25919	14.3475	35.66	79.44614	-0.3600006	77.46296	-0.3169994	14.33586	4.100037E-02	0	1	1	0.15	-2	-0.3999023	2.285168E-04	13.9875	0.9749085	26.35897	24.7416	0.1664085	2.175621	61.60661
9/22/2014 2:30:53 PM	14:30:53	0	A	1	-1	0	0	0	0	0	77.37482	79.66649	77.25919	14.3475	35.66	79.57835	-0.3650055	77.46296	-0.3260002	14.33539	4.100037E-02	0	1	1	0.15	-2	-0.6000977	1.522825E-04	13.9925	0.9752573	26.43242	24.38251	0.1664058	2.175585	61.60561
9/22/2014 2:31:03 PM	14:31:03	0	A	1	-1	0	0	0	0	0	77.37482	79.62242	77.27631	14.34788	35.145	79.44614	-0.3549957	77.46296	-0.3299999	14.33588	4.000092E-02	0	1	1	0.15	-2	-0.3999023	1.522825E-04	13.99288	0.9752579	26.35897	24.35823	0.1643717	2.148991	60.85255
9/22/2014 2:31:13 PM	14:31:13	0	A	1	-1	0	0	0	0	0	77.5511	79.22578	77.28485	14.34712	34.35001	79.53428	-0.3549957	77.5511	-0.3209991	14.33531	4.100037E-02	0	1	1	0.15	-2	-0.3999023	2.285168E-04	13.99213	0.9752567	26.40793	24.13935	0.1663922	2.175407	61.60056
9/22/2014 2:31:23 PM	14:31:23	0	A	1	-1	0	0	0	0	0	77.41888	79.44614	77.28485	14.34712	34.35001	79.4902	-0.3600006	77.50703	-0.3250008	14.33523	4.100037E-02	0	1	1	0.15	-2	-0.3999023	1.522825E-04	13.98712	0.9749078	26.38345	24.23104	0.1663983	2.175487	61.60283
9/22/2014 2:31:33 PM	14:31:33	0	A	1	-1	0	0	0	0	0	77.5511	79.93092	77.30197	14.34675	33.72501	79.44614	-0.3650055	77.46296	-0.3239994	14.33479	4.100037E-02	0	1	1	0.15	-2	-0.3999023	2.285168E-04	13.98174	0.9745583	26.35897	24.4685	0.1664023	2.175539	61.6043
9/22/2014 2:31:43 PM	14:31:43	0	A	1	-1	0	0	0	0	0	77.41888	80.32755	77.34473	14.34675	33.67	79.4902	-0.3650055	77.50703	-0.3279991	14.33515	4.100037E-02	0	1	1	0.15	-2	-0.6000977	1.522825E-04	13.98174	0.9745583	26.38345	24.68728	0.1663978	2.175481	61.60265
9/22/2014 2:31:53 PM	14:31:53	0	A	1	-1	0	0	0	0	0	77.41888	80.50383	77.34473	14.34675	33.67	79.53428	-0.3650055	77.5511	-0.3180008	14.33519	3.899956E-02	0	1	1	0.15	-2	-0.3999023	2.285168E-04	13.97676	0.9742105	26.40793	24.75466	0.1663915	2.175398	61.60031
9/22/2014 2:32:03 PM	14:32:03	0	A	1	-1	0	0	0	0	0	77.41888	80.94453	77.34473	14.3475	33.58501	79.53428	-0.3650055	77.5511	-0.3309994	14.33568	3.899956E-02	0	1	1	0.15	-2	-0.6000977	2.285168E-04	13.98249	0.9745597	26.40793	25.02769	0.1663944	2.175435	61.60136
9/22/2014 2:32:13 PM	14:32:13	0	A	1	-1	0	0	0	0	0	77.41888	80.72418	77.38745	14.34712	33.45	79.53428	-0.3650055	77.5511	-0.3250008	14.33552	4.000092E-02	0	1	1	0.15	-2	-0.6000977	2.285168E-04	13.98212	0.9745589	26.40793	24.90606	0.1643567	2.148795	60.847
9/22/2014 2:32:23 PM	14:32:23	0	A	1	-1	0	0	0	0	0	77.41888	80.68011	77.38745	14.34712	33.45	79.35799	-0.3699951	77.50703	-0.3269997	14.33534	3.899956E-02	0	1	1	0.15	-2	-0.6000977	2.285168E-04	13.97713	0.9742112	26.31	24.85191	0.1643621	2.148866	60.84901
9/22/2014 2:32:33 PM	14:32:33	0	A	1	-1	0	0	0	0	0	77.46296	80.68011	77.41312	14.3475	33.64999	79.57835	-0.375	77.59517	-0.3279991	14.3355	4.000092E-02	0	1	1	0.15	-1	-0.3999023	7.614127E-05	13.9775	0.9742119	26.43242	24.85197	0.1663867	2.175336	61.59854
9/22/2014 2:32:43 PM	14:32:43	0	A	1	0	0	0	0	0	0	77.33075	80.81232	77.42163	14.34675	33.845	79.44614	-0.3699951	77.59517	-0.3169994	14.33504	3.700066E-02	0	1	1	0.15	-2	-0.3999023	2.285168E-04	13.97675	0.9742105	26.35897	24.92481	0.158076	2.066682	58.52181
9/22/2014 2:32:53 PM	14:32:53	0	A	1	-1	0	0	0	0	0	77.50703	80.72418	77.42163	14.34675	33.845	79.44614	-0.3699951	77.59517	-0.3290005	14.33508	4.400063E-02	0	1	1	0.15	-2	-0.6000977	2.285168E-04	13.97675	0.9742105	26.35897	24.87618	0.1724226	2.254249	63.83312
9/22/2014 2:33:03 PM	14:33:03	0	A	1	-1	0	0	0	0	0	77.50703	80.68011	77.44727	14.34712	33.85001	79.4902	-0.3650055	77.50703	-0.3320007	14.33563	4.299927E-02	0	1	1	0.15	-2	-0.3999023	2.285168E-04	13.97713	0.9742112	26.38345	24.85191	0.1705181	2.229349	63.12803
9/22/2014 2:33:13 PM	14:33:13	0	A	1	-1	0	0	0	0	0	77.50703	81.03268	77.4986	14.34712	33.87	79.4902	-0.3699951	77.50703	-0.3299999	14.33541	4.299927E-02	0	1	1	0.15	-2	-0.3999023	1.522825E-04	13.97713	0.9742112	26.38345	25.04637	0.1705168	2.229332	63.12755
9/22/2014 2:33:23 PM	14:33:23	0	A	1	0	0	0	0	0	0	77.37482	81.2971	77.4986	14.34712	33.87	79.44614	-0.3699951	77.59517	-0.3199997	14.33574	4.199982E-02	0	1	1	0.15	-2	-0.3999023	2.285168E-04	13.97713	0.9742112	26.35897	25.19221	0.1685184	2.203205	62.3877
9/22/2014 2:33:33 PM	14:33:33	0	A	1	-1	0	0	0	0	0	77.5511	81.25303	77.4986	14.34675	33.825	79.44614	-0.3699951	77.59517	-0.323	14.33547	4.299927E-02	0	1	1	0.15	-2	-0.6000977	1.522825E-04	13.98174	0.9745583	26.35897	25.1977	0.1705037	2.22916	63.12268
9/22/2014 2:33:43 PM	14:33:43	0	A	1	-1	0	0	0	0	0	77.68331	81.56152	77.54135	14.346	33.92	79.53428	-0.3600006	77.5511	-0.316	14.33451	4.100037E-02	0	1	1	0.15	-2	-0.6000977	1.522825E-04	13.986	0.9749058	26.40793	25.39776	0.1663876	2.175346	61.59885
9/22/2014 2:33:53 PM	14:33:53	0	A	1	-1	0	0	0	0	0	77.59517	81.6056	77.54135	14.346	33.92	79.53428	-0.3600006	77.68331	-0.3169994	14.33436	4.299927E-02	0	1	1	0.15	-2	-0.3999023	2.285168E-04	13.991	0.9752547	26.40793	25.45202	0.1704836	2.228899	63.11527
9/22/2014 2:34:03 PM	14:34:03	0	A	1	-1	0	0	0	0	0	77.59517	81.47339	77.54993	14.34675	33.845	79.44614	-0.3549957	77.72738	-0.3180008	14.33536	4.299927E-02	0	1	1	0.15	-2	-0.3999023	2.285168E-04	13.99175	0.975256	26.35897	25.37922	0.1704829	2.228889	63.11499
9/22/2014 2:34:13 PM	14:34:13	0	A	1	-1	0	0	0	0	0	77.72738	81.34118	77.58408	14.34637	33.94501	79.4902	-0.3549957	77.77145	-0.3209991	14.33492	4.199982E-02	0	1	1	0.15	-2	-0.3999023	1.522825E-04	13.99138	0.9752554	26.38345	25.30618	0.168487	2.202794	62.37608
9/22/2014 2:34:23 PM	14:34:23	0	A	1	-1	0	0	0	0	0	77.63924	81.20896	77.58408	14.34637	33.94501	79.4902	-0.3549957	77.63924	-0.3190002	14.33485	4.199982E-02	0	1	1	0.15	-2	-0.3999023	1.522825E-04	13.99637	0.9756032	26.38345	25.26311	0.1685065	2.203049	62.38329
9/22/2014 2:34:33 PM	14:34:33	0	A	1	-1	0	0	0	0	0	77.63924	81.34118	77.62683	14.34675	34.08	79.4902	-0.3549957	77.77145	-0.3279991	14.33497	4.299927E-02	0	1	1	0.15	-2	-0.3999023	2.285168E-04	13.99175	0.975256	26.38345	25.30625	0.1704738	2.22877	63.11162
9/22/2014 2:34:43 PM	14:34:43	0	A	1	-1	0	0	0	0	0	77.63924	81.25303	77.65247	14.34675	34.32001	79.44614	-0.3600006	77.72738	-0.3239994	14.33497	4.199982E-02	0	1	1	0.15	-2	-0.6000977	2.285168E-04	13.98675	0.9749072	26.35897	25.22768	0.1684939	2.202884	62.37863
9/22/2014 2:34:53 PM	14:34:53	0	A	1	-1	0	0	0	0	0	77.68331	80.19534	77.65247	14.34675	34.32001	79.40207	-0.3600006	77.81553	-0.3330002	14.33482	4.299927E-02	0	1	1	0.15	-2	-0.3999023	2.285168E-04	13.98174	0.9745583	26.33448	24.61434	0.1704662	2.22867	63.10881
9/22/2014 2:35:03 PM	14:35:03	0	A	1	-1	0	0	0	0	0	77.68331	80.63605	77.67816	14.34637	34.345	79.22578	-0.3650055	77.63924	-0.3269997	14.33441	3.899956E-02	0	1	1	0.15	-2	-0.6000977	2.285168E-04	13.98137	0.9745576	26.23655	24.85733	0.1622713	2.121531	60.07496
9/22/2014 2:35:13 PM	14:35:13	0	A	1	-1	0	0	0	0	0	77.68331	81.03268	77.72089	14.34675	34.48	79.35799	-0.3650055	77.77145	-0.3320007	14.33471	4.199982E-02	0	1	1	0.15	-2	-0.6000977	1.522825E-04	13.98174	0.9745583	26.31	25.07618	0.1663559	2.174933	61.58715
9/22/2014 2:35:23 PM	14:35:23	0	A	1	-1	0	0	0	0	0	77.59517	81.12082	77.72089	14.34675	34.48	79.44614	-0.3650055	77.8596	-0.3320007	14.33493	4.000092E-02	0	1	1	0.15	-2	-0.3999023	1.522825E-04	13.97675	0.9742105	26.35897	25.09493	0.166344	2.174778	61.58274
9/22/2014 2:35:33 PM	14:35:33	0	A	1	-1	0	0	0	0	0	77.46296	80.94453	77.71237	14.34675	34.55	79.44614	-0.3699951	77.8596	-0.3299999	14.33471	4.100037E-02	0	1	1	0.15	-2	-0.6000977	2.285168E-04	13.97675	0.9742105	26.35897	24.99771	0.1663428	2.174762	61.58229
9/22/2014 2:35:43 PM	14:35:43	0	A	1	-1	0	0	0	0	0	77.50703	80.98861	77.72089	14.34675	33.67	79.31393	-0.375	77.72738	-0.3290005	14.33482	4.199982E-02	0	1	1	0.15	-2	-0.6000977	2.285168E-04	13.97175	0.9738617	26.28552	24.99205	0.1663631	2.175027	61.58981
9/22/2014 2:35:53 PM	14:35:53	0	A	1	-1	0	0	0	0	0	77.50703	80.98861	77.72089	14.34675	33.67	79.35799	-0.375	77.77145	-0.3360004	14.33457	4.000092E-02	0	1	1	0.15	-2	-0.2001953	1.522825E-04	13.97175	0.9738617	26.31	24.99205	0.1643188	2.148299	60.83297
9/22/2014 2:36:03 PM	14:36:03	0	A	1	-1	0	0	0	0	0	77.68331	80.8564	77.72943	14.346	33.27499	79.44614	-0.375	77.8596	-0.3369999	14.33415	4.599953E-02	0	1	1	0.15	-2	-0.3999023	2.285168E-04	13.971	0.9738603	26.35897	24.91904	0.1761931	2.303544	65.229
9/22/2014 2:36:13 PM	14:36:13	0	A	1	-1	0	0	0	0	0	77.63924	80.5479	77.71237	14.346	33.57001	79.31393	-0.375	77.72738	-0.3349991	14.33411	4.299927E-02	0	1	1	0.15	-2	-0.6000977	2.285168E-04	13.971	0.9738603	26.28552	24.74889	0.1704754	2.228791	63.11222
9/22/2014 2:36:23 PM	14:36:23	0	A	1	-1	0	0	0	0	0	77.68331	80.98861	77.71237	14.346	33.57001	79.40207	-0.375	77.81553	-0.3269997	14.33418	4.299927E-02	0	1	1	0.15	-2	-0.3999023	2.285168E-04	13.971	0.9738603	26.33448	24.99195	0.1704624	2.228621	63.1074
9/22/2014 2:36:33 PM	14:36:33	0	A	1	-1	0	0	0	0	0	77.68331	80.76826	77.72943	14.34637	33.745	79.31393	-0.3800049	77.72738	-0.3290005	14.33427	4.100037E-02	0	1	1	0.15	-2	-0.3999023	1.522825E-04	13.96637	0.9735121	26.28552	24.84055	0.1684898	2.202831	62.37712
9/22/2014 2:36:43 PM	14:36:43	0	A	1	-1	0	0	0	0	0	77.68331	80.63605	77.7038	14.34637	33.285	79.35799	-0.3800049	77.63924	-0.3309994	14.33459	4.100037E-02	0	1	1	0.15	-2	-0.3999023	2.285168E-04	13.96637	0.9735121	26.31	24.76761	0.1663749	2.175181	61.59416
9/22/2014 2:36:53 PM	14:36:53	0	A	1	-1	0	0	0	0	0	77.68331	80.5479	77.7038	14.34637	33.285	79.22578	-0.3849945	77.77145	-0.3279991	14.3347	4.199982E-02	0	1	1	0.15	-2	-0.6000977	1.522825E-04	13.96138	0.9731643	26.23655	24.68915	0.1684857	2.202777	62.3756
9/22/2014 2:37:03 PM	14:37:03	0	A	1	-1	0	0	0	0	0	77.77145	80.37162	77.7038	14.34637	33.25	79.22578	-0.3849945	77.77145	-0.3290005	14.33434	4.199982E-02	0	1	1	0.15	-2	-0.3999023	2.285168E-04	13.96138	0.9731643	26.23655	24.59196	0.1684835	2.202749	62.37481
9/22/2014 2:37:13 PM	14:37:13	0	A	1	-1	0	0	0	0	0	77.59517	80.28348	77.67816	14.34675	33.27499	79.31393	-0.3800049	77.8596	-0.3250008	14.33511	4.100037E-02	0	1	1	0.15	-2	-0.3999023	2.285168E-04	13.96674	0.9735128	26.28552	24.57328	0.1663451	2.174792	61.58314
9/22/2014 2:37:23 PM	14:37:23	0	A	1	-1	0	0	0	0	0	77.77145	80.5479	77.67816	14.34675	33.27499	79.26985	-0.3849945	77.81553	-0.3209991	14.33497	4.000092E-02	0	1	1	0.15	-2	-0.3999023	1.522825E-04	13.96175	0.973165	26.26103	24.68921	0.1663508	2.174866	61.58525
9/22/2014 2:37:33 PM	14:37:33	0	A	1	-1	0	0	0	0	0	77.77145	80.41569	77.66959	14.34637	32.96001	79.26985	-0.3849945	77.81553	-0.3239994	14.33485	3.899956E-02	0	1	1	0.15	-2	-0.6000977	2.285168E-04	13.96138	0.9731643	26.26103	24.61628	0.1601598	2.093925	59.29325
9/22/2014 2:37:43 PM	14:37:43	0	A	1	-1	0	0	0	0	0	77.90366	80.8564	77.64395	14.346	32.55	79.31393	-0.3849945	77.8596	-0.3290005	14.33415	4.199982E-02	0	1	1	0.15	-2	-0.6000977	1.522825E-04	13.96101	0.9731637	26.28552	24.8592	0.1684691	2.20256	62.36946
9/22/2014 2:37:53 PM	14:37:53	0	A	1	-1	0	0	0	0	0	77.77145	80.90047	77.64395	14.346	32.55	79.44614	-0.3849945	77.8596	-0.3190002	14.33436	4.100037E-02	0	1	1	0.15	-2	-0.3999023	1.522825E-04	13.96101	0.9731637	26.35897	24.88347	0.1663408	2.174735	61.58153
9/22/2014 2:38:03 PM	14:38:03	0	A	1	-1	0	0	0	0	0	77.77145	80.59197	77.60977	14.346	32.36	79.4902	-0.3849945	77.90366	-0.3180008	14.3344	3.899956E-02	0	1	1	0.15	-2	-0.6000977	2.285168E-04	13.96101	0.9731637	26.38345	24.71339	0.1622328	2.121028	60.06071
9/22/2014 2:38:13 PM	14:38:13	0	A	1	-1	0	0	0	0	0	77.81553	80.23941	77.56699	14.346	31.92999	79.31393	-0.3849945	77.8596	-0.3250008	14.33433	4.299927E-02	0	1	1	0.15	-2	-0.6000977	2.285168E-04	13.966	0.9735115	26.28552	24.54887	0.1704565	2.228544	63.10523
9/22/2014 2:38:23 PM	14:38:23	0	A	1	-1	0	0	0	0	0	77.8596	79.93092	77.56699	14.346	31.92999	79.31393	-0.3800049	77.8596	-0.3220005	14.33429	4.100037E-02	0	1	1	0.15	-2	-0.6000977	1.522825E-04	13.966	0.9735115	26.28552	24.37878	0.1643043	2.14811	60.82759
9/22/2014 2:38:33 PM	14:38:33	0	A	1	0	0	0	0	0	0	77.81553	79.84277	77.53281	14.346	32.015	79.31393	-0.3800049	77.8596	-0.3209991	14.33429	4.100037E-02	0	1	1	0.15	-2	-0.3999023	2.285168E-04	13.971	0.9738603	26.28552	24.3601	0.1684699	2.202571	62.36977
9/22/2014 2:38:43 PM	14:38:43	0	A	1	-1	0	0	0	0	0	77.72738	79.88684	77.51569	14.34637	32.325	79.53428	-0.375	77.94774	-0.3220005	14.3347	3.899956E-02	0	1	1	0.15	-2	-0.6000977	1.522825E-04	13.97137	0.973861	26.40793	24.38445	0.1622282	2.120967	60.05899
9/22/2014 2:38:53 PM	14:38:53	0	A	1	-1	0	0	0	0	0	77.8596	79.62242	77.51569	14.34637	32.325	79.40207	-0.3699951	77.94774	-0.3150005	14.33499	3.899956E-02	0	1	1	0.15	-2	-0.6000977	1.522825E-04	13.97638	0.9742098	26.33448	24.26848	0.1622298	2.120988	60.05959
9/22/2014 2:39:03 PM	14:39:03	0	A	1	-1	0	0	0	0	0	77.90366	80.06313	77.48151	14.34562	32.625	79.35799	-0.375	77.90366	-0.316	14.33399	4.299927E-02	0	1	1	0.15	-2	-0.6000977	1.522825E-04	13.97563	0.9742085	26.31	24.51143	0.1723685	2.253542	63.81309
9/22/2014 2:39:13 PM	14:39:13	0	A	1	-1	0	0	0	0	0	77.90366	80.06313	77.49005	14.346	32.925	79.44614	-0.3699951	77.99181	-0.3169994	14.33469	4.199982E-02	0	1	1	0.15	-2	-0.6000977	2.285168E-04	13.971	0.9738603	26.35897	24.48159	0.1704385	2.228309	63.09858
9/22/2014 2:39:23 PM	14:39:23	0	A	1	-1	0	0	0	0	0	77.90366	79.93092	77.49005	14.346	32.925	79.57835	-0.3699951	77.99181	-0.3199997	14.33418	4.199982E-02	0	1	1	0.15	-2	-0.3999023	1.522825E-04	13.97601	0.9742092	26.43242	24.4386	0.1684494	2.202303	62.36217
9/22/2014 2:39:33 PM	14:39:33	0	A	1	-1	0	0	0	0	0	77.94774	80.19534	77.49005	14.34562	33.3	79.44614	-0.3650055	77.99181	-0.3209991	14.33435	4.000092E-02	0	1	1	0.15	-2	-0.6000977	1.522825E-04	13.98062	0.9745563	26.35897	24.61417	0.1642852	2.14786	60.82053
9/22/2014 2:39:43 PM	14:39:43	0	A	1	-1	0	0	0	0	0	77.94774	80.19534	77.48151	14.34525	33.625	79.40207	-0.3699951	77.94774	-0.3220005	14.33379	4.199982E-02	0	1	1	0.15	-2	-0.6000977	2.285168E-04	13.97525	0.9742078	26.33448	24.5843	0.1684538	2.20236	62.3638
9/22/2014 2:39:53 PM	14:39:53	0	A	1	0	0	0	0	0	0	77.94774	80.5479	77.48151	14.34525	33.625	79.44614	-0.3699951	77.99181	-0.3260002	14.33354	4.100037E-02	0	1	1	0.15	-2	-0.6000977	1.522825E-04	13.98024	0.9745557	26.35897	24.80857	0.1664359	2.175978	61.61673
9/22/2014 2:40:03 PM	14:40:03	0	A	1	-1	0	0	0	0	0	77.94774	80.76826	77.48151	14.346	33.495	79.4902	-0.375	78.03587	-0.3139992	14.33462	4.299927E-02	0	1	1	0.15	-2	-0.6000977	1.522825E-04	13.97601	0.9742092	26.38345	24.90039	0.1704313	2.228215	63.09592
9/22/2014 2:40:13 PM	14:40:13	0	A	1	-1	0	0	0	0	0	77.99181	80.72418	77.48151	14.34488	33.565	79.44614	-0.3699951	77.8596	-0.3129997	14.33371	4.000092E-02	0	1	1	0.15	-2	-0.6000977	1.522825E-04	13.97488	0.9742072	26.35897	24.87588	0.1643009	2.148066	60.82635
9/22/2014 2:40:23 PM	14:40:23	0	A	1	-1	0	0	0	0	0	77.99181	81.07675	77.48151	14.34488	33.565	79.44614	-0.375	77.8596	-0.3169994	14.33349	4.199982E-02	0	1	1	0.15	-2	-0.3999023	2.285168E-04	13.96988	0.9738582	26.35897	25.04037	0.1684652	2.20251	62.36804
9/22/2014 2:40:33 PM	14:40:33	0	A	1	-1	0	0	0	0	0	78.03587	80.8564	77.48151	14.346	33.53999	79.53428	-0.3699951	78.07995	-0.3180008	14.33487	4.199982E-02	0	1	1	0.15	-2	-0.3999023	1.522825E-04	13.97601	0.9742092	26.40793	24.94899	0.1684402	2.202182	62.35875
9/22/2014 2:40:43 PM	14:40:43	0	A	1	-1	0	0	0	0	0	77.99181	80.8564	77.48151	14.34637	33.13499	79.53428	-0.3699951	78.07995	-0.3199997	14.33499	4.100037E-02	0	1	1	0.15	-2	-0.6000977	2.285168E-04	13.97638	0.9742098	26.40793	24.94905	0.1663116	2.174354	61.57074
9/22/2014 2:40:53 PM	14:40:53	0	A	1	-1	0	0	0	0	0	78.03587	81.25303	77.48151	14.34637	33.13499	79.4902	-0.375	78.03587	-0.3129997	14.33474	4.100037E-02	0	1	1	0.15	-2	-0.3999023	1.522825E-04	13.97137	0.973861	26.38345	25.13779	0.1663167	2.174421	61.57263
9/22/2014 2:41:03 PM	14:41:03	0	A	1	-1	0	0	0	0	0	78.07995	80.76826	77.47296	14.34562	32.755	79.57835	-0.3699951	77.90366	-0.3260002	14.33392	4.100037E-02	0	1	1	0.15	-2	-0.6000977	2.285168E-04	13.97062	0.9738596	26.38345	24.87039	0.1622301	2.120992	60.0597
9/22/2014 2:41:13 PM	14:41:13	0	A	1	-1	0	0	0	0	0	78.03587	80.63605	77.46439	14.34562	32.55	79.57835	-0.3699951	78.25623	-0.3120003	14.33413	3.899956E-02	0	1	1	0.15	-2	-0.2001953	2.285168E-04	13.97563	0.9742085	26.43242	24.82739	0.1621802	2.120339	60.04123
9/22/2014 2:41:23 PM	14:41:23	0	A	1	-1	0	0	0	0	0	78.07995	80.50383	77.46439	14.34562	32.55	79.53428	-0.3650055	78.07995	-0.3209991	14.33428	4.199982E-02	0	1	1	0.15	-2	-0.6000977	1.522825E-04	13.98062	0.9745563	26.40793	24.78433	0.1684367	2.202137	62.35747
9/22/2014 2:41:33 PM	14:41:33	0	A	1	-1	0	0	0	0	0	78.07995	80.01905	77.43875	14.34525	32.325	79.62242	-0.3650055	78.16809	-0.3180008	14.33376	4.000092E-02	0	1	1	0.15	-2	-0.3999023	2.285168E-04	13.98024	0.9745557	26.4569	24.51689	0.1642559	2.147477	60.80967
9/22/2014 2:41:43 PM	14:41:43	0	A	1	-1	0	0	0	0	0	78.07995	80.50383	77.38745	14.34562	32.27	79.62242	-0.3650055	78.16809	-0.3150005	14.33446	3.800011E-02	0	1	1	0.15	-2	-0.6000977	1.522825E-04	13.98062	0.9745563	26.4569	24.78433	0.1579918	2.065581	58.49065
9/22/2014 2:41:53 PM	14:41:53	0	A	1	-1	0	0	0	0	0	77.94774	80.68011	77.38745	14.34562	32.27	79.62242	-0.3650055	78.16809	-0.316	14.3342	3.800011E-02	0	1	1	0.15	-2	-0.3999023	7.623425E-05	13.98062	0.9745563	26.4569	24.88154	0.1601057	2.093218	59.27323
9/22/2014 2:42:03 PM	14:42:03	0	A	1	-1	0	0	0	0	0	77.94774	80.59197	77.36179	14.346	32.21001	79.62242	-0.3650055	78.16809	-0.3180008	14.33469	3.800011E-02	0	1	1	0.15	-2	-0.3999023	1.522825E-04	13.981	0.974557	26.4569	24.83298	0.1601084	2.093253	59.27423
9/22/2014 2:42:13 PM	14:42:13	0	A	1	-1	0	0	0	0	0	78.12402	81.20896	77.33615	14.34562	32.11501	79.57835	-0.3699951	78.12402	-0.3139992	14.33399	3.700066E-02	0	1	1	0.15	-2	-0.3999023	1.522825E-04	13.98062	0.9745563	26.43242	25.17322	0.1579954	2.065628	58.49197
9/22/2014 2:42:23 PM	14:42:23	0	A	1	-1	0	0	0	0	0	78.12402	81.38525	77.33615	14.34562	32.11501	79.66649	-0.3699951	77.99181	-0.3190002	14.33402	4.000092E-02	0	1	1	0.15	-2	-0.6000977	1.522825E-04	13.98062	0.9745563	26.48138	25.27047	0.1642833	2.147836	60.81984
9/22/2014 2:42:33 PM	14:42:33	0	A	1	-1	0	0	0	0	0	78.03587	81.64967	77.30197	14.346	32.09	79.62242	-0.3699951	78.03587	-0.3190002	14.33458	4.000092E-02	0	1	1	0.15	-2	-0.6000977	1.522825E-04	13.971	0.9738603	26.4569	25.3565	0.16428	2.147793	60.81863
9/22/2014 2:42:43 PM	14:42:43	0	A	1	0	0	0	0	0	0	78.03587	81.64967	77.27631	14.34525	31.96001	79.7987	-0.375	78.07995	-0.3209991	14.3339	3.899956E-02	0	1	1	0.15	-2	-0.3999023	2.285168E-04	13.97025	0.973859	26.55483	25.35636	0.1642697	2.147657	60.81479
9/22/2014 2:42:53 PM	14:42:53	0	A	1	0	0	0	0	0	0	78.03587	81.38525	77.27631	14.34525	31.96001	79.66649	-0.375	78.07995	-0.3129997	14.33379	3.899956E-02	0	1	1	0.15	-2	-0.6000977	2.285168E-04	13.97025	0.973859	26.48138	25.21052	0.1622038	2.120649	60.05
9/22/2014 2:43:03 PM	14:43:03	0	A	1	-1	0	0	0	0	0	78.03587	81.38525	77.24207	14.34562	31.91499	79.71056	-0.3800049	78.12402	-0.3199997	14.33399	4.199982E-02	0	1	1	0.15	-2	-0.6000977	2.285168E-04	13.96562	0.9735107	26.50587	25.18058	0.1684283	2.202028	62.35438
9/22/2014 2:43:13 PM	14:43:13	0	A	1	-1	0	0	0	0	0	77.94774	81.69374	77.1908	14.346	31.73	79.66649	-0.3800049	78.07995	-0.3180008	14.33462	4.199982E-02	0	1	1	0.15	-2	-0.3999023	2.285168E-04	13.96101	0.9731637	26.48138	25.32086	0.1684387	2.202163	62.35821
9/22/2014 2:43:23 PM	14:43:23	0	A	1	-1	0	0	0	0	0	78.07995	81.51746	77.1908	14.346	31.73	79.66649	-0.3800049	78.07995	-0.3129997	14.33451	4.199982E-02	0	1	1	0.15	-2	-0.6000977	2.285168E-04	13.966	0.9735115	26.48138	25.25359	0.168438	2.202155	62.35797
9/22/2014 2:43:33 PM	14:43:33	0	A	1	-1	0	0	0	0	0	78.07995	81.2971	77.14804	14.34562	32.005	79.71056	-0.375	78.12402	-0.3150005	14.33406	4.000092E-02	0	1	1	0.15	-2	-0.3999023	2.285168E-04	13.97062	0.9738596	26.50587	25.16196	0.1642641	2.147584	60.81272
9/22/2014 2:43:43 PM	14:43:43	0	A	1	0	0	0	0	0	0	78.07995	81.69374	77.16516	14.34562	32.42999	79.71056	-0.375	78.12402	-0.3080006	14.3342	4.199982E-02	0	1	1	0.15	-2	-0.3999023	1.522825E-04	13.97062	0.9738596	26.50587	25.38071	0.1684296	2.202045	62.35486
9/22/2014 2:43:53 PM	14:43:53	0	A	1	0	0	0	0	0	0	78.07995	81.87003	77.16516	14.34562	32.42999	79.75463	-0.375	78.3003	-0.316	14.33428	4.199982E-02	0	1	1	0.15	-2	-0.6000977	1.522825E-04	13.97062	0.9738596	26.53035	25.47792	0.1662747	2.173872	61.55708
9/22/2014 2:44:03 PM	14:44:03	0	A	1	-1	0	0	0	0	0	77.94774	82.13445	77.13095	14.34562	32.86501	79.66649	-0.3699951	78.21216	-0.3190002	14.3342	4.000092E-02	0	1	1	0.15	-2	-0.6000977	1.522825E-04	13.97062	0.9738596	26.48138	25.62373	0.164252	2.147426	60.80823
9/22/2014 2:44:13 PM	14:44:13	0	A	1	-1	0	0	0	0	0	77.99181	81.82595	77.15659	14.34562	33.38499	79.71056	-0.3699951	78.12402	-0.3169994	14.33431	4.100037E-02	0	1	1	0.15	-2	-0.6000977	2.285168E-04	13.97062	0.9738596	26.57932	25.45361	0.1642655	2.147604	60.81326
9/22/2014 2:44:23 PM	14:44:23	0	A	1	-1	0	0	0	0	0	78.12402	81.87003	77.15659	14.34562	33.38499	79.66649	-0.3699951	78.07995	-0.3239994	14.33384	4.000092E-02	0	1	1	0.15	-2	-0.6000977	2.285168E-04	13.97563	0.9742085	26.48138	25.50793	0.1642693	2.147653	60.81466
9/22/2014 2:44:33 PM	14:44:33	0	A	1	-1	0	0	0	0	0	78.12402	81.47339	77.14804	14.34525	33.64	79.71056	-0.3699951	78.12402	-0.316	14.33394	4.100037E-02	0	1	1	0.15	-2	-0.6000977	1.522825E-04	13.97525	0.9742078	26.50587	25.28916	0.1664185	2.175751	61.6103
9/22/2014 2:44:43 PM	14:44:43	0	A	1	0	0	0	0	0	0	78.12402	81.16489	77.14804	14.34525	34.015	79.88684	-0.3699951	78.3003	-0.3169994	14.33387	3.899956E-02	0	1	1	0.15	-2	-0.6000977	1.522825E-04	13.97525	0.9742078	26.6038	25.119	0.1621723	2.120236	60.0383
9/22/2014 2:44:53 PM	14:44:53	0	A	1	0	0	0	0	0	0	78.25623	80.72418	77.14804	14.34525	34.015	79.7987	-0.3699951	78.21216	-0.3099995	14.33354	3.899956E-02	0	1	1	0.15	-2	-0.3999023	1.522825E-04	13.97525	0.9742078	26.55483	24.87595	0.1621832	2.120379	60.04235
9/22/2014 2:45:03 PM	14:45:03	0	A	1	-1	0	0	0	0	0	78.16809	80.37162	77.17368	14.34488	33.705	79.71056	-0.3650055	78.12402	-0.3110008	14.33356	4.000092E-02	0	1	1	0.15	-2	-0.3999023	1.522825E-04	13.97488	0.9742072	26.50587	24.68145	0.1664163	2.175723	61.60951
9/22/2014 2:45:13 PM	14:45:13	0	A	1	-1	0	0	0	0	0	78.03587	80.98861	77.17368	14.34525	33.47	79.75463	-0.3699951	78.3003	-0.3150005	14.33354	4.000092E-02	0	1	1	0.15	-2	-0.6000977	2.285168E-04	13.97525	0.9742078	26.53035	25.02179	0.1642352	2.147207	60.80202
9/22/2014 2:45:23 PM	14:45:23	0	A	1	0	0	0	0	0	0	78.3003	81.16489	77.17368	14.34525	33.47	79.93092	-0.3699951	78.34438	-0.3099995	14.33408	4.400063E-02	0	1	1	0.15	-2	-0.3999023	2.285168E-04	13.97525	0.9742078	26.62829	25.119	0.1723012	2.252661	63.78814
9/22/2014 2:45:33 PM	14:45:33	0	A	1	-1	0	0	0	0	0	78.16809	81.25303	77.20792	14.34525	33.965	79.75463	-0.3699951	78.16809	-0.309	14.33397	4.500008E-02	0	1	1	0.15	-2	-0.6000977	1.522825E-04	13.97025	0.973859	26.53035	25.13762	0.1742689	2.278387	64.51662
9/22/2014 2:45:43 PM	14:45:43	0	A	1	-1	0	0	0	0	0	78.3003	81.78188	77.20792	14.34525	33.66499	79.84277	-0.375	78.25623	-0.3150005	14.33347	4.299927E-02	0	1	1	0.15	-2	-0.6000977	1.522825E-04	13.97025	0.973859	26.57932	25.42926	0.1703909	2.227687	63.08096
9/22/2014 2:45:53 PM	14:45:53	0	A	1	-1	0	0	0	0	0	78.16809	81.95816	77.20792	14.34525	33.66499	79.93092	-0.3699951	78.34438	-0.3139992	14.33372	4.400063E-02	0	1	1	0.15	-2	-0.3999023	2.285168E-04	13.97525	0.9742078	26.62829	25.55649	0.172299	2.252632	63.78733
9/22/2014 2:46:03 PM	14:46:03	0	A	1	-1	0	0	0	0	0	78.16809	81.6056	77.22501	14.34562	33.8	79.93092	-0.375	78.21216	-0.3110008	14.33402	4.299927E-02	0	1	1	0.15	-2	-0.6000977	1.522825E-04	13.97062	0.9738596	26.62829	25.33212	0.1684153	2.201857	62.34955
9/22/2014 2:46:13 PM	14:46:13	0	A	1	-1	0	0	0	0	0	78.34438	81.56152	77.23355	14.34525	33.715	79.84277	-0.375	78.38844	-0.3120003	14.33412	4.400063E-02	0	1	1	0.15	-2	-0.6000977	2.285168E-04	13.97526	0.9742078	26.57932	25.33778	0.1722946	2.252575	63.78572
9/22/2014 2:46:23 PM	14:46:23	0	A	1	-1	0	0	0	0	0	78.21216	81.38525	77.23355	14.34525	33.715	79.84277	-0.3699951	78.25623	-0.3220005	14.33361	4.400063E-02	0	1	1	0.15	-2	-0.3999023	2.285168E-04	13.97526	0.9742078	26.57932	25.24053	0.1723119	2.252801	63.79213
9/22/2014 2:46:33 PM	14:46:33	0	A	1	-1	0	0	0	0	0	78.16809	81.07675	77.24207	14.34525	33.545	79.84277	-0.3699951	78.38844	-0.3139992	14.33419	4.299927E-02	0	1	1	0.15	-2	-0.6000977	1.522825E-04	13.97525	0.9742078	26.57932	25.07041	0.1703751	2.22748	63.0751
9/22/2014 2:46:43 PM	14:46:43	0	A	1	-1	0	0	0	0	0	78.34438	80.94453	77.25064	14.34525	32.69501	79.88684	-0.3650055	78.3003	-0.3150005	14.33401	4.299927E-02	0	1	1	0.15	-2	-0.6000977	2.285168E-04	13.98024	0.9745557	26.6038	25.02735	0.1703874	2.227641	63.07966
9/22/2014 2:46:53 PM	14:46:53	0	A	1	-1	0	0	0	0	0	78.34438	80.37162	77.25064	14.34525	32.69501	79.84277	-0.3600006	78.25623	-0.3069992	14.33376	4.199982E-02	0	1	1	0.15	-2	-0.3999023	2.285168E-04	13.98024	0.9745557	26.57932	24.71136	0.1684071	2.20175	62.34651
9/22/2014 2:47:03 PM	14:47:03	0	A	1	0	0	0	0	0	0	78.34438	80.72418	77.27631	14.34525	32.63	79.88684	-0.3650055	78.3003	-0.316	14.33383	4.000092E-02	0	1	1	0.15	-2	-0.6000977	1.522825E-04	13.98024	0.9745557	26.6038	24.90579	0.1642369	2.147228	60.80263
9/22/2014 2:47:13 PM	14:47:13	0	A	1	-1	0	0	0	0	0	78.21216	80.8564	77.27631	14.3445	32.465	80.01905	-0.3650055	78.43251	-0.3169994	14.33312	3.899956E-02	0	1	1	0.15	-2	-0.3999023	2.285168E-04	13.9795	0.9745543	26.67725	24.97862	0.1642134	2.146921	60.79394
9/22/2014 2:47:23 PM	14:47:23	0	A	1	-1	0	0	0	0	0	78.34438	80.68011	77.27631	14.3445	32.465	79.97498	-0.3650055	78.25623	-0.3260002	14.3329	4.000092E-02	0	1	1	0.15	-2	-0.2001953	2.285168E-04	13.9795	0.9745543	26.65277	24.88134	0.1621732	2.120249	60.03865
9/22/2014 2:47:33 PM	14:47:33	0	A	1	-1	0	0	0	0	0	78.21216	80.8564	77.2934	14.34413	32.405	79.84277	-0.3650055	78.25623	-0.3199997	14.33263	4.100037E-02	0	1	1	0.15	-2	-0.3999023	1.522825E-04	13.97413	0.9742058	26.57932	24.94872	0.1621717	2.120229	60.03809
9/22/2014 2:47:43 PM	14:47:43	0	A	1	-1	0	0	0	0	0	78.21216	80.90047	77.31903	14.3445	32.57001	79.88684	-0.3650055	78.3003	-0.3139992	14.33301	3.899956E-02	0	1	1	0.15	-2	-0.3999023	2.285168E-04	13.9795	0.9745543	26.6038	25.0029	0.1642322	2.147167	60.8009
9/22/2014 2:47:53 PM	14:47:53	0	A	1	0	0	0	0	0	0	78.21216	80.98861	77.31903	14.3445	32.57001	79.88684	-0.3650055	78.43251	-0.3120003	14.33305	4.000092E-02	0	1	1	0.15	-2	-0.3999023	1.522825E-04	13.9795	0.9745543	26.6038	25.05153	0.1621485	2.119925	60.02949
9/22/2014 2:48:03 PM	14:48:03	0	A	1	-1	0	0	0	0	0	78.34438	80.98861	77.31049	14.3445	33.355	79.93092	-0.3650055	78.47659	-0.3139992	14.33283	4.199982E-02	0	1	1	0.15	-2	-0.6000977	1.522825E-04	13.9795	0.9745543	26.62829	25.05153	0.1683685	2.201245	62.33221
9/22/2014 2:48:13 PM	14:48:13	0	A	1	0	0	0	0	0	0	78.21216	80.68011	77.34473	14.34488	33.22501	79.93092	-0.3650055	78.34438	-0.3129997	14.33313	4.000092E-02	0	1	1	0.15	-2	-0.6000977	2.285168E-04	13.98487	0.9749039	26.62829	24.91135	0.1642264	2.147092	60.79877
9/22/2014 2:48:23 PM	14:48:23	0	A	1	0	0	0	0	0	0	78.34438	81.12082	77.34473	14.34488	33.22501	79.88684	-0.3650055	78.3003	-0.3239994	14.33327	4.100037E-02	0	1	1	0.15	-2	-0.6000977	1.522825E-04	13.98487	0.9749039	26.6038	25.15447	0.1642337	2.147187	60.80146
9/22/2014 2:48:33 PM	14:48:33	0	A	1	-1	0	0	0	0	0	78.38844	81.12082	77.37036	14.34413	33.27499	80.06313	-0.3650055	78.47659	-0.3190002	14.33271	4.199982E-02	0	1	1	0.15	-2	-0.3999023	2.285168E-04	13.98413	0.9749026	26.70174	25.15434	0.1683677	2.201236	62.33194
9/22/2014 2:48:43 PM	14:48:43	0	A	1	-1	0	0	0	0	0	78.25623	80.81232	77.36179	14.34413	33.37	79.93092	-0.3650055	78.34438	-0.3299999	14.33195	3.800011E-02	0	1	1	0.15	-2	-0.6000977	1.522825E-04	13.98413	0.9749026	26.62829	24.98418	0.1600181	2.092072	59.24078
9/22/2014 2:48:53 PM	14:48:53	0	A	1	-1	0	0	0	0	0	78.34438	80.76826	77.36179	14.34413	33.37	79.88684	-0.3650055	78.43251	-0.3349991	14.33224	3.899956E-02	0	1	1	0.15	-2	-0.6000977	2.285168E-04	13.97912	0.9745536	26.6038	24.92996	0.1621439	2.119865	60.0278
9/22/2014 2:49:03 PM	14:49:03	0	A	1	-1	0	0	0	0	0	78.38844	80.63605	77.40457	14.3445	33.265	79.7987	-0.3600006	78.34438	-0.3279991	14.33265	3.899956E-02	0	1	1	0.15	-2	-0.3999023	2.285168E-04	13.9845	0.9749032	26.55483	24.88697	0.162159	2.120063	60.03339
9/22/2014 2:49:13 PM	14:49:13	0	A	1	-1	0	0	0	0	0	78.34438	80.63605	77.396	14.3445	33.155	79.93092	-0.3650055	78.34438	-0.3209991	14.33272	4.199982E-02	0	1	1	0.15	-2	-0.3999023	2.285168E-04	13.9795	0.9745543	26.62829	24.85706	0.1683877	2.201497	62.33934
9/22/2014 2:49:23 PM	14:49:23	0	A	1	-1	0	0	0	0	0	78.38844	80.37162	77.396	14.3445	33.155	79.93092	-0.3600006	78.47659	-0.3220005	14.33276	4.100037E-02	0	1	1	0.15	-2	-0.3999023	1.522825E-04	13.9795	0.9745543	26.62829	24.71122	0.1663592	2.174976	61.58836
9/22/2014 2:49:33 PM	14:49:33	0	A	1	-1	0	0	0	0	0	78.25623	80.06313	77.396	14.3445	32.89999	79.93092	-0.3650055	78.34438	-0.316	14.33301	4.000092E-02	0	1	1	0.15	-2	-0.6000977	1.522825E-04	13.9795	0.9745543	26.62829	24.54107	0.1642257	2.147083	60.79851
9/22/2014 2:49:43 PM	14:49:43	0	A	1	-1	0	0	0	0	0	78.38844	80.1072	77.42163	14.3445	32.33501	79.75463	-0.3650055	78.3003	-0.323	14.3325	4.199982E-02	0	1	1	0.15	-2	-0.3999023	1.522825E-04	13.9795	0.9745543	26.53035	24.56538	0.1683931	2.201566	62.34132
9/22/2014 2:49:53 PM	14:49:53	0	A	1	0	0	0	0	0	0	78.38844	80.15127	77.42163	14.3445	32.33501	79.88684	-0.3650055	78.43251	-0.3169994	14.33279	4.299927E-02	0	1	1	0.15	-2	-0.3999023	1.522825E-04	13.9795	0.9745543	26.6038	24.58969	0.1742205	2.277755	64.49872
9/22/2014 2:50:03 PM	14:50:03	0	A	1	0	0	0	0	0	0	78.25623	80.06313	77.42163	14.34525	32.02	79.93092	-0.3650055	78.34438	-0.316	14.33379	4.100037E-02	0	1	1	0.15	-2	-0.6000977	1.522825E-04	13.98024	0.9745557	26.62829	24.5412	0.1663849	2.175312	61.59786
9/22/2014 2:50:13 PM	14:50:13	0	A	1	-1	0	0	0	0	0	78.38844	80.01905	77.42163	14.34413	31.815	79.7987	-0.3650055	78.34438	-0.3299999	14.33213	4.199982E-02	0	1	1	0.15	-2	-0.6000977	1.522825E-04	13.97912	0.9745536	26.55483	24.51672	0.1683843	2.201452	62.33807
9/22/2014 2:50:23 PM	14:50:23	0	A	1	-1	0	0	0	0	0	78.38844	79.7987	77.42163	14.34413	31.815	79.75463	-0.3600006	78.3003	-0.3250008	14.33256	4.100037E-02	0	1	1	0.15	-2	-0.3999023	1.522825E-04	13.98413	0.9749026	26.53035	24.42503	0.1663843	2.175303	61.59763
9/22/2014 2:50:33 PM	14:50:33	0	A	1	-1	0	0	0	0	0	78.43251	79.75463	77.43021	14.3445	31.94	79.75463	-0.3600006	78.3003	-0.3250008	14.33261	4.199982E-02	0	1	1	0.15	-2	-0.6000977	1.522825E-04	13.9845	0.9749032	26.53035	24.40079	0.1663846	2.175308	61.59775
9/22/2014 2:50:43 PM	14:50:43	0	A	1	-1	0	0	0	0	0	78.25623	80.01905	77.43021	14.3445	31.94	79.88684	-0.3600006	78.43251	-0.316	14.33283	3.800011E-02	0	1	1	0.15	-2	-0.6000977	1.522825E-04	13.9845	0.9749032	26.6038	24.54666	0.1600602	2.092622	59.25637
9/22/2014 2:50:53 PM	14:50:53	0	A	1	-1	0	0	0	0	0	78.43251	79.53428	77.43021	14.34413	32.11	79.88684	-0.3600006	78.43251	-0.3190002	14.33234	3.700066E-02	0	1	1	0.15	-2	-0.3999023	2.285168E-04	13.98413	0.9749026	26.6038	24.27919	0.1579428	2.064941	58.47251
9/22/2014 2:51:03 PM	14:51:03	0	A	1	-1	0	0	0	0	0	78.38844	80.01905	77.44727	14.34413	31.895	79.7987	-0.3600006	78.47659	-0.3260002	14.33274	4.000092E-02	0	1	1	0.15	-2	-0.3999023	1.522825E-04	13.98413	0.9749026	26.55483	24.54663	0.1642047	2.146809	60.79075
9/22/2014 2:51:13 PM	14:51:13	0	A	1	-1	0	0	0	0	0	78.3003	79.88684	77.45584	14.34413	31.62	79.88684	-0.3650055	78.3003	-0.3199997	14.33245	4.100037E-02	0	1	1	0.15	-2	-0.3999023	1.522825E-04	13.97912	0.9745536	26.6038	24.44382	0.1663836	2.175295	61.5974
9/22/2014 2:51:23 PM	14:51:23	0	A	1	-1	0	0	0	0	0	78.38844	79.7987	77.45584	14.34413	31.62	79.7987	-0.3600006	78.47659	-0.3260002	14.33206	4.000092E-02	0	1	1	0.15	-2	-0.3999023	1.522825E-04	13.98413	0.9749026	26.55483	24.42503	0.1642008	2.146757	60.7893
9/22/2014 2:51:33 PM	14:51:33	0	A	1	-1	0	0	0	0	0	78.43251	80.01905	77.45584	14.34375	31.37	79.75463	-0.3650055	78.3003	-0.3299999	14.33172	3.800011E-02	0	1	1	0.15	-2	-0.6000977	2.285168E-04	13.97874	0.974553	26.53035	24.51665	0.1600231	2.092138	59.24265
9/22/2014 2:51:43 PM	14:51:43	0	A	1	-1	0	0	0	0	0	78.38844	79.97498	77.44727	14.34375	31.255	79.62242	-0.3650055	78.3003	-0.3279991	14.33204	3.899956E-02	0	1	1	0.15	-2	-0.3999023	2.285168E-04	13.97874	0.974553	26.4569	24.49237	0.162162	2.120101	60.03448
9/22/2014 2:51:53 PM	14:51:53	0	A	1	-1	0	0	0	0	0	78.43251	80.01905	77.44727	14.34375	31.255	79.62242	-0.3650055	78.43251	-0.3190002	14.33211	3.899956E-02	0	1	1	0.15	-2	-0.3999023	2.285168E-04	13.97874	0.974553	26.4569	24.51665	0.166362	2.175013	61.5894
9/22/2014 2:52:03 PM	14:52:03	0	A	1	0	0	0	0	0	0	78.25623	80.15127	77.43021	14.34375	31.58501	79.62242	-0.3600006	78.43251	-0.3269997	14.33186	4.100037E-02	0	1	1	0.15	-2	-0.6000977	2.285168E-04	13.97874	0.974553	26.4569	24.58959	0.1663606	2.174994	61.58887
9/22/2014 2:52:13 PM	14:52:13	0	A	1	-1	0	0	0	0	0	78.3003	80.01905	77.43021	14.34375	31.58501	79.75463	-0.3650055	78.43251	-0.3390007	14.33168	3.800011E-02	0	1	1	0.15	-2	-0.6000977	2.285168E-04	13.98375	0.9749019	26.53035	24.54656	0.160004	2.091888	59.23557
9/22/2014 2:52:23 PM	14:52:23	0	A	1	-1	0	0	0	0	0	78.25623	80.5479	77.43021	14.34488	32.11501	79.62242	-0.3600006	78.43251	-0.3209991	14.33335	3.899956E-02	0	1	1	0.15	-2	-0.3999023	2.285168E-04	13.97987	0.974555	26.4569	24.8085	0.1642147	2.146939	60.79443
9/22/2014 2:52:33 PM	14:52:33	0	A	1	-1	0	0	0	0	0	78.38844	80.15127	77.43021	14.3445	31.59	79.62242	-0.3650055	78.43251	-0.3299999	14.33261	4.000092E-02	0	1	1	0.15	-2	-0.6000977	2.285168E-04	13.9795	0.9745543	26.4569	24.58969	0.162146	2.119893	60.02858
9/22/2014 2:52:43 PM	14:52:43	0	A	1	0	0	0	0	0	0	78.25623	79.97498	77.42163	14.3445	31.44501	79.75463	-0.3650055	78.43251	-0.3360004	14.33279	4.199982E-02	0	1	1	0.15	-2	-0.6000977	1.522825E-04	13.9795	0.9745543	26.53035	24.49248	0.1683749	2.201329	62.33459
9/22/2014 2:52:53 PM	14:52:53	0	A	1	-1	0	0	0	0	0	78.52065	80.01905	77.42163	14.3445	31.44501	79.66649	-0.3650055	78.47659	-0.3250008	14.3329	4.199982E-02	0	1	1	0.15	-2	-0.6000977	1.522825E-04	13.9795	0.9745543	26.48138	24.51679	0.1663601	2.174987	61.58867
9/22/2014 2:53:03 PM	14:53:03	0	A	1	0	0	0	0	0	0	78.38844	79.97498	77.42163	14.34488	31.605	79.53428	-0.3600006	78.47659	-0.3169994	14.33309	4.199982E-02	0	1	1	0.15	-2	-0.6000977	2.285168E-04	13.97987	0.974555	26.40793	24.49254	0.16837	2.201265	62.33279
9/22/2014 2:53:13 PM	14:53:13	0	A	1	-1	0	0	0	0	0	78.25623	80.15127	77.43875	14.34413	31.98	79.53428	-0.3650055	78.47659	-0.3369999	14.33202	4.000092E-02	0	1	1	0.15	-2	-0.3999023	2.285168E-04	13.98413	0.9749026	26.40793	24.61953	0.1621363	2.119766	60.02498
9/22/2014 2:53:23 PM	14:53:23	0	A	1	-1	0	0	0	0	0	78.43251	80.15127	77.43875	14.34413	31.98	79.57835	-0.3650055	78.38844	-0.3269997	14.3322	4.100037E-02	0	1	1	0.15	-2	-0.3999023	1.522825E-04	13.97912	0.9745536	26.43242	24.58962	0.1663691	2.175105	61.59201
9/22/2014 2:53:33 PM	14:53:33	0	A	1	-1	0	0	0	0	0	78.38844	79.71056	77.44727	14.34488	31.55	79.53428	-0.3650055	78.34438	-0.3349991	14.33291	4.199982E-02	0	1	1	0.15	-2	-0.3999023	1.522825E-04	13.98487	0.9749039	26.40793	24.37654	0.1683889	2.201512	62.33977
9/22/2014 2:53:43 PM	14:53:43	0	A	1	0	0	0	0	0	0	78.38844	80.01905	77.44727	14.34488	31.55	79.44614	-0.3650055	78.25623	-0.3360004	14.33298	3.899956E-02	0	1	1	0.15	-2	-0.6000977	2.285168E-04	13.97987	0.974555	26.35897	24.51686	0.1621737	2.120255	60.03882
9/22/2014 2:53:53 PM	14:53:53	0	A	1	-1	0	0	0	0	0	78.38844	80.41569	77.43021	14.34413	31.52	79.53428	-0.3650055	78.47659	-0.3279991	14.33245	3.899956E-02	0	1	1	0.15	-2	-0.3999023	1.522825E-04	13.97912	0.9745536	26.40793	24.73546	0.1621387	2.119797	60.02588
9/22/2014 2:54:03 PM	14:54:03	0	A	1	-1	0	0	0	0	0	78.38844	80.28348	77.44727	14.3445	31.83	79.53428	-0.3650055	78.47659	-0.3239994	14.33279	4.000092E-02	0	1	1	0.15	-2	-0.6000977	2.285168E-04	13.97451	0.9742065	26.40793	24.63279	0.1642051	2.146813	60.79086
9/22/2014 2:54:13 PM	14:54:13	0	A	1	-1	0	0	0	0	0	78.25623	80.41569	77.44727	14.3445	31.83	79.44614	-0.3699951	78.38844	-0.3330002	14.33258	4.100037E-02	0	1	1	0.15	-2	-0.3999023	1.522825E-04	13.97451	0.9742065	26.35897	24.70569	0.1663713	2.175134	61.59282
9/22/2014 2:54:23 PM	14:54:23	0	A	1	-1	0	0	0	0	0	78.38844	80.28348	77.44727	14.34488	32.015	79.44614	-0.375	78.38844	-0.3309994	14.33288	3.800011E-02	0	1	1	0.15	-2	-0.3999023	2.285168E-04	13.96988	0.9738582	26.35897	24.60292	0.1600668	2.092708	59.2588
9/22/2014 2:54:33 PM	14:54:33	0	A	1	-1	0	0	0	0	0	78.25623	80.41569	77.45584	14.34413	31.785	79.44614	-0.375	78.38844	-0.3349991	14.33224	3.899956E-02	0	1	1	0.15	-2	-0.3999023	1.522825E-04	13.96913	0.9738569	26.35897	24.67568	0.1621503	2.119949	60.03016
9/22/2014 2:54:43 PM	14:54:43	0	A	1	-1	0	0	0	0	0	78.25623	80.41569	77.43875	14.34413	31.565	79.4902	-0.375	78.43251	-0.3320007	14.33184	4.000092E-02	0	1	1	0.15	-2	-0.6000977	1.522825E-04	13.97413	0.9742058	26.38345	24.70563	0.1642061	2.146826	60.79123
9/22/2014 2:54:53 PM	14:54:53	0	A	1	-1	0	0	0	0	0	78.43251	80.15127	77.43875	14.34413	31.565	79.44614	-0.375	78.38844	-0.3379993	14.33238	4.000092E-02	0	1	1	0.15	-2	-0.3999023	1.522825E-04	13.96913	0.9738569	26.35897	24.52991	0.1642156	2.146951	60.79477
9/22/2014 2:55:03 PM	14:55:03	0	A	1	-1	0	0	0	0	0	78.38844	80.01905	77.48151	14.34488	31.495	79.4902	-0.3699951	78.3003	-0.3250008	14.33309	0.0359993	0	1	1	0.15	-2	-0.3999023	1.522825E-04	13.97488	0.9742072	26.38345	24.48705	0.1579656	2.065238	58.48094
9/22/2014 2:55:13 PM	14:55:13	0	A	1	-1	0	0	0	0	0	78.38844	79.88684	77.48151	14.34488	31.495	79.4902	-0.3699951	78.43251	-0.3330002	14.33262	3.899956E-02	0	1	1	0.15	-2	-0.3999023	2.285168E-04	13.97488	0.9742072	26.38345	24.41411	0.1621461	2.119894	60.02861
9/22/2014 2:55:23 PM	14:55:23	0	A	1	0	0	0	0	0	0	78.25623	79.75463	77.46439	14.3445	31.745	79.44614	-0.3650055	78.38844	-0.3260002	14.33254	4.100037E-02	0	1	1	0.15	-2	-0.3999023	2.285168E-04	13.97451	0.9742065	26.35897	24.34111	0.166371	2.175131	61.59274
9/22/2014 2:55:33 PM	14:55:33	0	A	1	-1	0	0	0	0	0	78.38844	79.75463	77.48151	14.34375	32.05	79.35799	-0.3650055	78.43251	-0.3360004	14.3319	4.199982E-02	0	1	1	0.15	-2	-0.6000977	2.285168E-04	13.97375	0.9742051	26.31	24.34101	0.1683696	2.20126	62.33264
9/22/2014 2:55:43 PM	14:55:43	0	A	1	-1	0	0	0	0	0	78.38844	79.88684	77.48151	14.34375	32.05	79.31393	-0.3699951	78.38844	-0.3309994	14.33193	4.199982E-02	0	1	1	0.15	-2	-0.3999023	2.285168E-04	13.97375	0.9742051	26.28552	24.41394	0.1683765	2.20135	62.33518
9/22/2014 2:55:53 PM	14:55:53	0	A	1	0	0	0	0	0	0	78.21216	80.01905	77.49005	14.34413	32.145	79.26985	-0.3699951	78.34438	-0.3360004	14.33213	4.400063E-02	0	1	1	0.15	-2	-0.6000977	2.285168E-04	13.97413	0.9742058	26.26103	24.48692	0.1722894	2.252507	63.78379
9/22/2014 2:56:03 PM	14:56:03	0	A	1	-1	0	0	0	0	0	78.38844	79.88684	77.49005	14.34413	32.28999	79.4902	-0.3699951	78.43251	-0.3299999	14.33238	3.899956E-02	0	1	1	0.15	-2	-0.3999023	2.285168E-04	13.97413	0.9742058	26.38345	24.41401	0.1621447	2.119876	60.02811
9/22/2014 2:56:13 PM	14:56:13	0	A	1	-1	0	0	0	0	0	78.25623	79.75463	77.49005	14.34413	31.7	79.35799	-0.3650055	78.3003	-0.3330002	14.33213	4.100037E-02	0	1	1	0.15	-2	-0.6000977	1.522825E-04	13.97912	0.9745536	26.31	24.37085	0.1663818	2.175271	61.5967
9/22/2014 2:56:23 PM	14:56:23	0	A	1	-1	0	0	0	0	0	78.34438	80.01905	77.49005	14.34413	31.7	79.35799	-0.3699951	78.3003	-0.3250008	14.33227	4.199982E-02	0	1	1	0.15	-2	-0.6000977	2.285168E-04	13.97413	0.9742058	26.31	24.48692	0.1683917	2.201549	62.34082
9/22/2014 2:56:33 PM	14:56:33	0	A	1	-1	0	0	0	0	0	78.34438	80.01905	77.49005	14.34375	31.5	79.4902	-0.3650055	78.43251	-0.3260002	14.33186	4.400063E-02	0	1	1	0.15	-2	-0.3999023	2.285168E-04	13.97375	0.9742051	26.38345	24.48685	0.1722742	2.252309	63.77817
9/22/2014 2:56:43 PM	14:56:43	0	A	1	-1	0	0	0	0	0	78.34438	79.75463	77.49005	14.34413	31.25999	79.26985	-0.3650055	78.34438	-0.3339996	14.33234	3.700066E-02	0	1	1	0.15	-2	-0.3999023	1.522825E-04	13.97912	0.9745536	26.26103	24.37085	0.1579553	2.065103	58.47711
9/22/2014 2:56:53 PM	14:56:53	0	A	1	-1	0	0	0	0	0	78.34438	79.75463	77.49005	14.34413	31.25999	79.35799	-0.3650055	78.43251	-0.3400002	14.33202	4.000092E-02	0	1	1	0.15	-2	-0.3999023	2.285168E-04	13.97912	0.9745536	26.31	24.22501	0.1642071	2.146839	60.79162
9/22/2014 2:57:03 PM	14:57:03	0	A	1	0	0	0	0	0	0	78.34438	79.53428	77.4986	14.3445	31.44	79.31393	-0.3650055	78.38844	-0.3269997	14.33268	4.000092E-02	0	1	1	0.15	-2	-0.3999023	1.522825E-04	13.9795	0.9745543	26.28552	24.24939	0.1642174	2.146974	60.79542
9/22/2014 2:57:13 PM	14:57:13	0	A	1	-1	0	0	0	0	0	78.34438	79.62242	77.4986	14.3445	31.44	79.26985	-0.3650055	78.34438	-0.3309994	14.33258	4.000092E-02	0	1	1	0.15	-2	-0.6000977	2.285168E-04	13.97451	0.9742065	26.26103	24.26821	0.1663778	2.175219	61.59524
9/22/2014 2:57:23 PM	14:57:23	0	A	1	0	0	0	0	0	0	78.34438	79.62242	77.48151	14.34413	31.035	79.44614	-0.3699951	78.38844	-0.3390007	14.33198	4.199982E-02	0	1	1	0.15	-2	-0.3999023	1.522825E-04	13.97912	0.9745536	26.35897	24.29795	0.1683768	2.201353	62.33528
9/22/2014 2:57:33 PM	14:57:33	0	A	1	-1	0	0	0	0	0	78.34438	79.31393	77.48151	14.34413	30.745	79.26985	-0.375	78.21216	-0.3349991	14.33213	3.899956E-02	0	1	1	0.15	-2	-0.3999023	1.522825E-04	13.96913	0.9738569	26.26103	24.06815	0.1621752	2.120275	60.03939
9/22/2014 2:57:43 PM	14:57:43	0	A	1	-1	0	0	0	0	0	78.34438	79.62242	77.48151	14.34413	30.745	79.22578	-0.375	78.3003	-0.3279991	14.33253	3.899956E-02	0	1	1	0.15	-2	-0.3999023	2.285168E-04	13.97413	0.9742058	26.23655	24.26814	0.1642294	2.147131	60.79987
9/22/2014 2:57:53 PM	14:57:53	0	A	1	-1	0	0	0	0	0	78.34438	79.84277	77.47296	14.34375	30.66499	79.31393	-0.3699951	78.38844	-0.3309994	14.33164	4.100037E-02	0	1	1	0.15	-2	-0.3999023	2.285168E-04	13.96875	0.9738562	26.28552	24.35973	0.1663658	2.175063	61.59081
9/22/2014 2:58:03 PM	14:58:03	0	A	1	-1	0	0	0	0	0	78.34438	79.66649	77.44727	14.34375	30.795	79.31393	-0.375	78.38844	-0.3339996	14.33146	4.100037E-02	0	1	1	0.15	-2	-0.3999023	1.522825E-04	13.96875	0.9738562	26.28552	24.26251	0.1663648	2.175049	61.59042
9/22/2014 2:58:13 PM	14:58:13	0	A	1	-1	0	0	0	0	0	78.34438	79.62242	77.45584	14.34375	30.875	79.22578	-0.375	78.3003	-0.3379993	14.33179	4.000092E-02	0	1	1	0.15	-2	-0.3999023	2.285168E-04	13.96875	0.9738562	26.23655	24.2382	0.1642252	2.147076	60.79831
9/22/2014 2:58:23 PM	14:58:23	0	A	1	-1	0	0	0	0	0	78.34438	79.93092	77.45584	14.34375	30.875	79.26985	-0.375	78.21216	-0.3330002	14.33193	4.100037E-02	0	1	1	0.15	-2	-0.3999023	1.522825E-04	13.96875	0.9738562	26.26103	24.40835	0.1663938	2.175428	61.60115
9/22/2014 2:58:33 PM	14:58:33	0	A	1	-1	0	0	0	0	0	78.34438	80.41569	77.41312	14.34413	30.715	79.26985	-0.3800049	78.34438	-0.3279991	14.33216	4.000092E-02	0	1	1	0.15	-2	-0.3999023	2.285168E-04	13.96412	0.973508	26.26103	24.64578	0.1642209	2.147019	60.79672
9/22/2014 2:58:43 PM	14:58:43	0	A	1	0	0	0	0	0	0	78.34438	80.50383	77.41312	14.34413	30.715	79.22578	-0.3800049	78.3003	-0.3290005	14.33209	3.899956E-02	0	1	1	0.15	-2	-0.6000977	1.522825E-04	13.96412	0.973508	26.23655	24.69437	0.1621622	2.120105	60.03459
9/22/2014 2:58:53 PM	14:58:53	0	A	1	-1	0	0	0	0	0	78.34438	80.50383	77.396	14.34337	30.605	79.22578	-0.3800049	78.3003	-0.3279991	14.3313	3.899956E-02	0	1	1	0.15	-2	-0.6000977	1.522825E-04	13.96337	0.9735066	26.23655	24.69423	0.1621578	2.120047	60.03294
9/22/2014 2:59:03 PM	14:59:03	0	A	1	-1	0	0	0	0	0	78.3003	80.41569	77.35324	14.34337	30.56	79.26985	-0.3800049	78.34438	-0.3369999	14.3313	4.000092E-02	0	1	1	0.15	-2	-0.3999023	2.285168E-04	13.96337	0.9735066	26.26103	24.64564	0.1642159	2.146955	60.79489
9/22/2014 2:59:13 PM	14:59:13	0	A	1	-1	0	0	0	0	0	78.34438	80.1072	77.35324	14.34337	30.56	79.35799	-0.3800049	78.3003	-0.3379993	14.33148	4.100037E-02	0	1	1	0.15	-2	-0.6000977	1.522825E-04	13.96337	0.9735066	26.31	24.47556	0.166378	2.175222	61.59531
9/22/2014 2:59:23 PM	14:59:23	0	A	1	-1	0	0	0	0	0	78.34438	80.19534	77.32761	14.343	30.49001	79.31393	-0.375	78.25623	-0.3250008	14.33118	3.899956E-02	0	1	1	0.15	-2	-0.6000977	1.522825E-04	13.968	0.9738548	26.28552	24.55402	0.1621635	2.120121	60.03505
9/22/2014 2:59:33 PM	14:59:33	0	A	1	-1	0	0	0	0	0	78.47659	80.15127	77.30197	14.34337	30.69	79.31393	-0.375	78.25623	-0.3330002	14.33156	4.000092E-02	0	1	1	0.15	-2	-0.6000977	2.285168E-04	13.96837	0.9738555	26.28552	24.52978	0.1642303	2.147143	60.80021
9/22/2014 2:59:43 PM	14:59:43	0	A	1	-1	0	0	0	0	0	78.34438	79.93092	77.30197	14.34337	30.69	79.22578	-0.375	78.3003	-0.3279991	14.33134	4.100037E-02	0	1	1	0.15	-2	-0.6000977	1.522825E-04	13.96337	0.9735066	26.23655	24.37834	0.1683863	2.201477	62.33879
9/22/2014 2:59:53 PM	14:59:53	0	A	1	0	0	0	0	0	0	78.3003	79.97498	77.26776	14.343	30.645	79.18172	-0.3800049	78.25623	-0.3349991	14.33086	4.000092E-02	0	1	1	0.15	-2	-0.6000977	2.285168E-04	13.968	0.9738548	26.21207	24.43253	0.1663809	2.17526	61.5964
9/22/2014 3:00:03 PM	15:00:03	0	A	1	-1	0	0	0	0	0	78.34438	80.15127	77.24207	14.34375	30.655	79.31393	-0.375	78.25623	-0.3330002	14.33172	4.000092E-02	0	1	1	0.15	-2	-0.6000977	1.522825E-04	13.96875	0.9738562	26.28552	24.52984	0.1642312	2.147155	60.80054
9/22/2014 3:00:13 PM	15:00:13	0	A	1	-1	0	0	0	0	0	78.3003	79.97498	77.24207	14.34375	30.655	79.31393	-0.3699951	78.12402	-0.3220005	14.33219	4.000092E-02	0	1	1	0.15	-2	-0.6000977	1.522825E-04	13.96875	0.9738562	26.28552	24.43263	0.1642534	2.147444	60.80874
9/22/2014 3:00:23 PM	15:00:23	0	A	1	0	0	0	0	0	0	78.47659	80.50383	77.22501	14.34337	30.86	79.31393	-0.375	78.25623	-0.3209991	14.33167	4.100037E-02	0	1	1	0.15	-2	-0.3999023	2.285168E-04	13.96837	0.9738555	26.28552	24.72421	0.1663856	2.175321	61.59814
9/22/2014 3:00:33 PM	15:00:33	0	A	1	0	0	0	0	0	0	78.3003	80.81232	77.20792	14.34262	30.94501	79.40207	-0.375	78.34438	-0.3360004	14.33059	4.100037E-02	0	1	1	0.15	-2	-0.6000977	2.285168E-04	13.96762	0.9738542	26.33448	24.89419	0.1663663	2.175068	61.59097
9/22/2014 3:00:43 PM	15:00:43	0	A	1	-1	0	0	0	0	0	78.3003	80.72418	77.20792	14.34262	30.94501	79.53428	-0.3699951	78.47659	-0.3279991	14.3307	4.000092E-02	0	1	1	0.15	-2	-0.6000977	2.285168E-04	13.96762	0.9738542	26.40793	24.84557	0.1641931	2.146656	60.78642
9/22/2014 3:00:53 PM	15:00:53	0	A	1	-1	0	0	0	0	0	78.56473	80.81232	77.1908	14.34262	31.185	79.40207	-0.375	78.34438	-0.3290005	14.33059	4.000092E-02	0	1	1	0.15	-2	-0.6000977	1.522825E-04	13.96762	0.9738542	26.33448	24.89419	0.1642119	2.146902	60.79338
9/22/2014 3:01:03 PM	15:01:03	0	A	1	-1	0	0	0	0	0	78.43251	80.81232	77.20792	14.34262	31.47	79.40207	-0.375	78.34438	-0.323	14.33113	3.899956E-02	0	1	1	0.15	-2	-0.3999023	1.522825E-04	13.97263	0.9742031	26.33448	24.92417	0.1621504	2.119951	60.03022
9/22/2014 3:01:13 PM	15:01:13	0	A	1	-1	0	0	0	0	0	78.43251	80.68011	77.20792	14.34262	31.47	79.31393	-0.3650055	78.38844	-0.3260002	14.33066	4.100037E-02	0	1	1	0.15	-2	-0.6000977	2.285168E-04	13.97263	0.9742031	26.28552	24.85123	0.1663602	2.174988	61.58871
9/22/2014 3:01:23 PM	15:01:23	0	A	1	-1	0	0	0	0	0	78.43251	80.41569	77.18225	14.34262	31.86	79.4902	-0.3600006	78.3003	-0.3320007	14.33052	4.000092E-02	0	1	1	0.15	-2	-0.6000977	1.522825E-04	13.98262	0.9748999	26.38345	24.83811	0.1642179	2.146981	60.79562
9/22/2014 3:01:33 PM	15:01:33	0	A	1	-1	0	0	0	0	0	78.43251	79.93092	77.1908	14.34225	32.17999	79.35799	-0.3600006	78.3003	-0.3309994	14.33047	3.899956E-02	0	1	1	0.15	-2	-0.6000977	1.522825E-04	13.97724	0.9745503	26.31	24.46782	0.1621531	2.119985	60.03119
9/22/2014 3:01:43 PM	15:01:43	0	A	1	-1	0	0	0	0	0	78.56473	80.15127	77.1908	14.34225	32.17999	79.31393	-0.3600006	78.25623	-0.3290005	14.33043	3.800011E-02	0	1	1	0.15	-2	-0.3999023	2.285168E-04	13.98225	0.9748993	26.28552	24.61926	0.1643449	2.14864	60.84262
9/22/2014 3:01:53 PM	15:01:53	0	A	1	-1	0	0	0	0	0	78.43251	80.01905	77.20792	14.34262	32.53999	79.44614	-0.3600006	78.38844	-0.3349991	14.33063	4.000092E-02	0	1	1	0.15	-2	-0.6000977	2.285168E-04	13.98262	0.9748999	26.35897	24.54639	0.1642056	2.146819	60.79105
9/22/2014 3:02:03 PM	15:02:03	0	A	1	0	0	0	0	0	0	78.56473	79.93092	77.19937	14.34262	32.515	79.4902	-0.3600006	78.43251	-0.3209991	14.33081	4.100037E-02	0	1	1	0.15	-2	-0.6000977	1.522825E-04	13.98262	0.9748999	26.38345	24.4978	0.1621358	2.119759	60.0248
9/22/2014 3:02:13 PM	15:02:13	0	A	1	-1	0	0	0	0	0	78.56473	80.01905	77.19937	14.34262	32.515	79.31393	-0.3650055	78.38844	-0.3309994	14.33084	4.199982E-02	0	1	1	0.15	-2	-0.3999023	2.285168E-04	13.97762	0.974551	26.28552	24.51652	0.1663612	2.175002	61.58909
9/22/2014 3:02:23 PM	15:02:23	0	A	1	-1	0	0	0	0	0	78.56473	80.01905	77.22501	14.34225	32.75999	79.44614	-0.3699951	78.25623	-0.3250008	14.33032	4.199982E-02	0	1	1	0.15	-2	-0.6000977	1.522825E-04	13.97724	0.9745503	26.28552	24.51645	0.1683869	2.201486	62.33904
9/22/2014 3:02:33 PM	15:02:33	0	A	1	-1	0	0	0	0	0	78.52065	79.88684	77.19937	14.34225	32.78999	79.35799	-0.3699951	78.3003	-0.3260002	14.33043	3.899956E-02	0	1	1	0.15	-2	-0.6000977	1.522825E-04	13.97226	0.9742025	26.31	24.41371	0.1621529	2.119982	60.03111
9/22/2014 3:02:43 PM	15:02:43	0	A	1	-1	0	0	0	0	0	78.38844	79.62242	77.19937	14.34225	32.78999	79.44614	-0.3699951	78.38844	-0.3279991	14.33029	4.000092E-02	0	1	1	0.15	-2	-0.6000977	2.285168E-04	13.97226	0.9742025	26.35897	24.26787	0.1621393	2.119805	60.02609
9/22/2014 3:02:53 PM	15:02:53	0	A	1	-1	0	0	0	0	0	78.38844	79.62242	77.20792	14.34225	33.2	79.40207	-0.3699951	78.21216	-0.323	14.33025	3.899956E-02	0	1	1	0.15	-2	-0.6000977	2.285168E-04	13.97226	0.9742025	26.33448	24.26787	0.1643503	2.148712	60.84464
9/22/2014 3:03:03 PM	15:03:03	0	A	1	-1	0	0	0	0	0	78.52065	80.01905	77.18225	14.34188	32.87	79.35799	-0.375	78.3003	-0.3330002	14.32962	4.100037E-02	0	1	1	0.15	-2	-0.6000977	7.623425E-05	13.96688	0.9738528	26.31	24.45667	0.1663672	2.175081	61.59132
9/22/2014 3:03:13 PM	15:03:13	0	A	1	-1	0	0	0	0	0	78.52065	80.41569	77.18225	14.34188	32.87	79.4902	-0.375	78.43251	-0.3320007	14.32966	4.000092E-02	0	1	1	0.15	-2	-0.6000977	1.522825E-04	13.96688	0.9738528	26.38345	24.67534	0.1643145	2.148243	60.83138
9/22/2014 3:03:23 PM	15:03:23	0	A	1	-1	0	0	0	0	0	78.52065	80.72418	77.15659	14.34188	33	79.4902	-0.375	78.43251	-0.3339996	14.32995	4.199982E-02	0	1	1	0.15	-2	-0.6000977	1.522825E-04	13.96688	0.9738528	26.38345	24.84546	0.1683582	2.20111	62.3284
9/22/2014 3:03:33 PM	15:03:33	0	A	1	-1	0	0	0	0	0	78.56473	80.94453	77.14804	14.34188	32.69501	79.35799	-0.375	78.43251	-0.3239994	14.32998	4.000092E-02	0	1	1	0.15	-2	0.2001953	-1.522825E-04	13.96187	0.9735038	26.31	24.93702	0.1643164	2.148268	60.83207
9/22/2014 3:03:43 PM	15:03:43	0	A	1	-1	0	0	0	0	0	78.52065	81.12082	77.14804	14.34188	32.69501	79.40207	-0.375	78.21216	-0.3299999	14.3298	4.100037E-02	0	1	1	0.15	-2	0.2001953	-1.522825E-04	13.96688	0.9738528	26.33448	25.06421	0.1663814	2.175266	61.59658
9/22/2014 3:03:53 PM	15:03:53	0	A	1	-1	0	0	0	0	0	78.38844	81.47339	77.10529	14.34225	32.325	79.4902	-0.3800049	78.3003	-0.3260002	14.33033	4.000092E-02	0	1	1	0.15	-2	0.3999023	-7.623425E-05	13.96225	0.9735045	26.38345	25.2287	0.1643378	2.148548	60.83999
9/22/2014 3:04:03 PM	15:04:03	0	A	1	-1	0	0	0	0	0	78.43251	81.34118	77.07111	14.34225	32.78	79.40207	-0.3800049	78.21216	-0.3239994	14.33036	4.000092E-02	0	1	1	0.15	-2	0.6000977	-1.522825E-04	13.96225	0.9735045	26.33448	25.15576	0.1643509	2.14872	60.84487
9/22/2014 3:04:13 PM	15:04:13	0	A	1	-1	0	0	0	0	0	78.43251	81.47339	77.07111	14.34225	32.78	79.40207	-0.3800049	78.21216	-0.3279991	14.33025	4.000092E-02	0	1	1	0.15	-2	0.3999023	-1.522825E-04	13.96225	0.9735045	26.33448	25.2287	0.1643503	2.148712	60.84464
9/22/2014 3:04:23 PM	15:04:23	0	A	1	-1	0	0	0	0	0	78.52065	81.69374	77.02835	14.34225	33.355	79.40207	-0.3800049	78.21216	-0.3349991	14.33018	4.199982E-02	0	1	1	0.15	-2	0.2001953	-1.522825E-04	13.96225	0.9735045	26.33448	25.35016	0.1663836	2.175295	61.59738
9/22/2014 3:04:33 PM	15:04:33	0	A	1	-1	0	0	0	0	0	78.56473	81.6056	76.97705	14.34225	32.72501	79.44614	-0.3800049	78.25623	-0.3209991	14.33047	4.299927E-02	0	1	1	0.15	-2	0.3999023	-1.522825E-04	13.96225	0.9735045	26.35897	25.30157	0.1703263	2.226841	63.05701
9/22/2014 3:04:43 PM	15:04:43	0	A	1	-1	0	0	0	0	0	78.56473	81.12082	76.97705	14.34225	32.72501	79.4902	-0.3800049	78.43251	-0.3239994	14.33025	4.199982E-02	0	1	1	0.15	-2	0.3999023	-1.522825E-04	13.96225	0.9735045	26.38345	25.03427	0.16836	2.201134	62.32906
9/22/2014 3:04:53 PM	15:04:53	0	A	1	-1	0	0	0	0	0	78.69694	81.07675	76.93433	14.34188	32.67999	79.4902	-0.3800049	78.43251	-0.3220005	14.32991	3.899956E-02	0	1	1	0.15	-2	0.3999023	-7.623425E-05	13.95688	0.9731559	26.38345	24.98001	0.1621308	2.119694	60.02293
9/22/2014 3:48:11 PM	15:48:11	0	A	1	-1	0	0	0	0	0	79.93092	84.6024	78.17404	14.33512	33.49001	80.19534	-0.3350067	79.13764	-0.3169994	14.32421	4.100037E-02	0	1	1	0.15	-2	0	0	14.00012	0.9766303	26.77519	27.224	0.1661635	2.172418	61.51591
9/22/2014 3:48:21 PM	15:48:21	0	A	1	-1	0	0	0	0	0	79.93092	84.77868	78.2168	14.33587	34.16	80.19534	-0.3300018	79.13764	-0.2999992	14.32489	4.000092E-02	0	1	1	0.15	-2	0	0	14.00587	0.9769807	26.77519	27.3515	0.1641838	2.146534	60.78298
9/22/2014 3:48:31 PM	15:48:31	0	A	1	-1	0	0	0	0	0	80.06313	84.69054	78.25955	14.33512	34.47	80.19534	-0.3300018	79.13764	-0.3069992	14.32407	4.000092E-02	0	1	1	0.15	-2	-0.2001953	7.623425E-05	14.00512	0.9769795	26.77519	27.30277	0.164179	2.146473	60.78123
9/22/2014 3:48:41 PM	15:48:41	0	A	1	-1	0	0	0	0	0	79.93092	84.64647	78.25955	14.33512	34.47	80.19534	-0.3249969	79.13764	-0.3099995	14.32407	4.100037E-02	0	1	1	0.15	-2	0	0	14.00512	0.9769795	26.77519	27.27846	0.1661627	2.172407	61.51561
9/22/2014 3:48:51 PM	15:48:51	0	A	1	-1	0	0	0	0	0	79.93092	84.51426	78.26807	14.33512	34.35001	80.06313	-0.3300018	79.13764	-0.2989998	14.32425	4.000092E-02	0	1	1	0.15	-2	-0.2001953	0	14.00512	0.9769795	26.70174	27.20549	0.1641801	2.146486	60.78161
9/22/2014 3:49:01 PM	15:49:01	0	A	1	0	0	0	0	0	0	79.97498	84.29391	78.30231	14.3355	34.75999	80.06313	-0.3350067	79.13764	-0.302	14.32423	4.000092E-02	0	1	1	0.15	-2	-0.2001953	7.623425E-05	14.0055	0.9769801	26.70174	27.08393	0.1661636	2.172419	61.51595
9/22/2014 3:49:11 PM	15:49:11	0	A	1	0	0	0	0	0	0	79.97498	84.69054	78.30231	14.3355	34.75999	80.06313	-0.3300018	79.13764	-0.3080006	14.32412	4.000092E-02	0	1	1	0.15	-2	0	7.623425E-05	14.0055	0.9769801	26.70174	27.22987	0.1641793	2.146476	60.78134
9/22/2014 3:49:21 PM	15:49:21	0	A	1	0	0	0	0	0	0	79.84277	84.69054	78.3194	14.3355	35.05	80.15127	-0.3350067	79.22578	-0.3150005	14.32437	4.000092E-02	0	1	1	0.15	-2	-0.2001953	0	14.00049	0.976631	26.75071	27.2727	0.1641679	2.146326	60.77709
9/22/2014 3:49:31 PM	15:49:31	0	A	1	0	0	0	0	0	0	79.97498	84.69054	78.35361	14.3355	35.35001	80.1072	-0.3300018	79.18172	-0.3400002	14.32462	3.800011E-02	0	1	1	0.15	-2	-0.2001953	7.623425E-05	14.0055	0.9769801	26.72622	27.30284	0.1598576	2.089974	59.18138
9/22/2014 3:49:41 PM	15:49:41	0	A	1	0	0	0	0	0	0	79.97498	84.73461	78.35361	14.3355	35.35001	80.23941	-0.3300018	79.18172	-0.3099995	14.32477	0.0340004	0	1	1	0.15	-2	0	0	14.0055	0.9769801	26.79967	27.32715	0.1512762	1.977781	56.00442
9/22/2014 3:49:51 PM	15:49:51	0	A	1	0	0	0	0	0	0	80.01905	84.29391	78.37924	14.33625	36.14999	80.1072	-0.3249969	79.18172	-0.3139992	14.32393	3.499985E-02	0	1	1	0.15	-2	-0.2001953	7.623425E-05	14.00625	0.9769813	26.72622	27.08403	0.1534742	2.006517	56.81814
9/22/2014 3:50:01 PM	15:50:01	0	A	1	-1	0	0	0	0	0	79.84277	84.33797	78.40488	14.33587	35.36501	80.19534	-0.3249969	79.26985	-0.2999992	14.32438	3.700066E-02	0	1	1	0.15	-2	-0.2001953	7.623425E-05	14.01088	0.9773298	26.77519	27.13839	0.1619292	2.117059	59.94833
9/22/2014 3:50:11 PM	15:50:11	0	A	1	-1	0	0	0	0	0	80.01905	84.6024	78.40488	14.33587	35.36501	80.28348	-0.3249969	79.22578	-0.2870007	14.32507	3.499985E-02	0	1	1	0.15	-2	-0.2001953	7.623425E-05	14.01088	0.9773298	26.82416	27.28433	0.1534743	2.006518	56.81818
9/22/2014 3:50:21 PM	15:50:21	0	A	1	-1	0	0	0	0	0	80.01905	84.69054	78.422	14.33587	34.55	80.19534	-0.3249969	79.13764	-0.2889996	14.32539	4.500008E-02	0	1	1	0.15	-2	-0.2001953	7.623425E-05	14.01088	0.9773298	26.77519	27.33298	0.1740202	2.275135	64.42455
9/22/2014 3:50:31 PM	15:50:31	0	A	1	-1	0	0	0	0	0	80.01905	84.77868	78.46475	14.3355	34.05	80.15127	-0.3200073	79.22578	-0.3150005	14.32462	4.100037E-02	0	1	1	0.15	-2	-0.2001953	7.623425E-05	14.0105	0.9773292	26.75071	27.38158	0.1661529	2.172278	61.51196
9/22/2014 3:50:41 PM	15:50:41	0	A	1	-1	0	0	0	0	0	80.01905	84.64647	78.46475	14.3355	34.05	80.19534	-0.3249969	79.26985	-0.3320007	14.32415	4.000092E-02	0	1	1	0.15	-2	-0.2001953	7.623425E-05	14.0105	0.9773292	26.77519	27.30861	0.172053	2.249416	63.69627
9/22/2014 3:50:51 PM	15:50:51	0	A	1	-1	0	0	0	0	0	80.01905	84.07355	78.48184	14.33587	33.64	80.15127	-0.3249969	79.22578	-0.3040009	14.32597	3.899956E-02	0	1	1	0.15	-2	-0.3999023	7.623425E-05	14.01088	0.9773298	26.75071	26.99241	0.1662086	2.173007	61.53259
9/22/2014 3:51:01 PM	15:51:01	0	A	1	-1	0	0	0	0	0	80.15127	83.98541	78.50751	14.3355	33.23	80.23941	-0.3249969	79.31393	-0.3110008	14.32368	0.0359993	0	1	1	0.15	-2	0	7.623425E-05	14.0105	0.9773292	26.79967	26.94372	0.164151	2.146106	60.77085
9/22/2014 3:51:11 PM	15:51:11	0	A	1	0	0	0	0	0	0	80.06313	83.89727	78.50751	14.3355	33.23	80.23941	-0.3249969	79.09357	-0.3120003	14.32455	4.400063E-02	0	1	1	0.15	-2	-0.2001953	7.623425E-05	14.0105	0.9773292	26.79967	26.89506	0.1740219	2.275158	64.42519
9/22/2014 3:51:21 PM	15:51:21	0	A	1	0	0	0	0	0	0	80.06313	83.8532	78.55023	14.33587	33.16	80.23941	-0.3300018	79.31393	-0.2950001	14.32456	4.199982E-02	0	1	1	0.15	-2	-0.2001953	7.623425E-05	14.00587	0.9769807	26.79967	26.8407	0.1681467	2.198346	62.25013
9/22/2014 3:51:31 PM	15:51:31	0	A	1	-1	0	0	0	0	0	80.19534	83.98541	78.57593	14.33475	33.155	80.19534	-0.3300018	79.26985	-0.3059998	14.32282	4.000092E-02	0	1	1	0.15	-2	-0.2001953	0	13.99974	0.9766297	26.77519	26.88343	0.1641526	2.146126	60.77143
9/22/2014 3:51:41 PM	15:51:41	0	A	1	-1	0	0	0	0	0	80.1072	83.32435	78.57593	14.33475	33.155	80.28348	-0.3300018	79.35799	-0.2980003	14.32524	0.0359993	0	1	1	0.15	-2	-0.2001953	7.623425E-05	14.00975	0.9773281	26.82416	26.57876	0.1556281	2.034678	57.61556
9/22/2014 3:51:51 PM	15:51:51	0	A	1	0	0	0	0	0	0	80.06313	82.70737	78.61865	14.33512	33.185	80.1072	-0.3300018	79.18172	-0.3369999	14.32295	4.299927E-02	0	1	1	0.15	-2	0	7.623425E-05	14.00512	0.9769795	26.72622	26.20821	0.1700941	2.223806	62.97107
9/22/2014 3:52:01 PM	15:52:01	0	A	1	-1	0	0	0	0	0	80.1072	81.73781	78.63577	14.3355	32.88	80.23941	-0.3200073	79.31393	-0.3330002	14.32404	4.100037E-02	0	1	1	0.15	-2	-0.2001953	7.623425E-05	14.0105	0.9773292	26.79967	25.70308	0.1641531	2.146133	60.77162
9/22/2014 3:52:11 PM	15:52:11	0	A	1	-1	0	0	0	0	0	80.06313	81.42931	78.63577	14.3355	32.88	80.28348	-0.3300018	79.22578	-0.3050003	14.32451	4.199982E-02	0	1	1	0.15	-2	-0.2001953	7.623425E-05	14.0105	0.9773292	26.82416	25.53275	0.1681597	2.198516	62.25492
9/22/2014 3:52:21 PM	15:52:21	0	A	1	-1	0	0	0	0	0	80.1072	81.64967	78.67847	14.33512	32.705	80.23941	-0.3200073	79.31393	-0.2900009	14.32367	3.800011E-02	0	1	1	0.15	-2	-0.2001953	7.623425E-05	14.01512	0.9776767	26.79967	25.68422	0.1599573	2.091278	59.2183
9/22/2014 3:52:31 PM	15:52:31	0	A	1	0	0	0	0	0	0	80.1072	81.64967	78.69559	14.33512	32.77499	80.28348	-0.3249969	79.31393	-0.2950001	14.32367	3.700066E-02	0	1	1	0.15	-2	-0.2001953	7.623425E-05	14.01013	0.9773286	26.82416	25.65438	0.1577204	2.062032	58.39016
9/22/2014 3:52:41 PM	15:52:41	0	A	1	-1	0	0	0	0	0	80.1072	81.78188	78.69559	14.33512	32.77499	80.1072	-0.3249969	79.18172	-0.2679996	14.3245	0.0359993	0	1	1	0.15	-2	0	7.623425E-05	14.01013	0.9773286	26.72622	25.72735	0.1555974	2.034277	57.60421
9/22/2014 3:52:51 PM	15:52:51	0	A	1	0	0	0	0	0	0	80.1072	81.51746	78.71271	14.33512	33.17	80.23941	-0.3249969	79.31393	-0.2980003	14.32356	3.700066E-02	0	1	1	0.15	-2	-0.2001953	7.623425E-05	14.01013	0.9773286	26.79967	25.58141	0.1599567	2.09127	59.21807
9/22/2014 3:53:01 PM	15:53:01	0	A	1	-1	0	0	0	0	0	80.1072	81.64967	78.72125	14.33512	32.715	80.1072	-0.3249969	79.18172	-0.2959995	14.32425	0.0359993	0	1	1	0.15	-2	-0.3999023	1.522825E-04	14.01013	0.9773286	26.72622	25.65438	0.1555961	2.034259	57.6037
9/22/2014 3:53:11 PM	15:53:11	0	A	1	-1	0	0	0	0	0	80.28348	82.31072	78.72125	14.33512	32.715	80.19534	-0.3249969	79.26985	-0.3290005	14.32504	4.199982E-02	0	1	1	0.15	-2	-0.2001953	0	14.01013	0.9773286	26.77519	26.01927	0.1556392	2.034823	57.61967
9/22/2014 3:53:21 PM	15:53:21	0	A	1	-1	0	0	0	0	0	80.15127	82.3548	78.73837	14.33475	32.96001	80.19534	-0.3300018	79.40207	-0.2940006	14.32449	3.100014E-02	0	1	1	0.15	-2	-0.2001953	0	14.00975	0.9773281	26.77519	26.04352	0.1443508	1.887239	53.44056
9/22/2014 3:53:31 PM	15:53:31	0	A	1	0	0	0	0	0	0	80.1072	82.39887	78.77255	14.33475	32.59	80.15127	-0.3300018	79.22578	-0.2789993	14.32376	0.0359993	0	1	1	0.15	-2	-0.2001953	7.623425E-05	14.00475	0.9769789	26.75071	26.03789	0.1490834	1.949113	55.19263
9/22/2014 3:53:41 PM	15:53:41	0	A	1	-1	0	0	0	0	0	80.15127	82.75143	78.77255	14.33475	32.59	80.15127	-0.3300018	79.35799	-0.3299999	14.32358	4.299927E-02	0	1	1	0.15	-2	0	7.623425E-05	14.00975	0.9773281	26.75071	26.2625	0.1599505	2.091189	59.21578
9/22/2014 3:53:51 PM	15:53:51	0	A	1	0	0	0	0	0	0	80.15127	82.57515	78.76401	14.33475	32.205	80.28348	-0.3300018	79.22578	-0.2950001	14.32413	3.499985E-02	0	1	1	0.15	-2	-0.2001953	7.623425E-05	14.00975	0.9773281	26.82416	26.16518	0.1534692	2.006452	56.8163
9/22/2014 3:54:01 PM	15:54:01	0	A	1	0	0	0	0	0	0	80.01905	82.13445	78.78964	14.33438	32.22501	80.23941	-0.3249969	79.44614	-0.3099995	14.3231	4.199982E-02	0	1	1	0.15	-2	-0.3999023	0	14.00938	0.9773275	26.79967	25.92185	0.1618965	2.116631	59.93621
9/22/2014 3:54:11 PM	15:54:11	0	A	1	-1	0	0	0	0	0	80.19534	82.00224	78.78964	14.33438	32.22501	80.15127	-0.3200073	79.22578	-0.2919998	14.32364	4.100037E-02	0	1	1	0.15	-2	-0.2001953	0	14.00938	0.9773275	26.75071	25.84888	0.1661472	2.172204	61.50986
9/22/2014 3:54:21 PM	15:54:21	0	A	1	0	0	0	0	0	0	80.19534	81.64967	78.78964	14.33512	32.285	80.15127	-0.3249969	79.22578	-0.2649994	14.32414	3.800011E-02	0	1	1	0.15	-2	-0.2001953	0	14.01013	0.9773286	26.75071	25.65438	0.1598486	2.089857	59.17805
9/22/2014 3:54:31 PM	15:54:31	0	A	1	-1	0	0	0	0	0	80.19534	82.13445	78.8324	14.33475	31.94	80.23941	-0.3249969	79.44614	-0.309	14.32344	0.0340004	0	1	1	0.15	-2	-0.3999023	1.522825E-04	14.00975	0.9773281	26.79967	25.92192	0.1534353	2.00601	56.80377
9/22/2014 3:54:41 PM	15:54:41	0	A	1	-1	0	0	0	0	0	80.06313	82.44294	78.8324	14.33475	31.94	80.19534	-0.3249969	79.40207	-0.2779999	14.32268	3.700066E-02	0	1	1	0.15	-2	-0.2001953	0	14.01474	0.9776761	26.77519	26.12212	0.1577026	2.061799	58.38355
9/22/2014 3:54:51 PM	15:54:51	0	A	1	-1	0	0	0	0	0	80.06313	82.3548	78.84097	14.33438	31.75999	80.19534	-0.3249969	79.26985	-0.2579994	14.32296	4.000092E-02	0	1	1	0.15	-2	-0.3999023	7.623425E-05	14.00938	0.9773275	26.77519	26.04348	0.1641533	2.146136	60.77171
9/22/2014 3:55:01 PM	15:55:01	0	A	1	-1	0	0	0	0	0	80.19534	82.26665	78.85803	14.33512	31.61501	80.19534	-0.3249969	79.26985	-0.3369999	14.32407	3.499985E-02	0	1	1	0.15	-2	-0.2001953	7.623425E-05	14.01013	0.9773286	26.77519	25.99492	0.1512606	1.977577	55.99865
9/22/2014 3:55:11 PM	15:55:11	0	A	1	-1	0	0	0	0	0	80.19534	82.3548	78.85803	14.33512	31.61501	80.19534	-0.3249969	79.31393	-0.3169994	14.32338	3.300095E-02	0	1	1	0.15	-2	-0.3999023	1.522825E-04	14.01013	0.9773286	26.77519	26.04358	0.1490697	1.948933	55.18755
9/22/2014 3:55:21 PM	15:55:21	0	A	1	-1	0	0	0	0	0	80.06313	82.26665	78.90079	14.33438	31.56	80.19534	-0.3300018	79.40207	-0.2940006	14.32339	0.0340004	0	1	1	0.15	-2	-0.2001953	7.623425E-05	14.00437	0.9769783	26.77519	25.96485	0.1512392	1.977297	55.99072
9/22/2014 3:55:37 PM	15:55:37	0	A	1	-1	0	0	0	0	0	80.1072	82.61922	78.90936	14.33437	31.41	80.28348	-0.3249969	79.4902	-0.3190002	14.32317	4.400063E-02	0	1	1	0.15	-2	-0.3999023	7.623425E-05	14.00437	0.9769783	26.82416	26.15945	0.163953	2.143517	60.69754
9/22/2014 3:55:47 PM	15:55:47	0	A	1	-1	0	0	0	0	0	80.23941	82.88364	78.92645	14.334	31.53999	80.28348	-0.3300018	79.35799	-0.3409996	14.32258	3.700066E-02	0	1	1	0.15	-2	-0.2001953	1.522825E-04	14.004	0.9769777	26.82416	26.30532	0.1577082	2.061873	58.38564
9/22/2014 3:55:57 PM	15:55:57	0	A	1	-1	0	0	0	0	0	80.1072	83.05993	78.92645	14.334	31.53999	80.1072	-0.3249969	79.31393	-0.2970009	14.32222	0.0359993	0	1	1	0.15	-2	-0.2001953	7.623425E-05	14.009	0.9773269	26.72622	26.43265	0.1619106	2.116815	59.94143
9/22/2014 3:56:07 PM	15:56:07	0	A	1	-1	0	0	0	0	0	80.15127	83.36842	78.96921	14.33475	31.595	80.23941	-0.3300018	79.31393	-0.2609997	14.3242	3.499985E-02	0	1	1	0.15	-2	-0.2001953	7.623425E-05	14.00475	0.9769789	26.79967	26.57303	0.1534575	2.006299	56.81197
9/22/2014 3:56:17 PM	15:56:17	0	A	1	8	12.85714	6572.572	7	10	3500	81.03268	83.94134	78.98633	14.33475	32.44501	80.28348	0	79.35799	-0.3150005	14.32337	3.899956E-02	0	1	1	0.15	-2	0.3999023	-1.522825E-04	14.33475	1	26.82416	28.85629	0.1577125	2.06193	58.38725
9/22/2014 3:56:27 PM	15:56:27	0	A	1	29	41.42857	21178.29	29	41.42857	14500	1257.037	83.32435	78.98633	14.33475	32.44501	80.50383	7.464996	79.31393	-0.3050003	14.32409	4.500008E-02	0	1	1	0.15	380	4.200195	0.2894075	21.67975	1.512391	26.94657	65.64127	0.1739849	2.274674	64.41148
9/22/2014 3:56:37 PM	15:56:37	0	A	1	41	58.57143	29941.71	37	60	21000	1080.588	83.14807	79.02048	14.33438	32.59	80.90047	16.66499	79.31393	-0.3360004	14.32252	4.299927E-02	0	1	1	0.15	1545	35.2002	10.23697	31.02438	2.164334	27.16693	101.3619	0.1700716	2.223511	62.96272
9/22/2014 3:56:47 PM	15:56:47	0	A	1	41	58.57143	29941.71	25	40	14000	1022.915	82.88364	79.04617	14.334	33.005	81.38525	16.69	79.40207	-0.3010006	14.32254	4.000092E-02	0	1	1	0.15	1882	46.6001	16.69831	30.834	2.151109	27.43625	100.5363	0.1641316	2.145852	60.76365
9/22/2014 3:56:57 PM	15:56:57	0	A	1	42	60	30672	26	37.14286	13000	1024.901	82.31072	79.04617	14.334	33.005	81.69374	16.575	79.31393	-0.3220005	14.32323	4.299927E-02	0	1	1	0.15	1946	48.3999	18.0072	31.07401	2.167853	27.60764	100.9546	0.1700758	2.223566	62.96427
9/22/2014 3:57:07 PM	15:57:07	0	A	1	42	60	30672	29	41.42857	14500	1024.69	82.88364	79.05472	14.334	32.83501	82.44294	16.63	79.40207	-0.3059998	14.32265	4.000092E-02	0	1	1	0.15	1972	48.6001	18.17262	31.12399	2.17134	28.02386	101.5191	0.1641322	2.14586	60.76389
9/22/2014 3:57:17 PM	15:57:17	0	A	1	42	60	30672	27	34.28572	12000	1021.775	83.28028	79.10599	14.33362	32.39999	83.19214	16.60001	79.35799	-0.3080006	14.32253	3.800011E-02	0	3	1	0.15	1989	48.2002	18.25365	31.10363	2.169976	28.44008	101.7268	0.1599447	2.091112	59.21361
9/22/2014 3:57:27 PM	15:57:27	0	A	1	42	60	30672	30	42.85714	15000	1019.873	84.07355	79.10599	14.33362	32.39999	83.89727	16.71001	79.40207	-0.3269997	14.32231	3.800011E-02	0	3	1	0.15	1989	48.6001	18.4051	31.16363	2.174162	28.83182	102.4776	0.1618984	2.116656	59.93692
9/22/2014 3:57:37 PM	15:57:37	0	A	1	42	60	30672	26	34.28572	12000	1009.099	83.67692	79.13165	14.33475	31.86	84.77868	16.77	79.4902	-0.3239994	14.32495	4.599953E-02	0	3	1	0.15	2008	48.6001	18.58091	31.12975	2.171628	29.32149	102.0808	0.1759928	2.300926	65.15485
9/22/2014 3:57:47 PM	15:57:47	0	A	1	42	60	30672	30	40	14000	1004.663	83.41249	79.1402	14.33438	31.67	85.70416	16.78	79.35799	-0.3099995	14.32227	3.899956E-02	0	3	1	0.15	2003	48.6001	18.53465	31.14437	2.172705	29.83565	101.9504	0.1619046	2.116736	59.93919
9/22/2014 3:57:57 PM	15:57:57	0	A	1	42	60	30672	32	45.71429	16000	1003.015	84.07355	79.1402	14.33438	31.67	86.36523	16.905	79.4902	-0.3080006	14.324	4.100037E-02	0	3	1	0.15	2017	47.3999	18.28016	30.90438	2.155963	30.20291	101.5927	0.1661101	2.171719	61.49612
9/22/2014 3:58:07 PM	15:58:07	0	A	1	42	60	30672	28	45.71429	16000	998.1985	84.33797	79.16583	14.33438	31.515	87.64327	16.645	79.40207	-0.3269997	14.32205	4.100037E-02	0	3	1	0.15	2014	48.7998	18.71301	30.84437	2.151776	30.91293	101.5705	0.1661118	2.171741	61.49677
9/22/2014 3:58:17 PM	15:58:17	0	A	1	42	60	30672	27	32.85714	11500	993.6778	84.86683	79.20004	14.33438	31.34	88.43655	16.715	79.44614	-0.3239994	14.32343	3.800011E-02	0	3	1	0.15	2007	48.3999	18.41884	30.89437	2.155265	31.35364	102.1053	0.1599371	2.091013	59.2108
9/22/2014 3:58:27 PM	15:58:27	0	A	1	42	60	30672	31	44.28571	15500	992.2834	85.17532	79.20004	14.33438	31.34	89.53831	16.66	79.4902	-0.2919998	14.32296	3.800011E-02	0	3	1	0.15	2013	47.3999	18.16718	30.92437	2.157357	31.96573	102.4202	0.1599282	2.090897	59.2075
9/22/2014 3:58:37 PM	15:58:37	0	A	1	42	60	30672	24	34.28572	12000	984.4248	84.11762	79.20859	14.33362	31.52	90.37565	16.66499	79.40207	-0.2889996	14.32191	0.0340004	0	3	1	0.15	2020	49.2002	18.92276	31.02363	2.164395	32.43092	102.0338	0.1490503	1.94868	55.18038
9/22/2014 3:58:47 PM	15:58:47	0	A	1	42	60	30672	32	45.71429	16000	982.6503	84.64647	79.2428	14.33362	31.86	91.213	16.55	79.44614	-0.3260002	14.32141	4.199982E-02	0	3	1	0.15	2036	48.6001	18.84001	31.24862	2.180092	32.89611	103.1608	0.1681084	2.197845	62.23594
9/22/2014 3:58:57 PM	15:58:57	0	A	1	42	60	30672	26	40	14000	986.9599	85.43974	79.2428	14.33362	31.86	92.27069	16.74001	79.44614	-0.3190002	14.32437	4.400063E-02	0	3	1	0.15	2014	48	18.40632	31.17362	2.17486	33.48372	103.4553	0.1816271	2.374588	67.24075
9/22/2014 3:59:07 PM	15:59:07	0	A	1	43	61.42857	31402.29	25	35.71429	12500	986.2416	86.32115	79.25137	14.33438	31.735	93.1521	17.925	79.53428	-0.2980003	14.32259	3.700066E-02	0	3	1	0.15	2153	52.3999	21.48032	32.73937	2.283976	33.97339	109.2811	0.1639432	2.14339	60.69394
9/22/2014 3:59:17 PM	15:59:17	0	A	1	43	61.42857	31402.29	26	37.14286	13000	985.988	86.40929	79.27701	14.334	31.69501	102.9358	18.095	79.66649	0.2600002	14.34369	0.677	1	3	1	0.15	2196	52	21.82582	32.379	2.258895	39.40877	108.1596	0.6746242	8.820019	249.7547
9/22/2014 3:59:27 PM	15:59:27	0	A	1	43	61.42857	31402.29	31	44.28571	15500	986.9176	86.01266	79.27701	14.334	31.69501	164.0398	18.16	79.53428	0.2889996	14.3434	0.6520004	1	3	1	0.15	2208	53	22.36549	32.45399	2.264127	73.35545	108.1301	0.6621634	8.657106	245.1415
9/22/2014 3:59:37 PM	15:59:37	0	A	1	43	62.85714	32132.57	29	41.42857	14500	979.6505	84.51426	79.28555	14.334	31.97501	178.5599	18.23	79.71056	0.1870003	14.34253	0.6429996	1	3	1	0.15	2224	52.7998	22.35802	32.77901	2.286801	81.42215	108.1477	0.6615211	8.648709	244.9038
9/22/2014 3:59:47 PM	15:59:47	0	A	1	43	61.42857	31402.29	25	37.14286	13000	980.3264	84.73461	79.31119	14.334	31.72501	185.5156	18.17999	79.88684	0.2520008	14.34264	0.6439991	1	3	1	0.15	2218	54.2002	22.88909	32.729	2.283313	85.28644	108.1387	0.6578543	8.600771	243.5463
9/22/2014 3:59:57 PM	15:59:57	0	A	1	47	67.14285	34323.43	28	41.42857	14500	1003.945	84.55833	79.31119	14.334	31.72501	195.6448	22.285	79.84277	0.4610004	14.34809	0.8080006	1	3	1	0.15	2450	60.6001	28.26868	36.239	2.528185	90.9138	119.0675	0.7336922	9.592274	271.6225
9/22/2014 4:00:07 PM	16:00:07	0	A	1	47	67.14285	34323.43	31	44.28571	15500	998.4099	84.9109	79.30264	14.33362	31.63499	209.4693	22.82001	79.97498	0.4220009	14.3475	0.823	1	3	1	0.15	2689	65.2002	33.27901	37.22363	2.596945	98.59408	122.2877	0.7435487	9.721136	275.2715
9/22/2014 4:00:17 PM	16:00:17	0	A	1	50	71.42857	36514.29	33	47.14286	16500	1034.915	85.30753	79.36249	14.334	31.845	219.4682	26.315	80.06313	0.5909996	14.35312	0.9729996	1	3	1	0.15	2891	71.7998	39.52188	40.869	2.851193	104.149	133.0832	0.8100858	10.59104	299.9044
9/22/2014 4:00:27 PM	16:00:27	0	A	1	51	72.85714	37244.57	36	51.42857	18000	1034.408	85.74824	79.36249	14.334	31.845	229.5974	27.74001	80.15127	0.6509991	14.35532	1.014	1	3	1	0.15	3141	81.3999	48.5614	42.244	2.947119	109.7764	137.204	0.8292845	10.84204	307.012
9/22/2014 4:00:37 PM	16:00:37	0	A	1	53	75.71429	38705.14	40	57.14286	20000	1069.18	86.67372	79.39673	14.33362	31.78999	239.6439	31.66	80.50383	0.823	14.36181	1.205	1	3	1	0.15	3445	87.7998	57.59025	45.83863	3.197979	115.3577	147.4306	0.8962759	11.71789	331.813
9/22/2014 4:00:47 PM	16:00:47	0	A	1	55	78.57143	40165.71	45	64.28571	22500	1065.42	86.5415	79.41379	14.33363	31.67	259.7542	32.89999	80.45976	0.8349991	14.362	1.254	1	3	1	0.15	3844	98	71.43316	47.30863	3.300535	126.5301	151.0694	0.9151632	11.96482	338.8054
9/22/2014 4:00:57 PM	16:00:57	0	A	1	56	80	40896	45	64.28571	22500	1079.067	86.32115	79.41379	14.33363	31.67	268.1776	36.88499	80.72418	1.032	14.36948	1.444	1	3	1	0.15	3894	99.7998	73.84514	51.83863	3.616575	131.2098	161.9186	0.9865245	12.8978	365.2243
9/22/2014 4:01:07 PM	16:01:07	0	A	1	60	85.71429	43817.14	55	78.57143	27500	1125.501	86.32115	79.43945	14.33362	32.77	301.0897	42.645	80.81232	1.320999	14.37916	1.763	1	3	1	0.15	4700	118.3999	105.5957	56.88862	3.968893	149.4943	173.4154	1.085405	14.19055	401.831
9/22/2014 4:01:17 PM	16:01:17	0	A	1	60	85.71429	43817.14	59	84.28571	29500	1127.994	86.58558	79.43945	14.334	33.13	322.1337	43.56	81.16489	1.315001	14.3817	1.773001	1	3	1	0.15	5045	123.7998	119.4944	57.714	4.026371	161.1854	175.4378	1.090045	14.25122	403.5491
9/22/2014 4:01:27 PM	16:01:27	0	A	1	60	85.71429	43817.14	58	82.85715	29000	1132.81	86.40929	79.43945	14.334	33.13	334.6257	43.69501	81.16489	1.294001	14.37997	1.74	1	3	1	0.15	4990	132.7998	126.3625	58.19901	4.060207	168.1254	176.3471	1.07986	14.11806	399.7782
9/22/2014 4:01:37 PM	16:01:37	0	A	1	63	90	46008	62	88.57143	31000	1186.614	85.7923	79.45657	14.33362	31.83501	342.8949	48.30499	81.34118	1.514999	14.38697	2.005001	1	3	1	0.15	5366	132.2002	135.0669	62.58363	4.366211	172.7194	185.0868	1.156529	15.12042	428.162
9/22/2014 4:01:47 PM	16:01:47	0	A	1	62	88.57143	45277.71	65	92.85714	32500	1145.716	85.3516	79.45657	14.33363	31.63499	359.5085	48.245	81.34118	1.527	14.38621	1.915001	1	3	1	0.15	5558	136	143.709	62.01362	4.326443	181.9492	183.5426	1.133807	14.82336	419.7502
9/22/2014 4:01:57 PM	16:01:57	0	A	1	61	88.57143	45277.71	66	94.28571	33000	1158.64	85.57195	79.45657	14.33363	31.63499	367.3876	46.065	81.38525	1.360001	14.38245	1.778999	1	3	1	0.15	5646	131.2002	141.2544	59.72363	4.166679	186.3265	178.9294	1.089559	14.24487	403.3691
9/22/2014 4:02:07 PM	16:02:07	0	A	1	62	88.57143	45277.71	67	95.71428	33500	1179.982	85.43974	79.49927	14.33362	31.66499	373.871	47.285	81.51746	1.362	14.38444	1.860001	1	3	1	0.15	5725	134.7998	146.7192	61.21862	4.27098	189.9283	181.9659	1.121165	14.65808	415.0699
9/22/2014 4:02:17 PM	16:02:17	0	A	1	63	90	46008	66	94.28571	33000	1183.85	84.82275	79.51639	14.33362	31.235	377.2027	49.09	81.6056	1.469	14.38765	1.938999	1	3	1	0.15	5673	141.3999	152.7313	63.40862	4.423768	191.7793	185.9562	1.138572	14.88566	421.5141
9/22/2014 4:02:27 PM	16:02:27	0	A	1	63	90	46008	66	94.28571	33000	1187.209	85.04311	79.51639	14.33362	31.235	383.8661	48.17	81.51746	1.407	14.38295	1.900999	1	3	1	0.15	5662	141.3999	152.651	62.35363	4.350165	195.4812	183.985	1.128196	14.75	417.6729
9/22/2014 4:02:37 PM	16:02:37	0	A	1	64	91.42857	46738.29	66	94.28571	33000	1214.035	84.69054	79.5506	14.33288	30.895	392.9609	49.925	81.56152	1.497999	14.38698	1.973	1	3	1	0.15	5646	151.7998	162.7544	64.39788	4.493019	200.5338	187.8495	1.149366	15.02678	425.5102
9/22/2014 4:02:47 PM	16:02:47	0	A	1	63	90	46008	66	94.28571	33000	1210.719	84.38205	79.56769	14.33325	30.96001	397.4632	50.08501	81.73781	1.504	14.3863	1.955999	1	3	1	0.15	5646	152.3999	164.2593	64.50325	4.500253	203.0351	187.7962	1.14422	14.9595	423.6051
9/22/2014 4:02:57 PM	16:02:57	0	A	1	64	91.42857	46738.29	66	94.28571	33000	1236.038	83.94134	79.56769	14.33325	30.96001	403.8115	51.465	81.73781	1.521999	14.39122	2.041	1	3	1	0.15	5635	162.6001	174.2392	66.30325	4.625835	206.562	190.9933	1.168893	15.28208	432.7395
9/22/2014 4:03:07 PM	16:03:07	0	A	1	64	91.42857	46738.29	65	94.28571	33000	1239.938	83.5447	79.59335	14.33287	30.55	409.0342	51.80499	81.69374	1.48	14.38867	2.034	1	3	1	0.15	5634	161.2002	172.9213	66.35786	4.629767	209.4634	190.7653	1.168254	15.27373	432.5031
9/22/2014 4:03:17 PM	16:03:17	0	A	1	64	91.42857	46738.29	66	94.28571	33000	1241.781	83.63285	79.59335	14.33288	30.42	412.3209	51.80499	81.73781	1.562	14.38756	2.021999	1	3	1	0.15	5669	163.2002	175.9382	65.99288	4.604301	211.2894	190.123	1.1613	15.1828	429.9284
9/22/2014 4:03:27 PM	16:03:27	0	A	1	65	92.85714	47468.57	66	94.28571	33000	1243.109	83.72099	79.59335	14.33288	30.42	416.6882	51.66499	81.69374	1.579	14.38972	2.002998	1	3	1	0.15	5682	162.7998	175.9091	65.76788	4.588603	213.7157	189.7544	1.160287	15.16956	429.5534
9/22/2014 4:03:37 PM	16:03:37	0	A	1	65	92.85714	47468.57	66	94.28571	33000	1242.124	83.5447	79.62756	14.3325	30.53	418.4441	52.22501	81.91409	1.51	14.38801	2.005001	1	3	1	0.15	5697	162	175.7225	66.30751	4.626374	214.6912	190.6698	1.158281	15.14333	428.8107
9/22/2014 4:03:47 PM	16:03:47	0	A	1	64	91.42857	46738.29	67	95.71428	33500	1239.381	83.05993	79.63608	14.3325	30.63	420.6502	52.59	81.82595	1.532	14.39058	2.016998	1	3	1	0.15	5731	161.6001	176.5528	67.0325	4.676958	215.9168	191.672	1.161905	15.19072	430.1525
9/22/2014 4:03:57 PM	16:03:57	0	A	1	65	91.42857	46738.29	67	95.71428	33500	1238.909	82.13445	79.63608	14.3325	30.63	422.181	52.425	81.73781	1.497999	14.38711	2.000999	1	3	1	0.15	5745	162	176.3282	66.7325	4.656026	216.7672	190.2957	1.157278	15.13023	428.4396
9/22/2014 4:04:07 PM	16:04:07	0	A	1	65	92.85714	47468.57	67	95.71428	33500	1243.838	82.48701	79.64465	14.3325	30.395	423.9369	52.22	81.87003	1.474001	14.38797	1.997999	1	3	1	0.15	5751	162.7998	178.2639	67.0675	4.6794	217.7427	191.2493	1.156313	15.1176	428.0821
9/22/2014 4:04:17 PM	16:04:17	0	A	1	65	92.85714	47468.57	67	95.71428	33500	1244.223	82.83958	79.67032	14.33212	30.24001	426.1431	52.32001	81.91409	1.556999	14.38941	1.995001	1	3	1	0.15	5759	162.3999	177.4154	66.32712	4.627863	218.9684	190.1096	1.152285	15.06494	426.5908
9/22/2014 4:04:27 PM	16:04:27	0	A	1	65	92.85714	47468.57	67	95.71428	33500	1250.052	83.72099	79.67032	14.33212	30.24001	428.6644	52.685	81.87003	1.549999	14.38753	1.966	1	3	1	0.15	5765	162.3999	178.2589	66.59212	4.646353	220.3691	191.3817	1.147034	14.99629	424.647
9/22/2014 4:04:37 PM	16:04:37	0	A	1	66	92.85714	47468.57	67	95.71428	33500	1279.322	85.13125	79.67883	14.3325	30.33	432.9164	53.33501	81.82595	1.544001	14.38678	2.034	1	3	1	0.15	5770	168.3999	185.0052	66.9875	4.673818	222.7314	193.358	1.165467	15.23728	431.4711
9/22/2014 4:04:47 PM	16:04:47	0	A	1	65	92.85714	47468.57	67	95.71428	33500	1271.008	86.18894	79.71304	14.3325	30.39999	437.5414	53.42999	82.0463	1.572001	14.39108	2.008999	1	3	1	0.15	5764	170.6001	187.0077	67.25751	4.692657	225.3008	194.7916	1.161126	15.18052	429.8639
9/22/2014 4:04:57 PM	16:04:57	0	A	1	66	94.28571	48198.86	68	97.14286	34000	1270.794	84.51426	79.71304	14.3325	30.39999	438.2529	54.795	82.09038	1.622	14.39148	2.120998	1	3	1	0.15	5758	176.7998	193.6105	68.91751	4.808478	225.696	196.5582	1.189942	15.55727	440.5321
9/22/2014 4:05:07 PM	16:05:07	0	A	1	66	94.28571	48198.86	67	95.71428	33500	1291.664	83.5447	79.73016	14.33212	30.47501	440.2541	54.535	82.22259	1.632	14.39382	2.126999	1	3	1	0.15	5756	182.7998	199.6806	69.49213	4.848697	226.8078	196.8184	1.19269	15.5932	441.5497
9/22/2014 4:05:17 PM	16:05:17	0	A	1	66	94.28571	48198.86	67	95.71428	33500	1290.721	82.53108	79.73871	14.33212	31	442.1663	55.425	82.13445	1.618999	14.39371	2.136002	1	3	1	0.15	5755	181	198.1114	70.37212	4.910097	227.8702	197.6006	1.196403	15.64174	442.924
9/22/2014 4:05:27 PM	16:05:27	0	A	1	66	94.28571	48198.86	67	95.71428	33500	1291.021	82.31072	79.73871	14.33212	31	443.1002	55.325	82.13445	1.632999	14.39013	2.118	1	3	1	0.15	5754	182.2002	199.83	69.81212	4.871024	228.389	196.3556	1.190126	15.55968	440.6004
9/22/2014 4:05:37 PM	16:05:37	0	A	1	66	94.28571	48198.86	67	95.71428	33500	1292.093	82.13445	79.7558	14.33175	30.41	444.6122	55.7	82.17851	1.663	14.39442	2.120998	1	3	1	0.15	5755	181.2002	198.5501	70.03675	4.886825	229.229	196.6296	1.189691	15.55398	440.439
9/22/2014 4:05:47 PM	16:05:47	0	A	1	66	94.28571	48198.86	67	95.71428	33500	1291.493	81.69374	79.73871	14.33175	29.785	445.3237	54.94501	82.09038	1.608999	14.39329	2.126999	1	3	1	0.15	5756	181.6001	198.5846	69.67175	4.861357	229.6243	195.5598	1.194767	15.62035	442.3183
9/22/2014 4:05:57 PM	16:05:57	0	A	1	66	94.28571	48198.86	67	95.71428	33500	1295.178	82.09038	79.73871	14.33175	29.785	446.4799	55.505	82.17851	1.606001	14.39449	2.102001	1	3	1	0.15	5764	181.7998	199.2995	69.95675	4.881243	230.2666	196.4407	1.18577	15.50273	438.9876
9/22/2014 4:06:07 PM	16:06:07	0	A	1	66	94.28571	48198.86	67	95.71428	33500	1300.749	82.66329	79.73016	14.33138	29.78999	447.9919	55.25	82.26665	1.646999	14.38913	2.096001	1	3	1	0.15	5795	182	200.5918	69.36137	4.839827	231.1066	195.8148	1.186853	15.51688	439.3884
9/22/2014 4:06:17 PM	16:06:17	0	A	1	66	94.28571	48198.86	68	97.14286	34000	1299.678	82.57515	79.73016	14.33175	29.63499	449.326	56.06	82.3548	1.740999	14.39098	2.123001	1	3	1	0.15	5836	182	201.3447	70.22175	4.899733	231.8478	197.3598	1.190194	15.56056	440.6253
9/22/2014 4:06:27 PM	16:06:27	0	A	1	67	95.71428	48929.14	68	97.14286	34000	1320.93	82.7955	79.73016	14.33175	29.63499	452.0388	57.46001	82.39887	1.848	14.39659	2.216	1	3	1	0.15	5843	191.2002	212.4885	72.18674	5.03684	233.3549	201.21	1.217161	15.91313	450.6089
9/22/2014 4:06:37 PM	16:06:37	0	A	1	67	95.71428	48929.14	69	98.57143	34500	1327.633	81.95816	79.71304	14.33175	29.325	454.8849	56.84	82.31072	1.663	14.39582	2.164001	1	3	1	0.15	5860	192	213.5529	71.12675	4.96288	234.9361	198.516	1.205702	15.76332	446.3667
9/22/2014 4:06:47 PM	16:06:47	0	A	1	68	97.14286	49659.43	68	97.14286	34000	1335.33	82.00224	79.74725	14.33138	29.67	456.219	58.425	82.44294	1.752001	14.39205	2.209999	1	3	1	0.15	5858	197.6001	219.7262	71.44638	4.985312	235.6772	199.1517	1.215274	15.88846	449.9103
9/22/2014 4:06:57 PM	16:06:57	0	A	1	67	95.71428	48929.14	69	98.57143	34500	1342.421	82.3548	79.74725	14.33138	29.67	459.0206	57.995	82.44294	1.731001	14.39668	2.213001	1	3	1	0.15	5853	197.3999	220.653	71.64638	4.999268	237.2337	199.8299	1.217395	15.91619	450.6954
9/22/2014 4:07:07 PM	16:07:07	0	A	1	68	97.14286	49659.43	68	97.14286	34000	1338.919	81.95816	79.71304	14.33175	29.795	459.999	57.87	82.3548	1.809	14.39875	2.202	1	3	1	0.15	5854	197	220.0219	72.27676	5.043122	237.7772	200.6434	1.21347	15.86487	449.2424
9/22/2014 4:07:17 PM	16:07:17	0	A	1	67	95.71428	48929.14	69	98.57143	34500	1337.319	81.73781	79.73016	14.33175	29.63	460.7995	57.765	82.48701	1.785999	14.39817	2.18	1	3	1	0.15	5856	196.6001	219.4279	72.04675	5.027073	238.2219	200.0273	1.207256	15.78364	446.942
9/22/2014 4:07:27 PM	16:07:27	0	A	1	67	95.71428	48929.14	69	98.57143	34500	1335.935	81.12082	79.73016	14.33175	29.63	460.844	58.31	82.53108	1.733	14.39431	2.216999	1	3	1	0.15	5857	197.3999	220.3578	72.06675	5.028469	238.2467	199.5249	1.217185	15.91345	450.6179
9/22/2014 4:07:37 PM	16:07:37	0	A	1	67	95.71428	48929.14	68	97.14286	34000	1332.476	80.50383	79.72159	14.33175	29.5	460.755	58.13499	82.44294	1.761999	14.39763	2.215	1	3	1	0.15	5861	198.2002	221.178	71.85175	5.013466	238.1972	198.59	1.216887	15.90954	450.5074
9/22/2014 4:07:47 PM	16:07:47	0	A	1	67	95.71428	48929.14	68	97.14286	34000	1332.303	80.06313	79.70447	14.33175	28.935	461.0663	58.065	82.48701	1.735001	14.39478	2.219002	1	3	1	0.15	5854	196.3999	219.7993	72.12675	5.032655	238.3702	198.7106	1.216442	15.90374	450.3429
9/22/2014 4:07:57 PM	16:07:57	0	A	1	68	97.14286	49659.43	68	97.14286	34000	1332.259	79.66649	79.70447	14.33175	28.935	461.4221	58.08501	82.44294	1.764	14.39709	2.165001	1	3	1	0.15	5857	197.7998	219.9119	72.80175	5.079753	238.5678	199.5978	1.203136	15.72977	445.4168
9/22/2014 4:08:07 PM	16:08:07	0	A	1	67	95.71428	48929.14	68	97.14286	34000	1331.957	79.75463	79.6532	14.33138	28.60001	461.9112	58.565	82.39887	1.733	14.39382	2.195	1	3	1	0.15	5859	198.2002	221.3254	72.64137	5.068695	238.8396	199.386	1.211302	15.83653	448.4398
9/22/2014 4:08:17 PM	16:08:17	0	A	1	68	97.14286	49659.43	68	97.14286	34000	1331.481	79.44614	79.63608	14.33063	28.52	461.7334	57.84	82.48701	1.745001	14.39542	2.206001	1	3	1	0.15	5858	197.3999	218.6108	72.32063	5.046579	238.7408	198.5367	1.216745	15.90769	450.4547
9/22/2014 4:08:27 PM	16:08:27	0	A	1	68	97.14286	49659.43	68	97.14286	34000	1332.692	79.40207	79.63608	14.33063	28.52	462.178	58.14	82.39887	1.815001	14.39564	2.188	1	3	1	0.15	5855	197.6001	220.5053	72.12563	5.032971	238.9878	198.141	1.209463	15.81248	447.7589
9/22/2014 4:08:37 PM	16:08:37	0	A	1	68	97.14286	49659.43	68	97.14286	34000	1329.924	79.44614	79.60193	14.33212	28.64	462.178	58.375	82.39887	1.792	14.39613	2.200001	1	3	1	0.15	5857	197.2002	219.9119	72.46213	5.055923	238.9878	198.7816	1.214124	15.87343	449.4846
9/22/2014 4:08:47 PM	16:08:47	0	A	1	67	95.71428	48929.14	68	97.14286	34000	1330.53	79.4902	79.61899	14.33138	28.67	462.7562	58.505	82.26665	1.868999	14.39335	2.223	1	3	1	0.15	5854	197	219.7993	72.93637	5.089279	239.309	199.6917	1.215248	15.88812	449.9007
9/22/2014 4:08:57 PM	16:08:57	0	A	1	68	97.14286	49659.43	68	97.14286	34000	1331.74	79.40207	79.61899	14.33138	28.67	462.5338	58.28	82.48701	1.648001	14.39599	2.206001	1	3	1	0.15	5857	197.2002	219.2427	73.13138	5.102886	239.1855	200.0848	1.214312	15.87588	449.554
9/22/2014 4:09:07 PM	16:09:07	0	A	1	68	97.14286	49659.43	68	97.14286	34000	1332.476	79.66649	79.58481	14.33025	28.80499	462.4004	58.22501	82.22259	1.778	14.39516	2.188999	1	3	1	0.15	5856	197.3999	220.7661	72.32524	5.047033	239.1114	198.7414	1.2121	15.84696	448.7352
9/22/2014 4:09:17 PM	16:09:17	0	A	1	67	95.71428	48929.14	68	97.14286	34000	1332.432	79.31393	79.57623	14.33138	28.85001	462.5338	58.73	82.3548	1.716	14.39982	2.212002	1	3	1	0.15	5854	198.2002	221.3596	72.56638	5.063462	239.1855	198.8631	1.212146	15.84757	448.7524
9/22/2014 4:09:27 PM	16:09:27	5	A	1	67	95.71428	48929.14	69	98.57143	34500	1330.4	79.44614	79.57623	14.33138	28.85001	462.5338	58.53999	82.48701	1.742001	14.39672	2.172001	1	3	1	0.15	5854	196.6001	219.353	71.51637	4.990196	239.1855	197.0521	1.210772	15.8296	448.2437
9/22/2014 4:09:37 PM	16:09:37	15	A	1	67	95.71428	48929.14	68	97.14286	34000	1328.368	79.62242	79.5506	14.33138	28.845	463.023	58.425	82.31072	1.684	14.39509	2.195	1	3	1	0.15	5853	198.3999	220.653	72.13138	5.033109	239.4572	198.3372	1.211457	15.83856	448.4973
9/22/2014 4:09:47 PM	16:09:47	25	A	1	68	97.14286	49659.43	68	97.14286	34000	1329.362	79.13764	79.50784	14.331	28.955	463.2898	58.06	82.31072	1.768999	14.39638	2.183998	1	3	1	0.15	5853	197.2002	221.0987	72.341	5.047868	239.6055	198.3006	1.208482	15.79966	447.3958
9/22/2014 4:09:57 PM	16:09:57	35	A	1	68	97.14286	49659.43	68	97.14286	34000	1332.086	79.18172	79.50784	14.331	28.955	463.2009	58.21001	82.48701	1.862	14.39504	2.189999	1	3	1	0.15	5854	198.2002	220.4676	72.486	5.057986	239.556	198.6041	1.210425	15.82506	448.1151
9/22/2014 4:10:07 PM	16:10:07	45	A	1	68	95.71428	48929.14	68	97.14286	34000	1326.768	78.87322	79.448	14.331	29.28	462.8007	58.215	82.3548	1.846001	14.39352	2.194	1	3	1	0.15	5854	196.6001	220.0219	72.38599	5.051008	239.3337	198.1514	1.215445	15.8907	449.9736
9/22/2014 4:10:17 PM	16:10:17	55	A	1	67	95.71428	48929.14	68	97.14286	34000	1328.843	79.00543	79.448	14.331	29.28	462.9785	58.425	82.39887	1.766001	14.39009	2.168999	1	3	1	0.15	5852	196.3999	218.61	72.001	5.024144	239.4325	197.5623	1.203994	15.74098	445.7343
9/22/2014 4:10:27 PM	16:10:27	65	A	1	68	97.14286	49659.43	68	97.14286	34000	1331.524	79.13764	79.36249	14.331	29.175	462.9785	57.75999	82.39887	1.792	14.39844	2.199001	1	3	1	0.15	5851	197.3999	220.1322	72.606	5.06636	239.4325	198.7845	1.215611	15.89286	450.0349
9/22/2014 4:10:37 PM	16:10:37	75	A	1	68	97.14286	49659.43	68	97.14286	34000	1334.162	79.40207	79.30264	14.33138	28.83	464.1792	58.295	82.53108	1.775999	14.39325	2.152	1	3	1	0.15	5853	197.2002	219.093	72.57637	5.064159	240.0996	198.9585	1.202876	15.72637	445.3205
9/22/2014 4:10:47 PM	16:10:47	85	A	1	68	97.14286	49659.43	68	97.14286	34000	1332.865	79.84277	79.27701	14.331	29.03	464.7574	58.495	82.44294	1.802999	14.39092	2.192001	1	3	1	0.15	5852	197.3999	219.2781	72.706	5.073338	240.4208	199.5847	1.207015	15.78049	446.8529
9/22/2014 4:10:57 PM	16:10:57	95	A	1	68	97.14286	49659.43	68	97.14286	34000	1331.611	80.06313	79.27701	14.331	29.03	464.8463	58.44	82.53108	1.804001	14.392	2.192001	1	3	1	0.15	5850	196.3999	219.6491	72.781	5.078571	240.5443	199.9146	1.210255	15.82284	448.0522
9/22/2014 4:11:07 PM	16:11:07	105	A	1	67	95.71428	48929.14	68	97.14286	34000	1330.66	79.53428	79.21716	14.33175	29.015	464.0903	58.36501	82.57515	1.745001	14.39496	2.192001	1	3	1	0.15	5851	197.6001	220.3546	72.88674	5.085684	240.0502	199.6366	1.209508	15.81307	447.7755
9/22/2014 4:11:17 PM	16:11:17	115	A	1	68	97.14286	49659.43	68	97.14286	34000	1328.757	79.40207	79.16583	14.331	28.75999	463.9569	58.53	82.44294	1.784	14.39153	2.165001	1	3	1	0.15	5853	197.3999	219.3155	72.611	5.066709	239.9761	199.0252	1.195961	15.63596	442.7604
9/22/2014 4:11:27 PM	16:11:27	125	A	1	67	95.71428	48929.14	68	97.14286	34000	1328.195	78.741	79.16583	14.331	28.75999	464.0013	58.17999	82.48701	1.676001	14.39439	2.187	1	3	1	0.15	5850	196.6001	219.2031	71.971	5.02205	240.0008	197.2762	1.209035	15.8069	447.6008
9/22/2014 4:12:11 PM	16:12:11	0	A	1	67	95.71428	48929.14	68	97.14286	34000	1327.589	78.741	79.00339	14.33138	28.39999	462.4893	58.345	82.31072	1.805	14.39505	2.192001	1	3	1	0.15	5850	198	220.7629	72.63138	5.067998	239.1608	198.4798	1.208983	15.80621	447.5813
9/22/2014 4:12:21 PM	16:12:21	0	A	1	67	95.71428	48929.14	68	98.57143	34500	1329.708	78.6088	78.95209	14.331	28.30499	462.178	58.32001	82.39887	1.764	14.3963	2.181	1	3	1	0.15	5854	196.3999	218.4615	72.521	5.060429	238.9878	198.1664	1.203963	15.74059	445.723
9/22/2014 4:12:31 PM	16:12:31	0	A	1	68	97.14286	49659.43	68	97.14286	34000	1327.157	78.43251	78.89224	14.331	28.22501	462.267	58.16	82.31072	1.761	14.39822	2.206001	1	3	1	0.15	5850	196	217.8669	72.79101	5.079269	238.9384	198.5035	1.214596	15.8796	449.6595
9/22/2014 4:12:41 PM	16:12:41	0	A	1	67	95.71428	48929.14	68	97.14286	34000	1328.368	78.43251	78.89224	14.331	28.22501	462.356	59.25	82.44294	1.702999	14.39301	2.187	1	3	1	0.15	5848	196.6001	219.574	72.83601	5.082409	239.0867	198.5853	1.209011	15.80658	447.5917
9/22/2014 4:12:51 PM	16:12:51	0	A	1	67	95.71428	48929.14	68	97.14286	34000	1329.449	78.52065	78.84952	14.33138	28.345	462.0446	58.10001	82.26665	1.709	14.394	2.188999	1	3	1	0.15	5851	197.6001	219.9091	72.13637	5.033457	238.9137	197.3831	1.207892	15.79194	447.1773
9/22/2014 4:13:01 PM	16:13:01	0	A	1	68	97.14286	49659.43	68	97.14286	34000	1329.838	78.52065	78.78964	14.33138	28.495	462.5338	58.185	82.22259	1.667999	14.39701	2.168999	1	3	1	0.15	5848	196.2002	219.1282	72.20137	5.037993	239.1855	197.5021	1.209989	15.81937	447.9539
9/22/2014 4:13:11 PM	16:13:11	0	A	1	67	95.71428	48929.14	68	97.14286	34000	1329.103	79.0495	78.78964	14.33138	28.495	462.356	58.39	82.31072	1.778999	14.39744	2.198002	1	3	1	0.15	5846	196.3999	219.2761	72.61137	5.066602	239.0867	198.7136	1.214553	15.87903	449.6434
9/22/2014 4:13:21 PM	16:13:21	0	A	1	67	97.14286	49659.43	68	97.14286	34000	1334.249	79.09357	78.78113	14.331	28.55499	462.8007	57.78	82.3548	1.712999	14.39562	2.188	1	3	1	0.15	5847	197.2002	219.5365	72.786	5.07892	239.3337	199.0739	1.21388	15.87024	449.3943
9/22/2014 4:13:31 PM	16:13:31	0	A	1	68	97.14286	49659.43	68	97.14286	34000	1332.432	79.00543	78.75543	14.33025	28.67	463.0675	57.97501	82.22259	1.789	14.38999	2.175999	1	3	1	0.15	5846	195.7998	218.163	72.58525	5.065177	239.4819	198.6378	1.206106	15.76861	446.5164
9/22/2014 4:13:41 PM	16:13:41	0	A	1	67	95.71428	48929.14	68	98.57143	34500	1331.222	78.96136	78.75543	14.33025	28.67	463.0675	57.855	82.3548	1.749001	14.39057	2.158001	1	3	1	0.15	5847	196.6001	218.8684	72.58025	5.064828	239.4819	198.59	1.201015	15.70203	444.6313
9/22/2014 4:13:51 PM	16:13:51	6	A	2	67	95.71428	48929.14	69	97.14286	34000	1331.438	78.65286	78.73837	14.331	28.81	463.2454	58.44	82.26665	1.865999	14.39489	2.181999	1	3	1	0.15	5850	198.3999	220.5399	72.156	5.034959	239.5808	197.5381	1.207923	15.79235	447.1889
9/22/2014 4:14:01 PM	16:14:01	16	A	2	68	97.14286	49659.43	68	97.14286	34000	1332.389	79.13764	78.7298	14.331	29.12	463.6011	57.66	82.3548	1.750999	14.39609	2.16	1	3	1	0.15	5851	196	217.6811	71.94601	5.020306	239.7784	197.5769	1.201804	15.71236	444.9236
9/22/2014 4:14:11 PM	16:14:11	26	A	2	68	97.14286	49659.43	68	97.14286	34000	1337.016	79.75463	78.7298	14.331	29.12	464.535	58.095	82.3548	1.809999	14.39385	2.154999	1	3	1	0.15	5850	197.3999	220.0945	72.40101	5.052056	240.2972	198.9502	1.200334	15.69313	444.3792
9/22/2014 4:14:21 PM	16:14:21	36	A	2	68	97.14286	49659.43	68	97.14286	34000	1338.746	79.75463	78.7298	14.331	29.14	465.1131	58.25	82.26665	1.761999	14.39862	2.174999	1	3	1	0.15	5848	197.2002	219.574	72.481	5.057637	240.6184	199.0965	1.206138	15.76902	446.5282
9/22/2014 4:14:31 PM	16:14:31	46	A	2	68	97.14286	49659.43	68	97.14286	34000	1333.124	79.88684	78.7298	14.331	29.14	465.291	57.625	82.53108	1.702	14.39283	2.154999	1	3	1	0.15	5848	197.6001	220.2416	72.331	5.047171	240.7172	198.9379	1.20008	15.68982	444.2854
9/22/2014 4:14:41 PM	16:14:41	56	A	2	67	95.71428	48929.14	68	97.14286	34000	1333.686	79.62242	78.72125	14.331	29.5	465.1576	58.11501	82.44294	1.754999	14.39551	2.168999	1	3	1	0.15	5847	197.7998	219.7588	72.346	5.048217	240.6431	198.7339	1.206378	15.77216	446.6171
9/22/2014 4:14:51 PM	16:14:51	66	A	2	68	97.14286	49659.43	68	97.14286	34000	1333.73	79.31393	78.69559	14.33138	29.33	464.9797	58.125	82.53108	1.788	14.39444	2.174999	1	3	1	0.15	5848	197.2002	219.7964	72.54637	5.062067	240.5443	198.8266	1.208154	15.79537	447.2744
9/22/2014 4:15:01 PM	16:15:01	76	A	2	68	95.71428	48929.14	69	98.57143	34500	1328.368	78.741	78.69559	14.33138	29.33	464.3127	58.25999	82.53108	1.701	14.39404	2.168999	1	3	1	0.15	5850	197.6001	219.6491	72.42638	5.053693	240.1737	198.106	1.200413	15.69417	444.4085
9/22/2014 4:15:11 PM	16:15:11	86	A	2	67	95.71428	48929.14	68	97.14286	34000	1332.951	78.52065	78.67847	14.33138	28.875	464.2237	58.38	82.44294	1.823	14.39505	2.159	1	3	1	0.15	5849	198.3999	221.1705	72.58138	5.064509	240.1243	198.1958	1.201391	15.70696	444.7708
9/22/2014 4:15:21 PM	16:15:21	96	A	2	68	97.14286	49659.43	68	97.14286	34000	1332.865	78.43251	78.65283	14.33063	28.69	464.1792	58.89999	82.53108	1.813999	14.3934	2.174	1	3	1	0.15	5850	197.2002	219.4261	72.22563	5.03995	240.0996	197.4763	1.205351	15.75872	446.2366
9/22/2014 4:15:31 PM	16:15:31	106	A	2	68	97.14286	49659.43	68	97.14286	34000	1335.113	78.12402	78.65283	14.33063	28.69	464.0013	58.57001	82.48701	1.809999	14.39485	2.174	1	3	1	0.15	5846	197.3999	220.1663	72.30563	5.045532	240.0008	197.3525	1.205479	15.7604	446.2841
9/22/2014 4:15:41 PM	16:15:41	116	A	2	67	95.71428	48929.14	68	97.14286	34000	1331.611	77.59517	78.6272	14.331	28.53999	464.3127	57.78999	82.53108	1.728001	14.39161	2.161999	1	3	1	0.15	5850	197.6001	220.0945	72.80601	5.080316	240.1737	197.7968	1.20197	15.71452	444.9848
9/22/2014 4:15:51 PM	16:15:51	126	A	2	67	95.71428	48929.14	69	98.57143	34500	1334.075	77.8596	78.60156	14.331	28.55	464.535	58.25999	82.61922	1.802999	14.39695	2.16	1	3	1	0.15	5847	197	219.5365	72.51099	5.059731	240.2972	197.4922	1.197675	15.65836	443.3947
9/22/2014 4:16:59 PM	16:16:59	0	A	2	68	97.14286	49659.43	68	97.14286	34000	1331.395	76.97818	78.51605	14.33063	28.765	464.7129	58.63	82.66329	1.735001	14.39492	2.175999	1	3	1	0.15	5849	197.6001	220.2793	72.04562	5.027389	240.3961	195.8757	1.205824	15.76492	446.412
9/22/2014 4:17:09 PM	16:17:09	0	A	2	67	95.71428	48929.14	68	97.14286	34000	1330.443	77.37482	78.51605	14.331	29.05499	464.535	58.46001	82.48701	1.782	14.39269	2.145	1	3	1	0.15	5847	197.2002	219.0907	72.926	5.088689	240.2972	197.8212	1.202629	15.72314	445.2289
9/22/2014 4:17:19 PM	16:17:19	0	A	2	68	97.14286	49659.43	68	97.14286	34000	1327.892	77.15446	78.48184	14.33063	28.97	464.8463	58.19501	82.66329	1.816999	14.39459	2.174	1	3	1	0.15	5850	197.3999	219.2031	72.35063	5.048672	240.4702	196.5863	1.205266	15.75762	446.2054
9/22/2014 4:17:29 PM	16:17:29	0	A	2	67	95.71428	48929.14	69	97.14286	34000	1328.368	77.1104	78.48184	14.33063	28.97	464.9352	58.56	82.48701	1.782	14.39813	2.153	1	3	1	0.15	5848	198.2002	220.6875	72.79063	5.079376	240.5196	197.3474	1.199794	15.68607	444.1793
9/22/2014 4:17:39 PM	16:17:39	0	A	2	68	97.14286	49659.43	68	97.14286	34000	1329.319	77.02225	78.46475	14.33063	29.00999	464.4905	57.22501	82.44294	1.785999	14.39318	2.139	1	3	1	0.15	5850	198	220.317	72.39063	5.051463	240.2725	196.5434	1.195758	15.6333	442.6851
9/22/2014 4:17:49 PM	16:17:49	0	A	2	68	97.14286	49659.43	68	97.14286	34000	1328.757	76.62562	78.44763	14.33025	28.84	464.4461	58.03	82.39887	1.822001	14.39714	2.152	1	3	1	0.15	5849	197	219.3886	72.68025	5.071806	240.2478	196.7259	1.203186	15.73042	445.4351
9/22/2014 4:17:59 PM	16:17:59	0	A	2	67	95.71428	48929.14	68	98.57143	34500	1327.503	76.58155	78.44763	14.33025	28.84	464.0458	58.30499	82.53108	1.827999	14.39584	2.166	1	3	1	0.15	5846	195.7998	217.7179	72.74025	5.075993	240.0255	196.7961	1.204354	15.7457	445.8677
9/22/2014 4:18:09 PM	16:18:09	0	A	2	68	97.14286	49659.43	68	97.14286	34000	1329.838	76.8019	78.422	14.33063	29.02	464.3571	57.935	82.57515	1.763	14.39676	2.174999	1	3	1	0.15	5848	196.6001	219.1282	72.75563	5.076933	240.1984	197.0136	1.205727	15.76364	446.3757
9/22/2014 4:18:19 PM	16:18:19	0	A	2	68	97.14286	49659.43	68	97.14286	34000	1327.416	76.71376	78.422	14.33138	29.785	463.6011	58.685	82.48701	1.854	14.39234	2.158001	1	3	1	0.15	5849	198	220.2793	71.95137	5.020549	239.7784	195.4656	1.200952	15.70121	444.6081
9/22/2014 4:18:29 PM	16:18:29	8	A	3	68	97.14286	49659.43	68	97.14286	34000	1329.06	76.53748	78.422	14.33138	29.785	463.3788	58.77	82.66329	1.813	14.39469	2.139	1	3	1	0.15	5849	197.3999	219.8339	72.15637	5.034853	239.6549	195.6858	1.195578	15.63095	442.6184
9/22/2014 4:18:39 PM	16:18:39	18	A	3	67	95.71428	48929.14	69	98.57143	34500	1331.957	76.22898	78.37924	14.33138	30.45	462.7117	57.94	82.39887	1.815001	14.39657	2.130001	1	3	1	0.15	5849	198.2002	221.6159	71.48137	4.987754	239.2843	194.182	1.193441	15.60302	441.8275
9/22/2014 4:18:49 PM	16:18:49	28	A	3	67	95.71428	48929.14	69	98.57143	34500	1328.627	76.8019	78.35361	14.331	30.11	462.6227	58.64999	82.57515	1.712	14.39283	2.162998	1	3	1	0.15	5847	196	218.2003	72.32101	5.046474	239.2349	196.2976	1.197538	15.65658	443.3442
9/22/2014 4:18:59 PM	16:18:59	38	A	3	68	97.14286	49659.43	68	97.14286	34000	1327.416	77.02225	78.35361	14.331	30.11	463.0675	58.35001	82.48701	1.788	14.39363	2.165001	1	3	1	0.15	5848	198	220.0193	73.01099	5.09462	239.4819	197.6659	1.203492	15.73442	445.5483
9/22/2014 4:19:09 PM	16:19:09	48	A	3	68	97.14286	49659.43	68	98.57143	34500	1328.022	76.62562	78.3194	14.331	29.72501	462.8896	58.99001	82.44294	1.802	14.39218	2.172001	1	3	1	0.15	5847	197.3999	219.7588	72.71101	5.073687	239.3831	196.7748	1.204846	15.75212	446.0496
9/22/2014 4:19:19 PM	16:19:19	58	A	3	68	97.14286	49659.43	68	97.14286	34000	1333.124	76.93411	78.25955	14.33062	29.58501	462.6672	58.2	82.44294	1.853001	14.39611	2.162998	1	3	1	0.15	5849	197.3999	220.2793	72.61063	5.066815	239.2596	196.8663	1.202528	15.72182	445.1917
9/22/2014 4:19:29 PM	16:19:29	68	A	3	67	95.71428	48929.14	68	97.14286	34000	1327.33	76.84597	78.25955	14.33062	29.58501	462.8007	58.41	82.48701	1.848	14.39304	2.191002	1	3	1	0.15	5848	198	219.7964	72.39563	5.051813	239.3337	196.3597	1.210898	15.83125	448.2902
9/22/2014 4:19:39 PM	16:19:39	78	A	3	67	95.71428	48929.14	68	97.14286	34000	1329.578	76.71376	78.23392	14.33062	29.83	462.6227	58.895	82.57515	1.84	14.39567	2.154999	1	3	1	0.15	5846	196.6001	219.2761	72.75063	5.076585	239.2349	196.9273	1.200156	15.69081	444.3136
9/22/2014 4:19:49 PM	16:19:49	88	A	3	68	97.14286	49659.43	68	97.14286	34000	1331.178	76.58155	78.19968	14.33025	30.13499	463.023	58.36	82.31072	1.768999	14.39696	2.169998	1	3	1	0.15	5849	197.7998	220.9476	72.05025	5.027843	239.4572	195.541	1.206024	15.76753	446.486
9/22/2014 4:19:59 PM	16:19:59	98	A	3	67	95.71428	48929.14	68	97.14286	34000	1330.227	76.31712	78.19968	14.33025	30.13499	463.023	58.395	82.44294	1.715	14.39259	2.148998	1	3	1	0.15	5849	197.2002	219.6115	72.54524	5.062385	239.4572	196.2107	1.203769	15.73804	445.651
9/22/2014 4:20:09 PM	16:20:09	108	A	3	68	97.14286	49659.43	68	97.14286	34000	1331.395	76.31712	78.15695	14.33025	30.38	463.1119	58.5	82.53108	1.805	14.39487	2.154999	1	3	1	0.15	5849	197.6001	220.5022	72.18524	5.037263	239.5066	195.556	1.201558	15.70914	444.8325
9/22/2014 4:20:19 PM	16:20:19	118	A	3	67	95.71428	48929.14	68	97.14286	34000	1328.368	76.31712	78.13129	14.32988	30.745	462.9785	58.315	82.53108	1.799999	14.39435	2.159	1	3	1	0.15	5847	197.3999	219.7588	72.23488	5.040859	239.4325	195.6498	1.202082	15.71599	445.0266
9/22/2014 4:20:29 PM	16:20:29	128	A	3	68	97.14286	49659.43	68	97.14286	34000	1326.897	75.96455	78.13129	14.32988	30.745	462.6227	58.38499	82.44294	1.818001	14.3984	2.187	1	3	1	0.15	5849	199	220.9476	72.58488	5.065283	239.2349	195.9773	1.210075	15.82049	447.9855
9/22/2014 4:20:47 PM	16:20:47	0	A	3	68	97.14286	49659.43	68	97.14286	34000	1329.06	76.00863	78.06287	14.33025	30.935	462.7117	58.995	82.39887	1.829	14.39461	2.157001	1	3	1	0.15	5848	197.6001	219.3511	72.52025	5.060641	239.2843	195.8952	1.200873	15.70019	444.5791
9/22/2014 4:20:57 PM	16:20:57	0	A	3	67	95.71428	48929.14	68	97.14286	34000	1321.146	76.18491	78.06287	14.33025	30.935	463.0675	57.295	82.48701	1.691999	14.39274	2.117001	1	3	1	0.15	5856	192.3999	215.4145	71.76524	5.007955	239.4819	194.6738	1.189576	15.55248	440.3965
9/22/2014 4:21:07 PM	16:21:07	0	A	3	68	97.14286	49659.43	69	97.14286	34000	1307.306	76.71376	78.03723	14.331	31.03	462.178	56.675	82.39887	1.608999	14.39298	2.084	1	3	1	0.15	5861	188	209.349	70.971	4.952271	238.9878	193.6687	1.180416	15.43273	437.0055
9/22/2014 4:21:17 PM	16:21:17	0	A	3	67	95.71428	48929.14	68	97.14286	34000	1308.549	77.24261	78.02017	14.33025	31.33	461.1997	55.86501	82.22259	1.627001	14.39172	2.056999	1	3	1	0.15	5866	183.3999	205.5067	70.71025	4.934335	238.4443	193.6535	1.175769	15.37198	435.2852
9/22/2014 4:21:27 PM	16:21:27	0	A	3	66	94.28571	48198.86	68	98.57143	34500	1294.278	77.41888	78.02017	14.33025	31.33	459.243	56.455	82.39887	1.737	14.39035	2.027	1	3	1	0.15	5869	184.6001	205.1649	70.39024	4.912004	237.3572	193.2128	1.166131	15.24597	431.7171
9/22/2014 4:21:37 PM	16:21:37	0	A	3	67	94.28571	48198.86	68	97.14286	34000	1292.907	77.68331	78.0116	14.33025	31.60001	458.5315	56.19	82.3548	1.657	14.39114	2.022999	1	3	1	0.15	5866	183.2002	204.8365	70.50525	4.920029	236.9619	193.6562	1.160217	15.16865	429.5276
9/22/2014 4:21:47 PM	16:21:47	0	A	3	66	94.28571	48198.86	69	97.14286	34000	1278.807	77.81553	78.02017	14.32988	31.72	458.0423	54.91	82.39887	1.556	14.39139	1.997999	1	3	1	0.15	5867	176.2002	198.169	69.73988	4.866747	236.6902	192.3468	1.157889	15.13821	428.6657
9/22/2014 4:21:57 PM	16:21:57	0	A	3	67	94.28571	48198.86	68	97.14286	34000	1286.007	78.16809	78.02017	14.32988	31.72	457.4197	55.91	82.44294	1.632999	14.38748	1.976	1	3	1	0.15	5872	177.6001	197.6669	69.89989	4.877913	236.3443	192.9518	1.149316	15.02612	425.4918
9/22/2014 4:22:07 PM	16:22:07	0	A	3	66	94.28571	48198.86	69	98.57143	34500	1281.507	77.63924	77.98596	14.33025	31.99001	456.6637	54.86	82.3548	1.618999	14.38782	1.969	1	3	1	0.15	5869	178.2002	199.354	69.51024	4.850595	235.9243	191.7603	1.1474	15.00108	424.7827
9/22/2014 4:22:17 PM	16:22:17	0	A	3	66	94.28571	48198.86	69	98.57143	34500	1289.393	78.91729	77.97739	14.32988	32.205	457.4197	55.465	82.57515	1.622999	14.38568	1.996	1	3	1	0.15	5870	178.7998	200.2824	69.52988	4.852092	236.3443	192.9064	1.154876	15.09882	427.5504
9/22/2014 4:22:27 PM	16:22:27	0	A	3	66	94.28571	48198.86	69	98.57143	34500	1283.136	78.56473	77.97739	14.32988	32.205	457.1084	54.755	82.53108	1.597	14.3881	1.986	1	3	1	0.15	5872	174.6001	195.4309	69.37488	4.841276	236.1713	192.3098	1.152144	15.0631	426.5389
9/22/2014 4:22:37 PM	16:22:37	0	A	3	66	94.28571	48198.86	69	98.57143	34500	1282.707	78.6088	77.96884	14.33025	32.83501	457.2863	55.19501	82.44294	1.589001	14.38522	1.966	1	3	1	0.15	5876	174.7998	194.6692	69.14024	4.824776	236.2702	191.9023	1.143726	14.95304	423.4222
9/22/2014 4:22:47 PM	16:22:47	0	A	3	66	94.28571	48198.86	69	98.57143	34500	1279.408	79.31393	77.96033	14.3295	32.92999	456.3969	54.42999	82.48701	1.591999	14.38494	1.933001	1	3	1	0.15	5879	171.7998	192.5299	68.5295	4.782406	235.7761	191.3605	1.136676	14.86088	420.8124
9/22/2014 4:22:57 PM	16:22:57	0	A	3	65	94.28571	48198.86	69	98.57143	34500	1277.522	79.62242	77.96033	14.3295	32.92999	456.0411	54.59	82.66329	1.559	14.38458	1.941999	1	3	1	0.15	5876	171.3999	192.879	68.9895	4.814508	235.5784	192.4996	1.139095	14.89249	421.7078
9/22/2014 4:23:07 PM	16:23:07	0	A	3	65	92.85714	47468.57	68	98.57143	34500	1279.108	79.93092	77.95175	14.3295	33.05499	456.3969	54.2	82.61922	1.476999	14.38349	1.934999	1	3	1	0.15	5881	173.3999	194.387	68.4695	4.77822	235.7761	191.7779	1.137053	14.8658	420.9517
9/22/2014 4:23:17 PM	16:23:17	10	B	4	66	94.28571	48198.86	69	98.57143	34500	1279.108	79.84277	77.92609	14.32987	33.42	455.8188	54.64	82.70737	1.532	14.38679	1.957001	1	3	1	0.15	5877	172.6001	193.1358	69.14988	4.825575	235.4549	192.99	1.143511	14.95023	423.3425
9/22/2014 4:23:27 PM	16:23:27	20	B	4	66	92.85714	47468.57	69	98.57143	34500	1277.393	79.40207	77.92609	14.32987	33.42	456.0411	55.105	82.7955	1.635	14.38997	1.959	1	3	1	0.15	5878	171.7998	192.7212	69.08488	4.821039	235.5784	192.4864	1.14413	14.95833	423.5719
9/22/2014 4:23:37 PM	16:23:37	30	B	4	65	92.85714	47468.57	69	98.57143	34500	1276.45	79.26985	77.94321	14.32988	33.41	455.1517	54.55	82.83958	1.632	14.38658	1.959999	1	3	1	0.15	5881	171.6001	192.5954	68.64989	4.790683	235.0843	191.5479	1.144244	14.95982	423.6142
9/22/2014 4:23:47 PM	16:23:47	40	B	4	66	94.28571	48198.86	69	98.57143	34500	1281.122	79.18172	77.93463	14.32988	33.89	454.2178	54.265	82.83958	1.627001	14.38882	1.944	1	3	1	0.15	5871	172.3999	192.4917	68.66489	4.791729	234.5655	191.5004	1.137324	14.86934	421.0521
9/22/2014 4:23:57 PM	16:23:57	50	B	4	66	92.85714	47468.57	68	97.14286	34000	1271.865	79.40207	77.93463	14.32988	33.89	454.1289	54.75	82.88364	1.514999	14.38741	1.959999	1	3	1	0.15	5880	172.3999	192.5626	69.01488	4.816153	234.5161	192.3539	1.144219	14.95949	423.6049
9/22/2014 4:24:07 PM	16:24:07	60	B	4	66	94.28571	48198.86	68	98.57143	34500	1277.95	79.57835	77.93463	14.33025	33.985	453.5508	54.53999	83.104	1.643	14.38851	1.951	1	3	1	0.15	5878	174	193.8403	68.75525	4.79791	234.1949	192.0106	1.141415	14.92283	422.5667
9/22/2014 4:24:17 PM	16:24:17	70	B	4	66	94.28571	48198.86	68	97.14286	34000	1284.379	78.69694	77.92609	14.3295	33.98	453.2395	56.22	83.19214	1.674999	14.38747	2.006001	1	3	1	0.15	5873	177.7998	197.9245	70.5795	4.925468	234.0219	194.6818	1.157171	15.12882	428.3997
9/22/2014 4:24:27 PM	16:24:27	80	B	4	67	95.71428	48929.14	69	97.14286	34000	1309.706	79.00543	77.92609	14.3295	33.98	456.6193	55.855	82.97179	1.591	14.38794	1.999001	1	3	1	0.15	5865	177	197.8784	69.47949	4.848703	235.8996	192.8913	1.155413	15.10584	427.7491
9/22/2014 4:24:37 PM	16:24:37	90	B	4	66	94.28571	48198.86	68	97.14286	34000	1301.778	80.68011	77.94321	14.32987	34.10001	460.1324	55.33	83.14807	1.594	14.38972	1.983999	1	3	1	0.15	5868	176.2002	196.8624	69.32987	4.838136	237.8513	194.0541	1.155309	15.10448	427.7104
9/22/2014 4:24:47 PM	16:24:47	100	B	4	67	94.28571	48198.86	69	98.57143	34500	1299.549	80.50383	77.93463	14.3295	34.185	460.844	55.215	83.05993	1.599001	14.3869	2.016998	1	3	1	0.15	5875	177.2002	197.5446	69.96487	4.882448	238.2467	195.098	1.155288	15.10421	427.7028
9/22/2014 4:24:57 PM	16:24:57	110	B	4	67	94.28571	48198.86	68	97.14286	34000	1293.164	80.8564	77.93463	14.3295	34.185	460.3992	54.28999	83.14807	1.636	14.38884	1.948999	1	3	1	0.15	5877	172.6001	192.4644	68.8495	4.804739	237.9996	193.2991	1.140801	14.9148	422.3395
9/22/2014 4:25:07 PM	16:25:07	120	B	4	66	94.28571	48198.86	69	98.57143	34500	1276.75	80.19534	77.93463	14.32987	33.605	457.9978	54.36	83.14807	1.677	14.38741	1.951	1	3	1	0.15	5883	172	191.9887	69.39487	4.842672	236.6655	193.7577	1.140447	14.91018	422.2085
9/22/2014 4:25:17 PM	16:25:17	130	B	4	67	95.71428	48929.14	69	97.14286	34000	1270.836	79.35799	77.93463	14.32987	33.605	456.219	54.295	83.104	1.549999	14.38654	1.974001	1	3	1	0.15	5881	173.2002	193.2673	68.74987	4.79766	235.6772	191.8137	1.148307	15.01294	425.1183
9/22/2014 4:25:44 PM	16:25:44	0	B	4	66	92.85714	47468.57	68	97.14286	34000	1256.994	79.0495	77.93463	14.32987	33.955	452.5724	53.855	83.19214	1.476	14.38791	1.916	1	3	1	0.15	5888	167.2002	187.4437	68.60987	4.787891	233.6514	191.2819	1.131069	14.78756	418.7365
9/22/2014 4:25:54 PM	16:25:54	0	B	4	65	92.85714	47468.57	69	98.57143	34500	1260.894	79.00543	77.909	14.33025	33.78	451.683	53.825	83.23621	1.502001	14.38688	1.9	1	3	1	0.15	5889	167.3999	188.1478	68.87024	4.805934	233.1572	191.7342	1.126273	14.72486	416.961
9/22/2014 4:26:04 PM	16:26:04	0	B	4	65	92.85714	47468.57	69	98.57143	34500	1259.566	78.43251	77.89191	14.32988	33.38	450.838	53.7	83.19214	1.548	14.38622	1.934	1	3	1	0.15	5887	169	189.6536	67.98988	4.744625	232.8361	189.57	1.136284	14.85574	420.6671
9/22/2014 4:26:14 PM	16:26:14	0	B	4	65	92.85714	47468.57	68	98.57143	34500	1260.766	79.0495	77.89191	14.32988	33.38	450.0821	54.395	83.104	1.569	14.38661	1.917999	1	3	1	0.15	5888	167.2002	187.6676	68.49487	4.779865	232.2678	191.0633	1.131707	14.7959	418.9726
9/22/2014 4:26:24 PM	16:26:24	0	B	4	66	94.28571	48198.86	69	98.57143	34500	1261.837	79.00543	77.909	14.3295	33.00999	449.9042	53.34	83.32435	1.606001	14.38638	1.896	1	3	1	0.15	5895	165.6001	185.6459	67.4995	4.710527	232.169	189.1261	1.124097	14.69641	416.1553
9/22/2014 4:26:34 PM	16:26:34	0	B	4	65	92.85714	47468.57	69	98.57143	34500	1253.137	78.82915	77.909	14.3295	32.41499	449.1927	53.765	83.14807	1.646	14.38631	1.893999	1	3	1	0.15	5892	165.3999	185.5514	68.2395	4.762169	231.7737	190.3908	1.126049	14.72193	416.878
9/22/2014 4:26:44 PM	16:26:44	0	B	4	65	92.85714	47468.57	68	97.14286	34000	1256.909	78.69694	77.909	14.3295	32.41499	448.1698	53.38	83.19214	1.472	14.38776	1.886999	1	3	1	0.15	5891	164.2002	184.8468	67.8295	4.733556	231.2055	189.494	1.122508	14.67564	415.567
9/22/2014 4:26:54 PM	16:26:54	0	B	4	66	92.85714	47468.57	69	98.57143	34500	1253.652	78.6088	77.91757	14.32987	32.24001	447.8585	53.61501	83.01585	1.575001	14.3847	1.900999	1	3	1	0.15	5889	166.2002	187.6994	67.57487	4.715664	231.0325	188.9271	1.126707	14.73053	417.1216
9/22/2014 4:27:04 PM	16:27:04	0	B	4	65	92.85714	47468.57	69	98.57143	34500	1253.694	78.78507	77.91757	14.32912	31.765	447.2804	53.605	83.104	1.593	14.38622	1.905001	1	3	1	0.15	5891	165.6001	185.5199	68.18913	4.758778	230.7113	190.2602	1.128159	14.74952	417.6591
9/22/2014 4:27:14 PM	16:27:14	3	C	5	66	92.85714	47468.57	68	97.14286	34000	1254.38	78.6088	77.91757	14.32912	31.765	446.6578	53.45	83.28028	1.509001	14.38691	1.896999	1	3	1	0.15	5890	164.3999	184.8154	68.03913	4.748311	230.3655	189.8224	1.125937	14.72048	416.8367
9/22/2014 4:27:24 PM	16:27:24	13	C	5	65	94.28571	48198.86	69	98.57143	34500	1255.237	77.90366	77.909	14.3295	31.495	446.4355	54.125	83.19214	1.490999	14.38505	1.896999	1	3	1	0.15	5892	166	186.4492	68.2645	4.763913	230.2419	189.6417	1.123294	14.68591	415.8581
9/22/2014 4:27:34 PM	16:27:34	23	C	5	65	92.85714	47468.57	69	98.57143	34500	1265.822	78.78507	77.909	14.32988	31.435	446.6134	53.355	83.23621	1.496	14.38499	1.875999	1	3	1	0.15	5890	164.7998	185.2644	67.81488	4.732412	230.3408	189.5384	1.119998	14.64282	414.6378
9/22/2014 4:27:44 PM	16:27:44	33	C	5	65	92.85714	47468.57	69	98.57143	34500	1266.122	79.97498	77.909	14.32988	31.435	448.9703	53.56	83.05993	1.530001	14.38647	1.916	1	3	1	0.15	5891	165	185.0714	67.88988	4.737646	231.6502	190.7047	1.130845	14.78464	418.6536
9/22/2014 4:27:54 PM	16:27:54	43	C	5	65	92.85714	47468.57	68	98.57143	34500	1250.309	79.18172	77.91757	14.32987	31.52499	447.5472	53.075	83.23621	1.565001	14.38607	1.872	1	3	1	0.15	5888	165.7998	186.0982	68.16488	4.756837	230.8596	190.5486	1.117967	14.61627	413.886
9/22/2014 4:28:04 PM	16:28:04	53	C	5	65	92.85714	47468.57	69	97.14286	34000	1257.551	78.6088	77.91757	14.32987	31.67999	446.7023	53.455	83.19214	1.530001	14.386	1.886999	1	3	1	0.15	5892	166	186.4492	68.15987	4.756488	230.3902	190.046	1.122442	14.67477	415.5426
9/22/2014 4:28:14 PM	16:28:14	63	C	5	65	92.85714	47468.57	69	98.57143	34500	1255.751	78.25623	77.91757	14.32987	31.67999	446.2576	53.84	83.14807	1.549999	14.38781	1.899	1	3	1	0.15	5890	164	184.143	68.41488	4.774283	230.1431	190.2279	1.12964	14.76889	418.2076
9/22/2014 4:28:24 PM	16:28:24	73	C	5	65	92.85714	47468.57	69	98.57143	34500	1256.394	78.12402	77.909	14.3295	31.925	445.7684	53.19501	83.19214	1.504999	14.38526	1.917999	1	3	1	0.15	5895	165.2002	185.6459	67.7245	4.72623	229.8713	188.8009	1.131557	14.79395	418.9174
9/22/2014 4:28:34 PM	16:28:34	83	C	5	65	94.28571	48198.86	69	98.57143	34500	1252.923	78.07995	77.91757	14.32988	31.95	445.4127	53.66	83.23621	1.618	14.38651	1.903	1	3	1	0.15	5892	165	184.4296	68.73988	4.796963	229.6737	190.6923	1.127141	14.73621	417.2824
9/22/2014 4:28:44 PM	16:28:44	93	C	5	65	92.85714	47468.57	69	98.57143	34500	1254.166	77.94774	77.91757	14.32988	31.95	445.1013	53.715	83.19214	1.646	14.3869	1.903	1	3	1	0.15	5895	164.3999	184.7482	68.03989	4.748114	229.5008	189.2484	1.123363	14.68682	415.8839
9/22/2014 4:28:54 PM	16:28:54	103	C	5	65	92.85714	47468.57	69	98.57143	34500	1257.08	77.77145	77.92609	14.33025	31.97501	444.5677	54.005	83.19214	1.556	14.38547	1.915001	1	3	1	0.15	5893	165	184.9095	68.38025	4.771741	229.2043	189.7411	1.13068	14.78248	418.5925
9/22/2014 4:29:04 PM	16:29:04	113	C	5	66	92.85714	47468.57	68	97.14286	34000	1254.894	77.63924	77.92609	14.33025	31.98	444.3453	53.88	83.104	1.568001	14.38721	1.927	1	3	1	0.15	5893	164.2002	184.0121	68.19025	4.758483	229.0807	189.2661	1.134368	14.8307	419.9579
9/22/2014 4:29:14 PM	16:29:14	123	C	5	65	92.85714	47468.57	69	98.57143	34500	1251.337	77.72738	77.92609	14.33025	31.98	443.9451	54.19	83.23621	1.584	14.38717	1.917	1	3	1	0.15	5893	164.6001	184.9095	67.92525	4.73999	228.8584	188.8369	1.133336	14.8172	419.5757
9/22/2014 4:29:24 PM	16:29:24	133	C	5	66	92.85714	47468.57	69	98.57143	34500	1251.509	77.5511	77.93463	14.32987	31.53999	443.367	53.925	83.19214	1.664	14.38835	1.917	1	3	1	0.15	5894	165.3999	185.6144	67.91488	4.739391	228.5372	188.669	1.131392	14.79179	418.8561
9/22/2014 4:29:35 PM	16:29:35	0	C	5	65	92.85714	47468.57	68	98.57143	34500	1258.923	77.63924	77.91757	14.3295	31.25999	443.7227	53.57001	83.28028	1.547001	14.38555	1.895	1	3	1	0.15	5895	165.3999	185.4217	67.9695	4.743327	228.7349	188.8523	1.12471	14.70442	416.3822
9/22/2014 4:29:45 PM	16:29:45	0	C	5	66	92.85714	47468.57	68	97.14286	34000	1259.608	78.38844	77.91757	14.3295	31.25999	444.3009	54.05	83.19214	1.660999	14.38779	1.915001	1	3	1	0.15	5894	166.2002	186.5125	68.27451	4.764612	229.056	190.0781	1.130765	14.7836	418.6241
9/22/2014 4:29:55 PM	16:29:55	0	C	5	66	94.28571	48198.86	69	98.57143	34500	1257.551	78.43251	77.909	14.3295	31.235	444.968	53.98	83.19214	1.608999	14.38613	1.915001	1	3	1	0.15	5894	165.3999	185.1656	68.10449	4.752747	229.4267	189.7921	1.13071	14.78287	418.6035
9/22/2014 4:30:05 PM	16:30:05	0	C	5	65	92.85714	47468.57	69	98.57143	34500	1257.38	78.03587	77.92609	14.3295	31.31	444.7456	53.83501	83.104	1.613001	14.38703	1.886	1	3	1	0.15	5895	164.3999	185.197	68.25949	4.763564	229.3031	189.746	1.126997	14.73434	417.2292
9/22/2014 4:30:15 PM	16:30:15	0	C	5	65	92.85714	47468.57	69	98.57143	34500	1258.58	77.99181	77.92609	14.3295	31.31	444.7011	53.47501	83.19214	1.593	14.38414	1.886	1	3	1	0.15	5894	164.2002	184.9409	67.91949	4.739837	229.2784	189.06	1.122071	14.66992	415.4053
9/22/2014 4:30:25 PM	16:30:25	0	C	5	65	92.85714	47468.57	69	98.57143	34500	1254.894	78.21216	77.95175	14.32987	31.485	444.4788	53.485	83.23621	1.461	14.38651	1.905001	1	3	1	0.15	5894	165.2002	185.1656	67.97488	4.743578	229.1549	189.3519	1.125077	14.70923	416.5184
9/22/2014 4:30:35 PM	16:30:35	0	C	5	66	94.28571	48198.86	69	98.57143	34500	1255.066	77.8596	77.94321	14.3295	31.52499	444.3009	53.735	83.19214	1.598	14.38928	1.895	1	3	1	0.15	5899	165.3999	184.8735	67.8445	4.734603	229.056	188.8032	1.128474	14.75363	417.7756
9/22/2014 4:30:45 PM	16:30:45	0	C	5	66	94.28571	48198.86	69	98.57143	34500	1258.708	78.16809	77.94321	14.3295	31.52499	444.2119	53	83.23621	1.506001	14.38602	1.903	1	3	1	0.15	5897	165.2002	185.2598	68.16949	4.757284	229.0067	189.6885	1.127126	14.73601	417.2766
9/22/2014 4:30:55 PM	16:30:55	5	C	6	65	92.85714	47468.57	69	98.57143	34500	1258.88	77.63924	77.96033	14.3295	31.575	444.4343	53.405	83.19214	1.586	14.3844	1.878	1	3	1	0.15	5897	165.6001	186.1578	68.1395	4.75519	229.1302	189.1763	1.123853	14.69322	416.065
9/22/2014 4:31:05 PM	16:31:05	15	C	6	66	94.28571	48198.86	69	98.57143	34500	1258.537	78.12402	77.96033	14.3295	31.82001	444.5233	53.92	83.41249	1.584999	14.3875	1.909	1	3	1	0.15	5895	165	185.197	68.2245	4.761122	229.1796	189.7553	1.128772	14.75754	417.8862
9/22/2014 4:31:15 PM	16:31:15	25	C	6	65	92.85714	47468.57	68	98.57143	34500	1258.708	77.63924	77.96033	14.3295	31.82001	444.123	53.45	83.28028	1.540001	14.38606	1.858999	1	3	1	0.15	5896	166.2002	186.5758	67.93449	4.740884	228.9572	188.7856	1.118802	14.62719	414.1951
9/22/2014 4:31:25 PM	16:31:25	35	C	6	65	94.28571	48198.86	69	98.57143	34500	1258.666	77.37482	77.98596	14.32912	31.63499	444.3009	53.84	83.32435	1.523001	14.38641	1.924	1	3	1	0.15	5895	165.2002	184.9723	68.41413	4.774481	229.056	189.4739	1.133213	14.8156	419.5304
9/22/2014 4:31:35 PM	16:31:35	45	C	6	65	92.85714	47468.57	69	98.57143	34500	1255.451	77.59517	77.98596	14.3295	31.31	443.5894	53.815	83.32435	1.580999	14.38519	1.919001	1	3	1	0.15	5898	166.3999	187.0881	67.6445	4.720646	228.6608	188.1936	1.131714	14.796	418.9755
9/22/2014 4:31:45 PM	16:31:45	55	C	6	66	92.85714	47468.57	69	97.14286	34000	1257.551	77.37482	77.98596	14.3295	31.31	443.5894	54.05	83.41249	1.573	14.3874	1.902	1	3	1	0.15	5896	164.7998	183.6569	68.39951	4.773335	228.6608	189.4428	1.126694	14.73037	417.1168
9/22/2014 4:31:55 PM	16:31:55	65	C	6	66	94.28571	48198.86	69	97.14286	34000	1253.823	77.37482	78.00305	14.3295	31.23	443.0557	53.53999	83.41249	1.583	14.38736	1.875999	1	3	1	0.15	5897	164.6001	185.2598	68.25949	4.763564	228.3643	189.1769	1.123453	14.688	415.9172
9/22/2014 4:32:05 PM	16:32:05	75	C	6	65	92.85714	47468.57	69	98.57143	34500	1257.509	77.46296	78.03723	14.33025	31.2	443.2336	53.83	83.32435	1.635	14.38862	1.923	1	3	1	0.15	5897	166.3999	186.6074	68.17525	4.757436	228.4631	189.0859	1.133003	14.81285	419.4526
9/22/2014 4:32:15 PM	16:32:15	85	C	6	65	94.28571	48198.86	69	98.57143	34500	1261.28	77.1104	78.03723	14.33025	31.2	443.3225	53.995	83.28028	1.655001	14.39053	1.952	1	3	1	0.15	5895	166.6001	188.1154	68.76524	4.798607	228.5125	189.9006	1.141593	14.92515	422.6326
9/22/2014 4:32:25 PM	16:32:25	95	C	6	65	92.85714	47468.57	69	98.57143	34500	1262.094	77.19853	78.0116	14.32875	31.11	444.1675	53.71001	83.32435	1.599001	14.38903	1.924	1	3	1	0.15	5895	168.2002	188.1154	68.58875	4.786792	228.9819	189.6564	1.133325	14.81706	419.5716
9/22/2014 4:32:35 PM	16:32:35	105	C	6	65	92.85714	47468.57	69	98.57143	34500	1260.68	77.63924	78.02017	14.3295	31.07001	444.5677	54.42	83.32435	1.559999	14.3875	1.921	1	3	1	0.15	5896	167.3999	187.0247	67.9095	4.73914	229.2043	188.7379	1.133566	14.82021	419.6608
9/22/2014 4:32:45 PM	16:32:45	115	C	6	65	92.85714	47468.57	69	98.57143	34500	1263.294	76.66969	78.02017	14.3295	31.07001	444.3453	54.395	83.23621	1.598	14.38367	1.895	1	3	1	0.15	5892	167.3999	187.571	68.0795	4.751003	229.0807	188.228	1.124676	14.70398	416.3696
9/22/2014 4:32:55 PM	16:32:55	125	C	6	65	92.85714	47468.57	69	98.57143	34500	1261.28	77.19853	78.02872	14.32912	31.08501	444.3898	53.515	83.28028	1.615999	14.38742	1.92	1	3	1	0.15	5895	168.2002	188.3395	67.69912	4.724582	229.1055	187.9608	1.134765	14.83588	420.1047
9/22/2014 4:35:45 PM	16:35:45	0	C	6	63	90	46008	69	98.57143	34500	1185.126	79.09357	78.23392	14.32875	32.795	429.3397	49.55499	83.72099	1.278	14.38104	1.702999	1	3	1	0.15	5901	138.3999	154.8247	63.86874	4.457385	220.7443	182.0914	1.065874	13.93521	394.6005
9/22/2014 4:35:55 PM	16:35:55	5	D	7	64	90	46008	69	98.57143	34500	1173.392	78.96136	78.24243	14.32875	32.345	429.2047	49.55	83.8532	1.395	14.3779	1.688	1	3	1	0.15	5905	137.3999	154.0305	64.14375	4.476577	220.6693	182.5286	1.060955	13.8709	392.7794
9/22/2014 4:36:05 PM	16:36:05	15	D	7	63	90	46008	69	98.57143	34500	1180.067	78.82915	78.25101	14.32875	32.02	428.2592	49.89	83.72099	1.441	14.37768	1.665001	1	3	1	0.15	5914	137.7998	154.7155	63.64876	4.442032	220.144	181.4276	1.053849	13.77799	390.1486
9/22/2014 4:36:15 PM	16:36:15	25	D	7	63	90	46008	70	100	35000	1184.573	79.0495	78.25101	14.32875	32.02	428.2592	49.74001	83.63285	1.365999	14.38043	1.695	1	3	1	0.15	5908	136.2002	153.6589	63.90875	4.460177	220.144	182.1341	1.061578	13.87905	393.0102
9/22/2014 4:36:25 PM	16:36:25	35	D	7	63	90	46008	69	98.57143	34500	1183.085	79.53428	78.31085	14.32875	32.08501	427.989	49.435	83.72099	1.319	14.37844	1.681999	1	3	1	0.15	5910	136.7998	153.7109	63.47874	4.430167	219.9939	181.6815	1.059226	13.84829	392.1392
9/22/2014 4:36:35 PM	16:36:35	45	D	7	63	90	46008	69	98.57143	34500	1182.235	79.57835	78.3194	14.32875	32.19501	427.5388	49.105	83.80913	1.464001	14.37963	1.687	1	3	1	0.15	5905	136.7998	153.3558	63.40875	4.425282	219.7438	181.5778	1.060739	13.86807	392.6993
9/22/2014 4:36:45 PM	16:36:45	55	D	7	63	90	46008	69	98.57143	34500	1181.002	79.13764	78.3194	14.32875	32.19501	427.3587	48.92999	83.63285	1.327999	14.37642	1.673	1	3	1	0.15	5908	138.2002	155.2336	63.75874	4.449707	219.6437	181.9085	1.056415	13.81155	391.0988
9/22/2014 4:36:55 PM	16:36:55	65	D	7	63	90	46008	69	98.57143	34500	1188.144	79.53428	78.35361	14.32912	31.96001	427.1786	49.38499	83.80913	1.429001	14.37965	1.683001	1	3	1	0.15	5911	136.3999	153.7369	63.87412	4.457643	219.5437	182.4712	1.060428	13.86401	392.5843
9/22/2014 4:37:05 PM	16:37:05	75	D	7	62	88.57143	45277.71	69	98.57143	34500	1173.902	79.13764	78.36215	14.32912	31.735	427.0435	48.46001	83.8532	1.231001	14.37882	1.615999	1	3	1	0.15	5908	137.3999	154.3339	62.48412	4.360638	219.6187	179.3341	1.038211	13.57354	384.3591
9/22/2014 4:37:15 PM	16:37:15	85	D	7	63	90	46008	69	98.57143	34500	1182.235	78.6088	78.36215	14.32912	31.735	426.9535	49.28999	83.89727	1.336	14.37936	1.709	1	3	1	0.15	5905	139.7998	156.054	64.13912	4.476137	219.4186	182.2178	1.067514	13.95665	395.2076
9/22/2014 4:37:25 PM	16:37:25	95	D	7	64	91.42857	46738.29	69	98.57143	34500	1187.507	78.03587	78.37924	14.32875	31.28	426.5032	49.92	83.98541	1.433001	14.37725	1.737	1	3	1	0.15	5900	141.2002	159.292	64.51875	4.502748	219.1685	182.4903	1.07602	14.06785	398.3565
9/22/2014 4:37:35 PM	16:37:35	105	D	7	64	91.42857	46738.29	69	98.57143	34500	1195.457	77.63924	78.37073	14.32837	31.015	426.9535	50.30499	83.80913	1.486	14.38009	1.725	1	3	1	0.15	5908	142	159.0581	64.62337	4.510168	219.3686	182.3646	1.075689	14.06353	398.234
9/22/2014 4:37:45 PM	16:37:45	115	D	7	63	90	46008	69	98.57143	34500	1192.438	77.41888	78.37073	14.32837	31.015	426.9985	49.72	83.94134	1.379	14.37839	1.743999	1	3	1	0.15	5899	142	159.4898	63.77837	4.451194	219.4436	180.4993	1.075184	14.05693	398.0472
9/22/2014 4:37:55 PM	16:37:55	125	D	7	64	90	46008	69	98.57143	34500	1191.971	77.24261	78.37073	14.32875	30.7	426.8184	50.41499	83.89727	1.382999	14.38336	1.704	1	3	1	0.15	5903	142.3999	159.598	63.96375	4.464015	219.3436	180.7166	1.066116	13.93837	394.69
9/22/2014 4:38:18 PM	16:38:18	0	D	7	64	91.42857	46738.29	69	98.57143	34500	1190.015	76.8019	78.32797	14.32837	30.21001	425.7379	50.485	83.89727	1.375999	14.37991	1.747999	1	3	1	0.15	5901	142.6001	160.8923	64.59838	4.508423	218.7433	181.6054	1.07681	14.07819	398.6492
9/22/2014 4:38:28 PM	16:38:28	0	D	7	64	90	46008	69	98.57143	34500	1192.693	77.06632	78.32797	14.32837	30.21001	425.5128	50.3	83.80913	1.476	14.37998	1.722	1	3	1	0.15	5905	141	158.0781	64.04838	4.470038	218.6182	180.7393	1.070107	13.99055	396.1676
9/22/2014 4:38:38 PM	16:38:38	0	D	7	63	91.42857	46738.29	69	98.57143	34500	1196.179	76.97818	78.30231	14.32912	30.045	425.7379	50.505	83.63285	1.399	14.3829	1.750999	1	3	1	0.15	5898	143.7998	161.2596	65.14913	4.546623	218.7433	182.833	1.080893	14.13156	400.1606
9/22/2014 4:38:48 PM	16:38:48	0	D	7	64	91.42857	46738.29	69	97.14286	34000	1201.324	76.89004	78.26807	14.32875	30.37	425.8279	51.09	83.72099	1.485001	14.38343	1.785999	1	3	1	0.15	5893	148.7998	166.9571	64.90875	4.529966	218.6432	182.2888	1.093339	14.29428	404.7682
9/22/2014 4:38:58 PM	16:38:58	0	D	7	64	91.42857	46738.29	69	98.57143	34500	1203.024	76.44933	78.26807	14.32875	30.37	425.7829	51.19	83.67692	1.417999	14.38234	1.774	1	3	1	0.15	5897	147.2002	165.4987	65.58875	4.577423	218.7683	183.2473	1.087868	14.22276	402.7429
9/22/2014 4:39:08 PM	16:39:08	0	D	7	64	91.42857	46738.29	69	98.57143	34500	1205.49	75.83234	78.23392	14.32837	30.33	425.1526	51.16499	83.58878	1.475	14.3824	1.804001	1	3	1	0.15	5896	146.7998	165.0217	65.49337	4.570886	218.4181	182.5393	1.097078	14.34317	406.1527
9/22/2014 4:39:18 PM	16:39:18	0	D	7	64	91.42857	46738.29	69	98.57143	34500	1221.815	76.22898	78.2168	14.32875	30.39	426.3682	51.32001	83.45657	1.525	14.38404	1.834999	1	3	1	0.15	5893	153.2002	170.9965	66.02376	4.607782	219.0934	183.9067	1.106615	14.46786	409.6834
9/22/2014 4:39:28 PM	16:39:28	0	D	7	64	91.42857	46738.29	69	98.57143	34500	1215.481	76.27305	78.2168	14.32875	30.39	427.2236	51.72501	83.63285	1.555	14.38581	1.858999	1	3	1	0.15	5893	154.6001	172.7919	65.53876	4.573935	219.5687	182.9997	1.113668	14.56006	412.2944
9/22/2014 4:39:38 PM	16:39:38	0	D	7	64	91.42857	46738.29	69	98.57143	34500	1219.052	76.18491	78.17404	14.32912	30.375	427.5838	51.62	83.45657	1.525	14.38315	1.844	1	3	1	0.15	5892	153.2002	171.1921	65.46912	4.568955	219.7688	182.7853	1.109264	14.50248	410.6639
9/22/2014 4:39:48 PM	16:39:48	5	D	8	64	91.42857	46738.29	69	98.57143	34500	1217.819	76.31712	78.17404	14.32912	30.375	427.6739	51.89	83.41249	1.503	14.38333	1.846001	1	3	1	0.15	5891	152.6001	171.6116	66.28413	4.625832	219.8188	184.4836	1.109924	14.51111	410.9083
9/22/2014 4:39:58 PM	16:39:58	15	D	8	64	91.42857	46738.29	69	98.57143	34500	1213.993	76.09677	78.12277	14.32912	30.27	427.5838	51.55	83.32435	1.621	14.38463	1.834999	1	3	1	0.15	5891	154	172.9578	65.92913	4.601058	219.7688	183.6067	1.107958	14.48541	410.1805
9/22/2014 4:40:08 PM	16:40:08	25	D	8	64	91.42857	46738.29	69	98.57143	34500	1214.163	76.31712	78.06287	14.32912	30.22	427.5838	51.60001	83.19214	1.525999	14.38579	1.867001	1	3	1	0.15	5887	151.3999	169.7016	66.25912	4.624087	219.7688	184.4351	1.116514	14.59728	413.3481
9/22/2014 4:40:18 PM	16:40:18	35	D	8	63	91.42857	46738.29	68	98.57143	34500	1216.203	76.27305	78.02872	14.32875	30.145	427.854	51.33501	83.32435	1.532	14.38151	1.830999	1	3	1	0.15	5888	151.6001	170.4031	65.57875	4.576725	219.9189	183.0777	1.105434	14.45242	409.2462
9/22/2014 4:40:28 PM	16:40:28	45	D	8	64	91.42857	46738.29	68	98.57143	34500	1219.817	76.22898	78.02872	14.32875	30.145	427.6739	51.53999	83.14807	1.476999	14.38545	1.809999	1	3	1	0.15	5887	151.7998	170.1498	66.12875	4.615109	219.8188	184.1105	1.101557	14.40172	407.8106
9/22/2014 4:40:38 PM	16:40:38	55	D	8	64	91.42857	46738.29	69	98.57143	34500	1219.009	76.27305	77.98596	14.32912	30.215	427.854	51.89999	83.19214	1.476	14.38127	1.844999	1	3	1	0.15	5888	152.2002	170.8515	66.20913	4.620598	219.9189	184.3006	1.109758	14.50895	410.847
9/22/2014 4:40:48 PM	16:40:48	65	D	8	64	91.42857	46738.29	69	98.57143	34500	1214.078	75.96455	77.98596	14.32912	30.215	427.809	51.395	83.14807	1.612	14.38565	1.844999	1	3	1	0.15	5888	151.6001	170.1787	66.01412	4.606989	219.8939	183.6591	1.109968	14.5117	410.9248
9/22/2014 4:40:58 PM	16:40:58	75	D	8	64	91.42857	46738.29	69	98.57143	34500	1218.669	76.18491	77.92609	14.328	30.35001	427.989	51.30499	83.05993	1.459	14.38366	1.841	1	3	1	0.15	5890	152.3999	170.2365	66.19301	4.619835	219.9939	184.2042	1.110297	14.51599	411.0465
9/22/2014 4:41:08 PM	16:41:08	85	D	8	64	91.42857	46738.29	69	98.57143	34500	1214.12	76.22898	77.88336	14.32912	30.5	427.3587	51.99001	82.97179	1.544001	14.38337	1.851	1	3	1	0.15	5889	152.2002	170.4321	65.96412	4.603499	219.6437	183.7874	1.111863	14.53647	411.6262
9/22/2014 4:41:18 PM	16:41:18	95	D	8	64	91.42857	46738.29	69	98.57143	34500	1215.013	76.09677	77.86624	14.32837	30.66	427.5388	51.38499	83.01585	1.504	14.38349	1.868	1	3	1	0.15	5886	154.2002	173.0348	65.88337	4.598105	219.7438	183.5244	1.116901	14.60233	413.4914
9/22/2014 4:41:28 PM	16:41:28	105	D	8	64	91.42857	46738.29	69	98.57143	34500	1216.969	76.36119	77.86624	14.32837	30.66	427.4488	51.25	82.92772	1.524	14.38443	1.837	1	3	1	0.15	5888	153.2002	172.197	66.11837	4.614506	219.6938	184.2065	1.10776	14.48283	410.1073
9/22/2014 4:41:38 PM	16:41:38	115	D	8	64	91.42857	46738.29	69	98.57143	34500	1216.841	76.66969	77.81497	14.32912	31.02	427.5388	51.465	82.88364	1.552	14.38337	1.848	1	3	1	0.15	5883	152	171.1543	66.05413	4.609781	219.7438	184.3382	1.110172	14.51436	411.0001
9/22/2014 4:41:48 PM	16:41:48	125	D	8	64	91.42857	46738.29	69	97.14286	34000	1218.244	76.62562	77.78928	14.32875	31.685	427.4037	52.09	82.88364	1.544001	14.38498	1.843	1	3	1	0.15	5883	154	172.4987	65.96875	4.603943	219.6687	184.138	1.111433	14.53084	411.4669
9/22/2014 4:41:59 PM	16:41:59	0	D	8	64	91.42857	46738.29	69	98.57143	34500	1216.841	76.84597	77.78928	14.32875	31.685	427.2686	51.88	82.88364	1.530001	14.38455	1.813999	1	3	1	0.15	5889	152.2002	170.4321	65.97874	4.60464	219.5937	184.3453	1.100901	14.39314	407.5677
9/22/2014 4:42:09 PM	16:42:09	0	D	8	64	91.42857	46738.29	69	98.57143	34500	1194.394	76.71376	77.77219	14.32875	31.75999	427.0435	51.595	82.92772	1.429001	14.3818	1.813999	1	3	1	0.15	5882	148	165.5256	65.75375	4.588939	219.4686	183.7945	1.100744	14.3911	407.5098
9/22/2014 4:42:19 PM	16:42:19	0	D	8	63	90	46008	69	98.57143	34500	1190.313	76.44933	77.75513	14.32875	31.91499	424.8824	50.265	82.7955	1.385	14.38057	1.759001	1	3	1	0.15	5895	143.6001	161.1776	63.90375	4.459827	218.268	179.9267	1.084083	14.17327	401.3417
9/22/2014 4:42:29 PM	16:42:29	0	D	8	63	90	46008	69	100	35000	1170.671	76.4934	77.75513	14.32875	31.91499	423.4417	48.595	82.97179	1.358	14.37999	1.677999	1	3	1	0.15	5914	137.2002	154.7155	62.63374	4.371194	217.4676	177.4191	1.056231	13.80913	391.0305
9/22/2014 4:42:39 PM	16:42:39	0	D	8	63	90	46008	69	98.57143	34500	1173.52	76.27305	77.74655	14.32875	31.73	420.5151	49.25999	82.83958	1.406	14.38166	1.722	1	3	1	0.15	5891	139.2002	156.1331	63.73375	4.447963	215.8418	179.4393	1.072684	14.02424	397.1216
9/22/2014 4:42:49 PM	16:42:49	0	D	8	63	88.57143	45277.71	68	97.14286	34000	1170.034	76.62562	77.71237	14.32837	31.55	419.5697	49.375	82.61922	1.278999	14.3794	1.723	1	3	1	0.15	5887	134	150.6466	63.55338	4.435492	215.3165	179.3804	1.071269	14.00574	396.5977
9/22/2014 4:42:59 PM	16:42:59	0	D	8	62	88.57143	45277.71	68	97.14286	34000	1158.172	76.36119	77.71237	14.32837	31.55	417.7687	48.075	82.83958	1.302999	14.37557	1.658001	1	3	1	0.15	5893	132.7998	149.6781	63.14838	4.407226	214.316	178.3467	1.053689	13.7759	390.0895
9/22/2014 4:43:09 PM	16:43:09	0	D	8	62	88.57143	45277.71	69	98.57143	34500	1147.756	76.14084	77.69525	14.328	31.60001	418.9393	46.39999	82.66329	1.239	14.37271	1.563	1	3	1	0.15	5892	132.2002	148.0822	60.91301	4.251327	214.9663	173.6237	1.022029	13.36198	378.3686
9/22/2014 4:43:19 PM	16:43:19	0	D	8	62	88.57143	45277.71	69	98.57143	34500	1163.146	76.36119	77.67816	14.32837	31.815	416.328	48.595	82.61922	1.382	14.37633	1.677999	1	3	1	0.15	5899	132.7998	149.1565	62.71838	4.377215	213.5156	177.482	1.060542	13.8655	392.6266
9/22/2014 4:43:29 PM	16:43:29	0	D	8	63	88.57143	45277.71	68	97.14286	34000	1157.322	76.66969	77.67816	14.32837	31.815	415.2924	48.53	82.66329	1.287001	14.37471	1.646	1	3	1	0.15	5853	133.6001	148.6621	62.30338	4.348252	212.9403	176.9023	1.04877	13.71159	388.2683
9/22/2014 4:43:39 PM	16:43:39	0	D	8	63	90	46008	68	97.14286	34000	1157.194	76.31712	77.66959	14.328	32.08501	414.347	48.44	82.53108	1.312	14.3769	1.672001	1	3	1	0.15	5840	132.2002	146.5527	62.908	4.390564	212.415	177.8301	1.057192	13.82171	391.3865
9/22/2014 4:43:49 PM	16:43:49	0	D	8	62	88.57143	45277.71	68	97.14286	34000	1151.71	76.40527	77.65247	14.32875	32.22	413.6266	48.05	82.61922	1.254	14.37461	1.652	1	3	1	0.15	5831	131.6001	146.1051	62.13875	4.336648	212.0148	176.3432	1.050718	13.73706	388.9895
9/22/2014 4:43:59 PM	16:43:59	0	D	8	63	90	46008	69	97.14286	34000	1149.925	76.14084	77.65247	14.32875	32.22	412.636	48.12	82.70737	1.287001	14.37793	1.632999	1	3	1	0.15	5830	131.7998	146.0801	62.54875	4.365263	211.4645	176.9513	1.044714	13.65856	386.7667
9/22/2014 4:44:09 PM	16:44:09	0	D	8	63	90	46008	68	97.14286	34000	1152.603	76.09677	77.61832	14.32837	32.11	411.7356	47.97501	82.61922	1.357	14.37377	1.686001	1	3	1	0.15	5827	133.3999	148.2238	62.74337	4.378959	210.9642	177.31	1.057925	13.83128	391.6575
9/22/2014 4:44:19 PM	16:44:19	0	D	8	63	88.57143	45277.71	69	98.57143	34500	1157.322	76.27305	77.60977	14.32837	32.375	411.5555	48.38	82.70737	1.421	14.37294	1.667	1	3	1	0.15	5827	132.7998	147.7802	62.37838	4.353486	210.9392	176.7212	1.052761	13.76377	389.7461
9/22/2014 4:44:29 PM	16:44:29	0	D	8	62	88.57143	45277.71	68	98.57143	34500	1157.96	76.14084	77.60977	14.32837	32.375	411.6006	47.8	82.48701	1.339001	14.37384	1.658001	1	3	1	0.15	5834	131.6001	146.6245	62.37838	4.353486	210.8892	176.6102	1.052709	13.76309	389.7266
9/22/2014 4:44:39 PM	16:44:39	4	E	9	63	90	46008	69	97.14286	34000	1153.963	76.58155	77.59265	14.328	32.785	411.1503	47.92	82.61922	1.346001	14.37216	1.632	1	3	1	0.15	5830	132.7998	146.524	61.968	4.324958	210.6391	176.1506	1.04681	13.68597	387.5428
9/22/2014 4:44:49 PM	16:44:49	14	E	9	62	88.57143	45277.71	68	97.14286	34000	1152.603	76.27305	77.54993	14.328	32.64	410.9252	47.96001	82.61922	1.333	14.37249	1.648001	1	3	1	0.15	5831	131	145.2166	62.728	4.378001	210.514	177.4306	1.049356	13.71926	388.4855
9/22/2014 4:44:59 PM	16:44:59	24	E	9	63	88.57143	45277.71	68	97.14286	34000	1156.004	76.40527	77.54993	14.328	32.64	410.52	48.16499	82.61922	1.304001	14.37697	1.662001	1	3	1	0.15	5830	132.2002	146.9679	62.72301	4.377652	210.2889	177.5316	1.058372	13.83712	391.8231
9/22/2014 4:45:09 PM	16:45:09	34	E	9	62	88.57143	45277.71	68	97.14286	34000	1156.514	76.66969	77.54135	14.328	32.87	411.0602	48.145	82.61922	1.399	14.37285	1.656	1	3	1	0.15	5827	132.3999	146.8923	62.34801	4.35148	210.589	176.996	1.048412	13.70691	388.1358
9/22/2014 4:45:19 PM	16:45:19	44	E	9	63	88.57143	45277.71	68	97.14286	34000	1161.871	76.53748	77.50717	14.328	32.78999	411.4655	47.8	82.48701	1.304001	14.37646	1.646	1	3	1	0.15	5837	131.2002	146.6999	62.418	4.356365	210.8141	177.0267	1.048355	13.70617	388.1148
9/22/2014 4:45:29 PM	16:45:29	54	E	9	63	90	46008	68	97.14286	34000	1152.816	76.66969	77.50717	14.328	32.78999	412.0508	47.845	82.66329	1.332001	14.37639	1.677999	1	3	1	0.15	5828	130.7998	145.5862	62.61301	4.369975	211.1393	177.532	1.054194	13.78251	390.2766
9/22/2014 4:45:39 PM	16:45:39	64	E	9	62	88.57143	45277.71	68	97.14286	34000	1152.688	76.44933	77.4986	14.32837	32.965	411.6456	48.205	82.66329	1.281	14.3763	1.645	1	3	1	0.15	5825	132.6001	146.8418	62.02837	4.329059	210.9142	176.1593	1.048494	13.70798	388.1662
9/22/2014 4:45:49 PM	16:45:49	74	E	9	62	88.57143	45277.71	68	97.14286	34000	1155.621	75.96455	77.46439	14.32763	33.34	411.1053	47.62	82.66329	1.312	14.37331	1.622	1	3	1	0.15	5834	130.2002	144.1805	61.97762	4.325743	210.6141	175.6565	1.041067	13.61088	385.4166
9/22/2014 4:45:59 PM	16:45:59	84	E	9	62	90	46008	68	97.14286	34000	1150.01	76.0527	77.46439	14.32763	33.34	410.565	48.42999	82.66329	1.358	14.37569	1.690001	1	3	1	0.15	5824	131.6001	146.3732	63.01763	4.39833	210.3139	177.8312	1.062655	13.89312	393.4088
9/22/2014 4:46:09 PM	16:46:09	94	E	9	62	88.57143	45277.71	68	97.14286	34000	1158.555	76.18491	77.46439	14.328	33.97501	410.7	48.41	82.66329	1.289	14.37534	1.649	1	3	1	0.15	5827	132.6001	146.8923	62.198	4.34101	210.3889	176.2852	1.049105	13.71597	388.3923
9/22/2014 4:46:19 PM	16:46:19	104	E	9	63	90	46008	69	97.14286	34000	1158.682	76.31712	77.47296	14.328	33.28	410.52	47.96001	82.61922	1.296	14.37542	1.674999	1	3	1	0.15	5828	132.2002	146.03	62.36301	4.352527	210.2889	176.7304	1.057055	13.81991	391.3355
9/22/2014 4:46:29 PM	16:46:29	114	E	9	62	88.57143	45277.71	68	97.14286	34000	1153.836	76.31712	77.47296	14.328	33.28	410.4749	48.715	82.57515	1.343	14.37462	1.684999	1	3	1	0.15	5823	132.3999	147.0134	62.813	4.383934	210.2639	177.6388	1.058315	13.83638	391.802
9/22/2014 4:46:39 PM	16:46:39	124	E	9	63	88.57143	45277.71	68	97.14286	34000	1153.836	76.40527	77.44727	14.32837	32.875	410.8802	48.22501	82.57515	1.318001	14.37756	1.679001	1	3	1	0.15	5826	131.6001	145.9798	62.53338	4.364304	210.489	177.1456	1.057798	13.82962	391.6106
9/22/2014 4:46:49 PM	16:46:49	134	E	9	62	88.57143	45277.71	68	98.57143	34500	1152.56	76.62562	77.43021	14.328	32.84	411.0152	48.36	82.57515	1.347	14.3774	1.690001	1	3	1	0.15	5824	131.6001	146.3732	62.493	4.361599	210.564	177.2524	1.062194	13.88709	393.2379
9/22/2014 4:47:42 PM	16:47:42	0	E	9	62	88.57143	45277.71	68	97.14286	34000	1155.621	77.24261	77.38745	14.328	32.46001	411.4655	47.82001	82.48701	1.267	14.37466	1.648001	1	3	1	0.15	5835	131	145.983	61.918	4.321468	210.8141	176.6026	1.04924	13.71773	388.4423
9/22/2014 4:47:52 PM	16:47:52	0	E	9	62	88.57143	45277.71	68	97.14286	34000	1155.961	77.28667	77.396	14.32875	32.675	411.0602	47.955	82.48701	1.295	14.37508	1.643999	1	3	1	0.15	5824	131.3999	147.2601	62.24875	4.344325	210.589	177.3058	1.048304	13.7055	388.096
9/22/2014 4:48:02 PM	16:48:02	0	E	9	62	88.57143	45277.71	68	97.14286	34000	1156.004	77.28667	77.38745	14.328	32.72501	411.0152	47.95	82.57515	1.222	14.37509	1.645	1	3	1	0.15	5828	131.2002	145.5862	61.968	4.324958	210.564	176.7414	1.048539	13.70857	388.1828
9/22/2014 4:48:12 PM	16:48:12	0	E	9	62	88.57143	45277.71	69	98.57143	34500	1157.747	76.89004	77.38745	14.328	32.72501	410.565	48.045	82.39887	1.341999	14.3774	1.677	1	3	1	0.15	5823	131.6001	146.1261	62.793	4.382537	210.3139	178.0804	1.059852	13.85648	392.3712
9/22/2014 4:48:22 PM	16:48:22	0	E	9	62	90	46008	68	97.14286	34000	1154.048	77.28667	77.37888	14.32875	32.78999	410.2498	48.645	82.57515	1.309999	14.38003	1.690001	1	3	1	0.15	5821	133	146.9629	62.91875	4.391085	210.1388	178.6608	1.062908	13.89643	393.5023
9/22/2014 4:48:32 PM	16:48:32	0	E	9	62	88.57143	45277.71	68	97.14286	34000	1158.555	77.41888	77.40457	14.32837	32.855	410.7901	47.815	82.61922	1.365	14.37698	1.653999	1	3	1	0.15	5827	131.3999	145.5612	62.42838	4.356976	210.4389	177.7844	1.052375	13.75873	389.6031
9/22/2014 4:48:42 PM	16:48:42	0	E	9	63	90	46008	68	98.57143	34500	1161.701	77.68331	77.40457	14.32837	32.855	410.8351	47.97501	82.53108	1.362	14.37864	1.67	1	3	1	0.15	5822	132.7998	146.9881	62.72338	4.377564	210.464	178.6036	1.056619	13.81421	391.1743
9/22/2014 4:48:52 PM	16:48:52	0	E	9	62	88.57143	45277.71	68	97.14286	34000	1163.486	77.81553	77.40457	14.32837	32.88	411.1503	47.735	82.57515	1.309	14.37611	1.667	1	3	1	0.15	5834	130.6001	145.0695	62.32337	4.349647	210.6391	177.9043	1.05554	13.80011	390.7748
9/22/2014 4:49:02 PM	16:49:02	10	E	10	63	90	46008	68	97.14286	34000	1166.292	77.94774	77.40457	14.32837	32.88	411.2854	48.11501	82.57515	1.33	14.37763	1.671	1	3	1	0.15	5836	130.7998	145.1192	62.22837	4.343017	210.7141	177.8222	1.06032	13.86259	392.5442
9/22/2014 4:49:12 PM	16:49:12	20	E	10	63	90	46008	68	97.14286	34000	1164.762	78.47659	77.43021	14.32875	33.13499	411.5105	48.64	82.53108	1.399	14.37913	1.673	1	3	1	0.15	5827	131.2002	145.7828	62.82375	4.384454	210.8392	179.4702	1.056634	13.8144	391.1796
9/22/2014 4:49:22 PM	16:49:22	30	E	10	62	88.57143	45277.71	68	98.57143	34500	1161.701	78.38844	77.43021	14.32875	33.2	411.7356	47.845	82.75143	1.274	14.37674	1.65	1	3	1	0.15	5824	132.2002	146.1512	62.71875	4.377127	210.9642	179.1837	1.052543	13.76092	389.6652
9/22/2014 4:49:32 PM	16:49:32	40	E	10	62	88.57143	45277.71	68	97.14286	34000	1157.62	78.21216	77.43021	14.32875	33.2	411.8257	48.13499	82.70737	1.302	14.37815	1.663	1	3	1	0.15	5822	132.3999	146.7662	62.09875	4.333858	211.0143	177.7769	1.054233	13.78302	390.2909
9/22/2014 4:49:42 PM	16:49:42	50	E	10	63	88.57143	45277.71	69	97.14286	34000	1162.083	78.21216	77.44727	14.32837	32.995	411.5105	48.2	82.66329	1.344	14.37449	1.643999	1	3	1	0.15	5831	131.7998	145.6611	62.30837	4.3486	210.8392	178.2067	1.048122	13.70313	388.0286
9/22/2014 4:49:52 PM	16:49:52	60	E	10	62	90	46008	68	97.14286	34000	1159.915	77.81553	77.46439	14.32875	32.845	411.1503	47.41	82.70737	1.287001	14.37685	1.658001	1	3	1	0.15	5825	132.2002	146.8418	62.56375	4.36631	210.6391	178.3885	1.047838	13.6994	387.9232
9/22/2014 4:50:02 PM	16:50:02	70	E	10	63	90	46008	69	97.14286	34000	1155.069	77.41888	77.46439	14.32875	32.71001	410.9702	48.105	82.66329	1.261	14.37555	1.639999	1	3	1	0.15	5828	131.2002	145.8078	62.44376	4.357935	210.539	177.8123	1.04912	13.71616	388.3979
9/22/2014 4:50:12 PM	16:50:12	80	E	10	62	88.57143	45277.71	68	97.14286	34000	1156.727	77.59517	77.46439	14.32875	32.71001	410.8802	47.13499	82.70737	1.299	14.37566	1.639999	1	3	1	0.15	5835	130.2002	144.872	61.98875	4.32618	210.489	177.0356	1.046853	13.68653	387.5587
9/22/2014 4:50:22 PM	16:50:22	90	E	10	63	90	46008	69	97.14286	34000	1153.623	77.24261	77.4986	14.32837	32.825	410.7451	48.235	82.70737	1.305	14.37662	1.646	1	3	1	0.15	5827	131	145.117	62.25837	4.34511	210.4139	177.2916	1.048788	13.71183	388.275
9/22/2014 4:50:32 PM	16:50:32	100	E	10	62	88.57143	45277.71	68	97.14286	34000	1159.235	77.59517	77.4986	14.32837	32.825	410.7451	48.395	82.70737	1.233999	14.37565	1.674	1	3	1	0.15	5822	132.6001	146.9881	63.22837	4.412808	210.4139	179.5469	1.057588	13.82688	391.5329
9/22/2014 4:50:42 PM	16:50:42	110	E	10	62	88.57143	45277.71	68	97.14286	34000	1154.261	77.59517	77.4986	14.32875	32.845	411.6906	48.16499	82.70737	1.368	14.37345	1.649	1	3	1	0.15	5821	132.3999	147.4061	62.23375	4.343279	210.9392	177.5341	1.049629	13.72282	388.5863
9/22/2014 4:50:52 PM	16:50:52	120	E	10	62	88.57143	45277.71	68	97.14286	34000	1153.113	77.5511	77.50717	14.32875	32.97	411.5105	48.37	82.7955	1.287001	14.3762	1.664	1	3	1	0.15	5822	133.2002	147.8747	62.85875	4.386898	210.8392	178.7624	1.05627	13.80965	391.045
9/22/2014 4:51:02 PM	16:51:02	130	E	10	62	88.57143	45277.71	68	97.14286	34000	1156.557	77.59517	77.53281	14.32837	32.705	411.2404	47.845	82.70737	1.249001	14.37395	1.646	1	3	1	0.15	5826	132.3999	146.867	62.11837	4.33534	210.6891	177.3028	1.048389	13.70661	388.1274
9/22/2014 4:56:43 PM	16:56:43	0	E	10	54	77.14286	39435.43	45	65.71429	23000	1035.591	76.40527	77.41312	14.32837	32.37	316.0443	33.795	82.17851	0.7679996	14.35555	1.073	1	3	1	0.15	3910	96.2002	71.46841	48.12838	3.358956	157.8024	145.2516	0.8472422	11.07682	313.6601
9/22/2014 4:56:53 PM	16:56:53	0	E	10	54	77.14286	39435.43	45	64.28571	22500	1036.351	76.58155	77.42163	14.32763	32.11501	315.5518	33.23	82.22259	0.8080006	14.35639	1.073	1	3	1	0.15	3911	95	70.74205	47.78263	3.335	157.5288	144.5495	0.8472199	11.07653	313.6519
9/22/2014 4:57:03 PM	16:57:03	8	F	11	54	77.14286	39435.43	45	65.71429	23000	1036.478	76.40527	77.42163	14.32763	32.11501	314.8802	33.41	82.22259	0.7080002	14.3569	1.080999	1	3	1	0.15	3910	95.7998	71.46841	47.56263	3.319645	157.1557	143.8719	0.8503889	11.11796	314.8251
9/22/2014 4:57:13 PM	16:57:13	18	F	11	55	78.57143	40165.71	46	64.28571	22500	1036.309	76.66969	77.38745	14.32725	32.145	314.2982	33.33501	82.31072	0.7679996	14.35547	1.075001	1	3	1	0.15	3899	96.6001	71.8611	47.71224	3.330175	156.8323	144.4485	0.8475229	11.08049	313.7641
9/22/2014 4:57:23 PM	16:57:23	28	F	11	54	77.14286	39435.43	45	64.28571	22500	1036.689	76.8019	77.40457	14.32763	32.32001	313.8056	33.52499	82.3548	0.7199993	14.35683	1.084999	1	3	1	0.15	3901	98	72.49239	47.96762	3.347912	156.6333	145.1745	0.849091	11.10099	314.3446
9/22/2014 4:57:33 PM	16:57:33	38	F	11	54	77.14286	39435.43	46	65.71429	23000	1036.563	76.53748	77.40457	14.32725	32.50999	313.4026	33.5	82.22259	0.7779999	14.35472	1.082001	1	3	1	0.15	3904	97.3999	72.25088	47.65725	3.326336	156.3348	144.2105	0.8507242	11.12235	314.9492
9/22/2014 4:57:43 PM	16:57:43	48	F	11	54	77.14286	39435.43	46	65.71429	23000	1033.647	76.8019	77.40457	14.32725	32.50999	312.8206	33.56	82.17851	0.8069992	14.35435	1.083	1	3	1	0.15	3902	96.3999	71.76804	47.51225	3.316215	156.0114	144.0594	0.8511276	11.12762	315.0986
9/22/2014 4:57:53 PM	16:57:53	58	F	11	54	77.14286	39435.43	45	64.28571	22500	1036.647	76.66969	77.396	14.32725	32.64999	312.5072	33.58501	82.13445	0.7399998	14.35421	1.103001	1	3	1	0.15	3905	95.7998	71.37704	47.64225	3.325289	155.8373	144.2765	0.8531098	11.15353	315.8324
9/22/2014 4:58:03 PM	16:58:03	68	F	11	54	77.14286	39435.43	45	64.28571	22500	1032.971	76.4934	77.396	14.32725	32.64999	312.2385	33.41499	82.26665	0.7740002	14.35674	1.099001	1	3	1	0.15	3902	96	71.3222	47.67725	3.327733	155.6881	144.2253	0.8573902	11.2095	317.4171
9/22/2014 4:58:13 PM	16:58:13	78	F	11	55	77.14286	39435.43	45	64.28571	22500	1039.309	76.53748	77.37888	14.32725	32.755	311.9251	33.10001	82.22259	0.7490005	14.35562	1.087999	1	3	1	0.15	3915	96.2002	71.85791	47.89725	3.343088	155.514	144.7991	0.8530991	11.15339	315.8284
9/22/2014 4:58:23 PM	16:58:23	88	F	11	54	77.14286	39435.43	45	64.28571	22500	1036.013	76.4934	77.37888	14.32725	32.645	311.3878	33.02	82.22259	0.7870007	14.35414	1.089001	1	3	1	0.15	3907	96.3999	71.71107	48.12725	3.359141	155.2155	145.3268	0.8534306	11.15773	315.9512
9/22/2014 4:58:33 PM	16:58:33	98	F	11	54	77.14286	39435.43	45	64.28571	22500	1036.52	76.31712	77.35324	14.32725	32.37	311.1639	33.42	82.26665	0.7789993	14.35327	1.097	1	3	1	0.15	3909	97	72.04542	47.32725	3.303303	155.0911	143.2264	0.8572811	11.20807	317.3767
9/22/2014 4:58:43 PM	16:58:43	108	F	11	54	77.14286	39435.43	46	64.28571	22500	1034.239	76.27305	77.35324	14.32725	32.37	311.0296	33.625	82.13445	0.7950001	14.35508	1.094999	1	3	1	0.15	3909	96.7998	72.19441	47.77724	3.334712	155.0164	144.2991	0.8558754	11.18969	316.8563
9/22/2014 4:58:53 PM	16:58:53	118	F	11	54	77.14286	39435.43	45	64.28571	22500	1036.351	76.18491	77.34473	14.328	32.17	310.761	33.41499	82.13445	0.802	14.35792	1.098	1	3	1	0.15	3905	96.3999	71.52588	47.353	3.304927	154.8672	143.1811	0.8571336	11.20614	317.3221
9/22/2014 4:59:03 PM	16:59:03	128	F	11	54	77.14286	39435.43	46	64.28571	22500	1038.253	76.66969	77.34473	14.328	32.17	310.761	33.515	82.26665	0.7469997	14.35399	1.108999	1	3	1	0.15	3906	96	71.39531	47.91301	3.344012	154.8672	144.9346	0.8611894	11.25917	318.8236
9/22/2014 4:59:50 PM	16:59:50	0	F	11	54	77.14286	39435.43	46	65.71429	23000	1035.295	77.02225	77.28485	14.32763	33.045	310.0446	33.53	82.17851	0.7889996	14.356	1.086	1	3	1	0.15	3909	96.7998	71.89678	47.78763	3.335349	154.4692	144.905	0.8523512	11.14362	315.5516
9/22/2014 5:00:00 PM	17:00:00	0	F	11	54	77.14286	39435.43	46	65.71429	23000	1036.647	77.19853	77.28485	14.32763	33.045	310.1789	33.38	82.3548	0.7670002	14.35589	1.108999	1	3	1	0.15	3907	95	70.81862	48.20263	3.364314	154.5438	146.0581	0.8619413	11.269	319.102
9/22/2014 5:00:10 PM	17:00:10	0	F	11	54	78.57143	40165.71	45	64.28571	22500	1038.802	77.02225	77.26776	14.32687	32.98	310.1341	33.375	82.31072	0.7339993	14.35644	1.106001	1	3	1	0.15	3900	96.3999	71.4343	47.81688	3.337565	154.519	144.983	0.8577254	11.21388	317.5412
9/22/2014 5:00:20 PM	17:00:20	0	F	11	54	77.14286	39435.43	46	65.71429	23000	1034.492	76.89004	77.25919	14.32763	33.075	309.8655	33.50999	82.17851	0.8059998	14.35509	1.1	1	3	1	0.15	3909	96.2002	71.59914	47.87763	3.34163	154.3697	145.0228	0.8578039	11.21491	317.5702
9/22/2014 5:00:30 PM	17:00:30	0	F	11	54	77.14286	39435.43	45	65.71429	23000	1037.661	76.62562	77.25919	14.32763	33.075	309.7759	33.645	82.22259	0.7800007	14.35646	1.106001	1	3	1	0.15	3906	97	72.2879	47.92263	3.344771	154.32	144.9269	0.860118	11.24516	318.4269
9/22/2014 5:00:40 PM	17:00:40	0	F	11	54	77.14286	39435.43	46	64.28571	22500	1037.534	76.75783	77.25064	14.32687	32.96001	309.5521	33.215	82.13445	0.7709999	14.35459	1.094999	1	3	1	0.15	3907	95	70.66969	47.51688	3.316626	154.1956	144.0396	0.8558746	11.18968	316.856
9/22/2014 5:00:50 PM	17:00:50	2	F	12	55	77.14286	39435.43	46	65.71429	23000	1036.394	76.84597	77.23355	14.32725	33.11	309.5521	33.345	82.26665	0.7770004	14.35493	1.101999	1	3	1	0.15	3897	95.6001	70.93407	47.99725	3.350067	154.1956	145.2843	0.8615994	11.26453	318.9754
9/22/2014 5:01:00 PM	17:01:00	12	F	12	54	77.14286	39435.43	45	64.28571	22500	1039.055	76.71376	77.23355	14.32725	33.11	309.6864	33.44	82.26665	0.8099995	14.35616	1.106001	1	3	1	0.15	3908	97	72.32491	47.92225	3.344832	154.2702	144.9978	0.8585379	11.2245	317.8419
9/22/2014 5:01:10 PM	17:01:10	22	F	12	54	77.14286	39435.43	46	65.71429	23000	1041.421	77.15446	77.21643	14.32725	33.235	309.5521	33.53999	82.31072	0.8369999	14.35327	1.087999	1	3	1	0.15	3902	96.3999	71.9164	47.48225	3.314121	154.1956	144.2596	0.8494285	11.10541	314.4696
9/22/2014 5:01:20 PM	17:01:20	32	F	12	54	77.14286	39435.43	46	65.71429	23000	1040.914	76.84597	77.22501	14.32763	33.42999	309.5521	33.30499	82.26665	0.7639999	14.35643	1.108999	1	3	1	0.15	3912	97	72.24982	47.88762	3.342328	154.1956	145.0129	0.8562086	11.19405	316.9796
9/22/2014 5:01:30 PM	17:01:30	42	F	12	54	77.14286	39435.43	46	65.71429	23000	1038.253	76.97818	77.22501	14.32763	33.42999	309.5968	33.565	82.44294	0.7749996	14.35632	1.099001	1	3	1	0.15	3915	96.3999	71.85791	47.69263	3.328718	154.2205	144.6374	0.8572251	11.20734	317.3559
9/22/2014 5:01:40 PM	17:01:40	52	F	12	55	78.57143	40165.71	46	64.28571	22500	1038.506	77.02225	77.24207	14.32687	33.48	309.4177	33.435	82.26665	0.7290001	14.35521	1.103001	1	3	1	0.15	3912	95.7998	71.35586	47.95187	3.346988	154.121	145.3139	0.8565457	11.19846	317.1044
9/22/2014 5:01:50 PM	17:01:50	62	F	12	54	77.14286	39435.43	46	65.71429	23000	1035.464	76.58155	77.23355	14.3265	33.375	309.373	33.55	82.22259	0.8220005	14.35397	1.108999	1	3	1	0.15	3921	96.2002	71.81894	47.4665	3.313196	154.0961	143.7815	0.8612225	11.2596	318.8358
9/22/2014 5:02:00 PM	17:02:00	72	F	12	54	77.14286	39435.43	46	65.71429	23000	1035.591	76.97818	77.23355	14.3265	33.375	309.2834	33.395	82.26665	0.7709999	14.35444	1.111	1	3	1	0.15	3921	95.7998	71.52003	48.05151	3.35403	154.0464	145.5263	0.8619511	11.26913	319.1056
9/22/2014 5:02:10 PM	17:02:10	82	F	12	55	77.14286	39435.43	45	64.28571	22500	1038.21	76.71376	77.22501	14.32763	33.06	309.5521	33.345	82.26665	0.7830009	14.35375	1.115999	1	3	1	0.15	3926	96.3999	71.91052	47.79763	3.336047	154.1956	144.6893	0.8638586	11.29407	319.8118
9/22/2014 5:02:20 PM	17:02:20	92	F	12	54	77.14286	39435.43	46	65.71429	23000	1035.675	76.22898	77.23355	14.32725	32.92999	309.7759	33.58	82.09038	0.8369999	14.35656	1.115999	1	3	1	0.15	3938	96.3999	72.43017	48.14725	3.360537	154.32	145.1693	0.8621822	11.27215	319.1911
9/22/2014 5:02:30 PM	17:02:30	102	F	12	54	77.14286	39435.43	46	65.71429	23000	1036.182	76.44933	77.23355	14.32725	32.92999	309.6416	33.64999	82.22259	0.8330002	14.35558	1.117001	1	3	1	0.15	3940	96.3999	72.31676	47.55724	3.319356	154.2453	143.896	0.8658816	11.32051	320.5607
9/22/2014 5:02:40 PM	17:02:40	112	F	12	54	77.14286	39435.43	46	65.71429	23000	1037.196	76.40527	77.20792	14.32725	32.855	310.0446	33.45	82.22259	0.7830009	14.35616	1.122	1	3	1	0.15	3934	97	72.50618	48.03225	3.35251	154.4692	145.0262	0.8662913	11.32587	320.7124
9/22/2014 5:02:50 PM	17:02:50	122	F	12	55	78.57143	40165.71	46	65.71429	23000	1038.337	76.44933	77.20792	14.32688	32.72501	309.6864	34.07001	82.26665	0.7859993	14.35806	1.125999	1	3	1	0.15	3928	97.3999	72.84441	48.03188	3.352571	154.2702	145.0627	0.8686262	11.3564	321.5768
9/22/2014 5:03:00 PM	17:03:00	132	F	12	54	77.14286	39435.43	46	65.71429	23000	1038.464	76.14084	77.20792	14.32688	32.72501	309.9103	33.845	82.22259	0.7980003	14.35319	1.113001	1	3	1	0.15	3943	96.7998	72.67206	47.97188	3.348384	154.3946	144.6755	0.8619745	11.26943	319.1143
9/22/2014 5:03:27 PM	17:03:27	0	F	12	54	77.14286	39435.43	46	65.71429	23000	1033.901	75.78828	77.17368	14.32688	32.66	309.7759	33.465	82.22259	0.7759991	14.35528	1.118999	1	3	1	0.15	3930	97	72.73206	47.92688	3.345243	154.32	144.2907	0.8651275	11.31065	320.2815
9/22/2014 5:03:37 PM	17:03:37	0	F	12	55	78.57143	40165.71	46	65.71429	23000	1035.506	75.7442	77.15659	14.3265	32.575	309.4625	33.72	82.0463	0.8209991	14.35393	1.121	1	3	1	0.15	3943	97.3999	73.12258	48.0165	3.351586	154.1459	144.4782	0.8648335	11.30681	320.1727
9/22/2014 5:03:47 PM	17:03:47	0	F	12	54	78.57143	40165.71	46	65.71429	23000	1034.239	75.56792	77.15659	14.3265	32.575	309.8207	33.495	82.26665	0.6940002	14.35411	1.125999	1	3	1	0.15	3934	96.7998	72.35659	47.7315	3.331693	154.3448	143.6439	0.8638785	11.29432	319.8191
9/22/2014 5:03:57 PM	17:03:57	0	F	12	54	77.14286	39435.43	46	65.71429	23000	1036.267	75.38869	77.13095	14.32725	32.58501	309.6864	34.03	82.13445	0.7660007	14.35612	1.129	1	3	1	0.15	3940	96.6001	72.31676	47.95225	3.346926	154.2702	144.038	0.8690601	11.36207	321.7374
9/22/2014 5:04:07 PM	17:04:07	0	F	12	54	78.57143	40165.71	46	65.71429	23000	1033.351	75.7442	77.13953	14.32725	32.63499	309.1938	33.795	82.0463	0.8169994	14.35576	1.115999	1	3	1	0.15	3938	97	72.5799	47.84225	3.339248	153.9966	144.0462	0.8641205	11.29749	319.9087
9/22/2014 5:04:17 PM	17:04:17	0	F	12	54	77.14286	39435.43	46	65.71429	23000	1035.464	75.87642	77.13953	14.32725	32.63499	309.3282	33.485	82.17851	0.7910004	14.35714	1.131001	1	3	1	0.15	3932	97.7998	73.06847	47.91724	3.344483	154.0712	144.3327	0.8698076	11.37184	322.0142
9/22/2014 5:04:27 PM	17:04:27	0	F	12	54	77.14286	39435.43	46	65.71429	23000	1033.563	75.65607	77.12241	14.32687	32.64	309.2386	33.63	81.95816	0.7830009	14.35712	1.121	1	3	1	0.15	3934	97	72.80608	47.85187	3.340008	154.0215	144.0042	0.8599804	11.24336	318.376
9/22/2014 5:04:37 PM	17:04:37	0	F	12	54	77.14286	39435.43	46	65.71429	23000	1034.45	75.87642	77.09677	14.32688	32.71001	309.0148	33.69501	82.13445	0.7460003	14.35499	1.128	1	3	1	0.15	3928	96.2002	72.09651	47.79688	3.336169	153.8971	144.0413	0.8674685	11.34126	321.1482
9/22/2014 5:04:47 PM	17:04:47	0	F	12	54	77.14286	39435.43	47	67.14285	23500	1033.985	75.87642	77.09677	14.32688	32.71001	309.0595	33.46001	82.0463	0.7999992	14.35676	1.118999	1	3	1	0.15	3934	97	72.50618	47.85687	3.340357	153.922	144.1882	0.8656741	11.3178	320.4839
9/22/2014 5:04:57 PM	17:04:57	0	F	12	54	77.14286	39435.43	45	65.71429	23000	1035.084	76.22898	77.0882	14.3265	32.72501	308.6566	33.745	82.0463	0.8220005	14.35585	1.105	1	3	1	0.15	3923	96.7998	72.30344	47.8565	3.340418	153.6981	144.4651	0.85987	11.24192	318.3351
9/22/2014 5:05:07 PM	17:05:07	1	F	13	54	77.14286	39435.43	46	65.71429	23000	1034.746	76.36119	77.06256	14.32687	32.565	308.7461	33.685	82.00224	0.7849998	14.35575	1.111	1	3	1	0.15	3922	97	72.43451	47.69188	3.32884	153.7478	144.1613	0.8656722	11.31778	320.4832
9/22/2014 5:05:17 PM	17:05:17	11	F	13	54	77.14286	39435.43	46	65.71429	23000	1033.689	76.40527	77.06256	14.32687	32.565	308.4775	33.905	81.87003	0.7940006	14.35495	1.120001	1	3	1	0.15	3923	96.7998	72.45298	47.69687	3.329189	153.5986	144.2079	0.8657636	11.31897	320.517
9/22/2014 5:05:27 PM	17:05:27	21	F	13	54	77.14286	39435.43	46	65.71429	23000	1034.83	76.58155	77.03687	14.3265	32.655	308.3431	33.155	82.00224	0.7940006	14.35382	1.120001	1	3	1	0.15	3914	96.7998	72.13757	47.78651	3.335532	153.524	144.5682	0.8656231	11.31713	320.465
9/22/2014 5:05:37 PM	17:05:37	31	F	13	55	77.14286	39435.43	46	65.71429	23000	1036.478	76.44933	77.01981	14.3265	32.73	308.4775	33.35001	81.87003	0.809	14.35299	1.122999	1	3	1	0.15	3918	96.7998	72.2113	48.14651	3.360661	153.5986	145.3456	0.8668764	11.33352	320.929
9/22/2014 5:05:47 PM	17:05:47	41	F	13	54	77.14286	39435.43	46	65.71429	23000	1033.309	76.44933	77.01981	14.3265	32.73	308.2536	33.37	81.91409	0.7320004	14.35465	1.113001	1	3	1	0.15	3922	96.3999	71.98639	47.78651	3.335532	153.4742	144.4652	0.8630301	11.28323	319.505
9/22/2014 5:05:57 PM	17:05:57	51	F	13	54	77.14286	39435.43	46	65.71429	23000	1033.647	76.58155	77.00272	14.3265	32.735	308.2088	33.55499	81.87003	0.8040009	14.35707	1.115999	1	3	1	0.15	3922	97.2002	72.43451	47.75649	3.333437	153.4493	144.4946	0.8654436	11.31479	320.3985
9/22/2014 5:06:07 PM	17:06:07	61	F	13	54	77.14286	39435.43	46	65.71429	23000	1034.408	76.58155	76.9856	14.32688	32.765	308.0297	33.64	81.82595	0.8409996	14.3564	1.121	1	3	1	0.15	3914	97.2002	72.43594	47.44687	3.311739	153.3499	143.73	0.8631413	11.28469	319.5462
9/22/2014 5:06:17 PM	17:06:17	71	F	13	54	77.14286	39435.43	46	65.71429	23000	1035.295	76.58155	76.9856	14.32688	32.765	308.2088	33.61501	81.87003	0.7849998	14.35712	1.115	1	3	1	0.15	3925	96	71.74259	48.11188	3.358155	153.4493	145.3612	0.8646863	11.30488	320.1182
9/22/2014 5:06:27 PM	17:06:27	81	F	13	55	78.57143	40165.71	46	64.28571	22500	1032.506	76.58155	76.95139	14.3265	32.83501	307.8954	33.36	81.82595	0.7709999	14.35617	1.117001	1	3	1	0.15	3915	97	72.156	48.0965	3.357171	153.2752	145.3268	0.8646958	11.30501	320.1217
9/22/2014 5:06:37 PM	17:06:37	91	F	13	54	77.14286	39435.43	46	65.71429	23000	1034.535	76.36119	76.92575	14.32575	32.88499	308.0297	33.175	81.82595	0.7770004	14.35253	1.117001	1	3	1	0.15	3917	96.2002	71.74567	47.89075	3.342984	153.3499	144.6581	0.8645717	11.30339	320.0757
9/22/2014 5:06:47 PM	17:06:47	101	F	13	54	77.14286	39435.43	46	65.71429	23000	1034.661	76.53748	76.92575	14.32575	32.88499	308.2088	33.64999	81.87003	0.8080006	14.35239	1.117001	1	3	1	0.15	3921	96.7998	72.26659	48.17075	3.362529	153.4493	145.4797	0.8626096	11.27773	319.3494
9/22/2014 5:06:57 PM	17:06:57	111	F	13	54	77.14286	39435.43	46	65.71429	23000	1035.168	76.62562	76.90009	14.32613	33.325	308.0297	33.28	81.82595	0.7339993	14.3541	1.125	1	3	1	0.15	3919	97.3999	72.52848	47.61113	3.323378	153.3499	144.1749	0.8677152	11.34449	321.2395
9/22/2014 5:07:07 PM	17:07:07	121	F	13	54	77.14286	39435.43	46	65.71429	23000	1034.915	76.53748	76.89157	14.32613	33.575	308.164	33.50999	81.82595	0.7350006	14.35804	1.122999	1	3	1	0.15	3907	97.7998	72.75245	47.91612	3.344667	153.4245	144.8546	0.8689651	11.36083	321.7023
9/22/2014 5:07:17 PM	17:07:17	131	F	13	54	77.14286	39435.43	46	65.71429	23000	1035.76	76.66969	76.89157	14.32613	33.575	308.2088	34.05499	81.87003	0.8309994	14.35478	1.121	1	3	1	0.15	3916	96.2002	71.72736	47.41612	3.309766	153.4493	143.7289	0.8661647	11.32421	320.6655
9/22/2014 5:09:05 PM	17:09:05	0	F	13	51	72.85714	37244.57	39	55.71429	19500	1010.747	77.37482	76.83167	14.32537	33.86501	287.9708	27.69501	82.17851	0.5790005	14.34684	0.8859997	1	3	1	0.15	3293	81.7998	51.41286	42.40037	2.959809	142.206	131.3915	0.7672552	10.03107	284.0479
9/22/2014 5:09:15 PM	17:09:15	0	F	13	51	72.85714	37244.57	38	54.28572	19000	1008.677	77.06632	76.83167	14.32537	33.86501	287.2544	27.875	81.87003	0.5400009	14.34655	0.8889999	1	3	1	0.15	3299	81.2002	50.87841	42.50038	2.96679	141.808	131.4265	0.7739624	10.11876	286.531
9/22/2014 5:09:25 PM	17:09:25	3	G	14	51	72.85714	37244.57	39	54.28572	19000	1010.578	77.59517	76.82315	14.32613	34.02499	286.9409	28.28	81.95816	0.6100006	14.34795	0.8950005	1	3	1	0.15	3293	81.7998	51.16213	42.41612	2.960753	141.6339	131.5938	0.7726086	10.10106	286.0298
9/22/2014 5:09:35 PM	17:09:35	13	G	14	51	72.85714	37244.57	39	54.28572	19000	1009.184	77.41888	76.84879	14.3265	34.175	286.538	28.25	81.95816	0.5970001	14.34865	0.8990002	1	3	1	0.15	3303	82	51.44309	42.3465	2.955817	141.41	131.2715	0.7782292	10.17455	288.1106
9/22/2014 5:09:45 PM	17:09:45	23	G	14	51	72.85714	37244.57	38	54.28572	19000	1009.564	77.46296	76.84879	14.3265	34.175	286.1798	27.95	82.00224	0.5580006	14.34645	0.8910007	1	3	1	0.15	3300	81.6001	51.39636	42.6815	2.979199	141.211	132.1999	0.7721124	10.09458	285.8461
9/22/2014 5:09:55 PM	17:09:55	33	G	14	51	72.85714	37244.57	38	54.28572	19000	1008.423	77.19853	76.84024	14.32575	34.21001	285.7321	28.285	82.09038	0.5900002	14.34881	0.8999996	1	3	1	0.15	3312	81.6001	51.58326	42.75574	2.984538	140.9623	132.2039	0.7811527	10.21277	289.193
9/22/2014 5:10:05 PM	17:10:05	43	G	14	51	72.85714	37244.57	38	54.28572	19000	1011.212	77.06632	76.883	14.32613	34.37	285.4634	28.205	81.95816	0.6060009	14.34589	0.8899994	1	3	1	0.15	3310	81.6001	51.55211	42.43112	2.9618	140.813	131.2354	0.7708241	10.07773	285.3692
9/22/2014 5:10:15 PM	17:10:15	53	G	14	51	72.85714	37244.57	39	55.71429	19500	1010.156	77.46296	76.883	14.32613	34.37	285.2395	28.11	82.13445	0.5450001	14.34767	0.8889999	1	3	1	0.15	3311	81.6001	51.56769	42.19612	2.945396	140.6886	130.9042	0.7711979	10.08262	285.5075
9/22/2014 5:10:25 PM	17:10:25	63	G	14	51	72.85714	37244.57	39	55.71429	19500	1010.409	77.5511	76.87445	14.32613	34.47501	285.1948	28.10001	82.00224	0.6459999	14.34882	0.8990002	1	3	1	0.15	3308	81.2002	51.1433	42.60112	2.973666	140.6638	132.055	0.7743421	10.12373	286.6716
9/22/2014 5:10:35 PM	17:10:35	73	G	14	51	72.85714	37244.57	39	54.28572	19000	1010.789	77.68331	76.883	14.32612	34.425	285.3291	28.285	81.95816	0.5909996	14.34723	0.9080009	1	3	1	0.15	3316	81.2002	51.26699	42.44612	2.962847	140.7384	131.7404	0.7795019	10.19119	288.5818
9/22/2014 5:10:45 PM	17:10:45	83	G	14	51	72.85714	37244.57	38	54.28572	19000	1011.043	77.72738	76.883	14.32612	34.425	285.1948	28.06	82.09038	0.5680008	14.34535	0.9069996	1	3	1	0.15	3323	82	51.75458	42.87613	2.992863	140.6638	132.9205	0.781463	10.21683	289.3079
9/22/2014 5:10:55 PM	17:10:55	93	G	14	51	72.85714	37244.57	39	54.28572	19000	1013.958	77.46296	76.89157	14.3265	34.39999	285.15	27.91	82.17851	0.6480007	14.34815	0.8969994	1	3	1	0.15	3324	82.2002	52.27665	42.30151	2.952676	140.6389	131.1841	0.7746471	10.12772	286.7845
9/22/2014 5:11:05 PM	17:11:05	103	G	14	51	72.85714	37244.57	39	55.71429	19500	1011.634	77.81553	76.92575	14.32612	34.52499	285.1948	28.2	82.22259	0.5830002	14.34701	0.9109993	1	3	1	0.15	3313	82.7998	52.22963	42.46613	2.964244	140.6638	131.8936	0.7818468	10.22184	289.4499
9/22/2014 5:11:15 PM	17:11:15	113	G	14	51	72.85714	37244.57	39	55.71429	19500	1011.001	77.81553	76.92575	14.32612	34.52499	285.15	28.37	82.31072	0.5639992	14.34531	0.9039993	1	3	1	0.15	3303	81.6001	51.3175	42.41113	2.960405	140.6389	131.7463	0.7757452	10.14207	287.191
9/22/2014 5:11:25 PM	17:11:25	123	G	14	51	72.85714	37244.57	39	55.71429	19500	1010.494	77.59517	76.93433	14.3265	34.495	284.9709	28.07001	82.00224	0.6030006	14.34735	0.9060001	1	3	1	0.15	3314	81.7998	51.4884	42.6115	2.974313	140.5394	132.113	0.7773128	10.16257	287.7714
9/22/2014 5:11:35 PM	17:11:35	133	G	14	51	72.85714	37244.57	39	54.28572	19000	1010.24	78.03587	76.95139	14.3265	34.48	284.9709	28.03999	82.13445	0.5380001	14.34804	0.9120007	1	3	1	0.15	3309	82.3999	51.7888	42.6065	2.973964	140.5394	132.432	0.7789595	10.1841	288.381
9/22/2014 5:11:45 PM	17:11:45	0	G	14	51	72.85714	37244.57	39	55.71429	19500	1011.339	78.21216	76.95139	14.3265	34.48	285.15	28.325	82.31072	0.6389999	14.34829	0.9069996	1	3	1	0.15	3312	81.6001	51.45732	42.89651	2.994207	140.6389	133.338	0.7788192	10.18226	288.329
9/22/2014 5:11:55 PM	17:11:55	0	G	14	51	72.85714	37244.57	39	55.71429	19500	1012.479	77.99181	76.97705	14.32613	34.485	284.9709	28.325	82.13445	0.6329994	14.34644	0.9099998	1	3	1	0.15	3315	82.6001	52.26116	42.48613	2.96564	140.5394	132.08	0.78018	10.20005	288.8328
9/22/2014 5:12:05 PM	17:12:05	0	G	14	51	72.85714	37244.57	39	55.71429	19500	1011.508	77.94774	76.96848	14.3265	34.435	284.9709	28.41499	82.26665	0.6240005	14.34927	0.8939991	1	3	1	0.15	3325	82	51.91247	42.5715	2.971521	140.5394	132.272	0.7780532	10.17225	288.0455
9/22/2014 5:12:15 PM	17:12:15	0	G	14	51	72.85714	37244.57	39	55.71429	19500	1010.325	77.33075	76.96848	14.3265	34.435	285.0157	28.30499	82.31072	0.5650005	14.34688	0.8969994	1	3	1	0.15	3328	82.2002	52.08616	42.7065	2.980945	140.5643	132.1667	0.7766497	10.1539	287.5259
9/22/2014 5:12:25 PM	17:12:25	0	G	14	51	72.85714	37244.57	38	54.28572	19000	1011.719	77.50703	76.99417	14.3265	33.84	284.6575	28.25	82.3548	0.6550007	14.34948	0.9109993	1	3	1	0.15	3317	82.2002	51.91401	42.5715	2.971521	140.3653	131.9397	0.7805364	10.20471	288.9648
9/22/2014 5:12:35 PM	17:12:35	0	G	14	51	72.85714	37244.57	39	54.28572	19000	1011.212	77.50703	76.99417	14.3265	33.72501	284.6575	28.23	82.48701	0.5349998	14.34742	0.9109993	1	3	1	0.15	3313	82.3999	51.97738	42.16151	2.942904	140.3653	130.8413	0.7804087	10.20304	288.9175
9/22/2014 5:12:45 PM	17:12:45	0	G	14	51	72.85714	37244.57	39	55.71429	19500	1011.423	77.37482	76.99417	14.3265	33.72501	284.6575	28.14	82.3548	0.5540009	14.34692	0.8969994	1	3	1	0.15	3310	82.6001	51.93031	42.63149	2.975709	140.3653	132.0001	0.7744621	10.1253	286.716
9/22/2014 5:12:55 PM	17:12:55	4	G	15	51	72.85714	37244.57	38	54.28572	19000	1014.338	78.03587	76.97705	14.3265	33.545	285.1052	28.25999	82.39887	0.5869999	14.35003	0.9069996	1	3	1	0.15	3292	82.2002	51.52273	42.4565	2.963495	140.614	132.0309	0.7779675	10.17113	288.0137
9/22/2014 5:13:05 PM	17:13:05	14	G	15	51	72.85714	37244.57	38	54.28572	19000	1011.592	77.8596	76.99417	14.32688	33.465	285.0604	28.105	82.3548	0.6410007	14.34704	0.8929996	1	3	1	0.15	3311	81.2002	51.31558	42.23187	2.947738	140.5891	131.2926	0.7727472	10.10288	286.0811
9/22/2014 5:13:15 PM	17:13:15	24	G	15	51	72.85714	37244.57	38	54.28572	19000	1011.719	77.8596	76.99417	14.32688	33.465	284.7022	28.33501	82.39887	0.6070004	14.34621	0.8959999	1	3	1	0.15	3310	82.3999	52.05647	42.69188	2.979846	140.3901	132.5239	0.7770134	10.15865	287.6605
9/22/2014 5:13:25 PM	17:13:25	34	G	15	51	72.85714	37244.57	38	54.28572	19000	1011.93	77.72738	76.9856	14.3265	33.39999	284.8365	28.19	82.53108	0.6159992	14.34786	0.9120007	1	3	1	0.15	3322	81.2002	51.23312	42.4665	2.964192	140.4648	131.8252	0.7808013	10.20818	289.0629
9/22/2014 5:13:35 PM	17:13:35	44	G	15	51	72.85714	37244.57	39	55.71429	19500	1012.057	77.41888	76.99417	14.32613	33.22	284.7022	28.185	82.53108	0.6159992	14.34712	0.9069996	1	3	1	0.15	3330	81.6001	51.73698	42.52612	2.968431	140.3901	131.7551	0.7786403	10.17992	288.2628
9/22/2014 5:13:45 PM	17:13:45	54	G	15	51	72.85714	37244.57	39	55.71429	19500	1011.043	77.28667	76.99417	14.32613	33.22	284.5679	27.94501	82.53108	0.6019993	14.34785	0.8990002	1	3	1	0.15	3322	81.7998	51.73901	42.92113	2.996004	140.3155	132.7068	0.7786803	10.18044	288.2776
9/22/2014 5:13:55 PM	17:13:55	64	G	15	51	72.85714	37244.57	39	55.71429	19500	1009.902	77.19853	76.99417	14.32688	33.08	284.2993	27.985	82.53108	0.6329994	14.34874	0.9069996	1	3	1	0.15	3311	82.7998	52.0722	42.67688	2.978799	140.1663	131.985	0.7786895	10.18057	288.2811
9/22/2014 5:14:05 PM	17:14:05	74	G	15	51	72.85714	37244.57	39	55.71429	19500	1009.395	76.66969	76.97705	14.3265	32.99001	284.2545	28.13499	82.3548	0.6149998	14.35017	0.9099998	1	3	1	0.15	3325	82.3999	52.03921	42.1565	2.942554	140.1414	130.1982	0.7801245	10.19933	288.8123
9/22/2014 5:14:15 PM	17:14:15	84	G	15	51	72.85714	37244.57	39	55.71429	19500	1008.888	76.93411	76.97705	14.3265	32.99001	284.0754	28.24001	82.31072	0.6030006	14.3475	0.9090004	1	3	1	0.15	3321	81.2002	51.47057	42.5015	2.966635	140.0419	131.3209	0.7826491	10.23233	289.7469
9/22/2014 5:14:25 PM	17:14:25	94	G	15	51	72.85714	37244.57	39	55.71429	19500	1007.367	76.71376	76.95996	14.3265	32.96001	284.2097	28.25	82.31072	0.5820007	14.34779	0.9090004	1	3	1	0.15	3321	81.7998	51.72343	42.61649	2.974662	140.1165	131.4614	0.779674	10.19344	288.6455
9/22/2014 5:14:35 PM	17:14:35	104	G	15	51	72.85714	37244.57	39	55.71429	19500	1010.536	76.93411	76.95139	14.32613	33.12	284.1202	28.065	82.48701	0.6170006	14.34673	0.9139996	1	3	1	0.15	3307	82.2002	52.0093	42.48112	2.965291	140.0668	131.2695	0.7816457	10.21921	289.3755
9/22/2014 5:14:45 PM	17:14:45	114	G	15	51	72.85714	37244.57	39	55.71429	19500	1010.789	76.93411	76.95139	14.32613	33.12	284.0754	28.11	82.31072	0.6070004	14.34712	0.9169998	1	3	1	0.15	3309	82.2002	51.7888	42.44113	2.962499	140.0419	131.1626	0.7847838	10.26024	290.5373
9/22/2014 5:14:55 PM	17:14:55	124	G	15	51	72.85714	37244.57	40	57.14286	20000	1010.367	76.93411	76.96848	14.3265	33.31	284.1649	28.325	82.31072	0.6310005	14.3471	0.8920002	1	3	1	0.15	3316	81.7998	51.77196	42.4865	2.965589	140.0916	131.2809	0.7723592	10.0978	285.9375
9/22/2014 5:15:05 PM	17:15:05	134	G	15	51	72.85714	37244.57	39	55.71429	19500	1011.55	76.8019	76.95996	14.3265	33.435	283.9858	28.125	82.3548	0.6140003	14.34977	0.9029999	1	3	1	0.15	3321	81.3999	51.47057	42.6415	2.976408	139.9921	131.5945	0.777563	10.16584	287.864
9/22/2014 5:16:36 PM	17:16:36	0	G	15	51	72.85714	37244.57	39	54.28572	19000	1010.494	77.99181	76.97705	14.32688	33.61	284.344	28.21001	82.44294	0.6110001	14.3482	0.9029999	1	3	1	0.15	3304	81.6001	51.33303	42.28188	2.951228	140.1911	131.5265	0.7770168	10.1587	287.6618
9/22/2014 5:16:46 PM	17:16:46	5	G	16	51	72.85714	37244.57	38	54.28572	19000	1012.564	77.41888	76.97705	14.32688	33.61	284.2545	28.14	82.48701	0.5860004	14.34744	0.8889999	1	3	1	0.15	3305	81.7998	51.22259	42.26688	2.950181	140.1414	131.055	0.7709402	10.07925	285.4122
9/22/2014 5:16:56 PM	17:16:56	15	G	16	51	72.85714	37244.57	38	54.28572	19000	1014.169	78.21216	77.01123	14.32612	33.80499	284.3888	27.955	82.61922	0.5470009	14.34698	0.9020004	1	3	1	0.15	3285	81.3999	50.6625	41.83612	2.920268	140.216	130.4962	0.7764398	10.15115	287.4482
9/22/2014 5:17:06 PM	17:17:06	25	G	16	51	72.85714	37244.57	38	54.28572	19000	1014.423	78.65286	77.01123	14.3265	33.855	284.747	27.88	82.57515	0.5470009	14.34656	0.8950005	1	3	1	0.15	3284	80.7998	50.64708	41.71149	2.911492	140.415	130.486	0.773443	10.11197	286.3387
9/22/2014 5:17:16 PM	17:17:16	35	G	16	51	72.85714	37244.57	38	54.28572	19000	1017.212	79.13764	77.01123	14.3265	33.855	285.15	27.875	82.57515	0.5370007	14.34612	0.8899994	1	3	1	0.15	3274	81.6001	50.86693	42.1565	2.942554	140.6389	132.0542	0.77127	10.08356	285.5343
9/22/2014 5:17:26 PM	17:17:26	45	G	16	51	72.85714	37244.57	39	55.71429	19500	1015.691	79.62242	77.02835	14.3265	33.855	285.15	27.795	82.70737	0.5559998	14.34735	0.8920002	1	3	1	0.15	3277	81.6001	50.91354	42.3115	2.953373	140.6389	132.8365	0.7755176	10.1391	287.1068
9/22/2014 5:17:36 PM	17:17:36	55	G	16	51	72.85714	37244.57	38	54.28572	19000	1016.578	79.93092	77.03687	14.3265	33.99001	285.7321	27.83	82.75143	0.6009998	14.34724	0.8869991	1	3	1	0.15	3282	81.2002	50.86612	42.0015	2.931735	140.9623	132.2315	0.7720255	10.09344	285.8139
9/22/2014 5:17:46 PM	17:17:46	65	G	16	51	72.85714	37244.57	39	54.28572	19000	1017.338	80.15127	77.03687	14.3265	33.99001	285.5977	27.855	82.88364	0.5569992	14.34685	0.8840008	1	3	1	0.15	3274	81.7998	50.99142	41.9565	2.928594	140.8876	132.2751	0.767163	10.02987	284.0138
9/22/2014 5:17:56 PM	17:17:56	75	G	16	51	72.85714	37244.57	38	54.28572	19000	1017.845	80.41569	77.05399	14.32612	34.155	286.1798	27.875	83.05993	0.566	14.34589	0.8990002	1	3	1	0.15	3268	81.3999	50.77372	42.06613	2.936323	141.211	132.7738	0.7748027	10.12975	286.8421
9/22/2014 5:18:06 PM	17:18:06	85	G	16	51	72.85714	37244.57	39	55.71429	19500	1016.451	80.1072	77.07965	14.3265	34.21001	285.7768	27.83501	83.104	0.5179996	14.34663	0.8980007	1	3	1	0.15	3276	81.3999	50.77314	42.00649	2.932083	140.9871	132.3775	0.7722128	10.09589	285.8833
9/22/2014 5:18:16 PM	17:18:16	95	G	16	51	72.85714	37244.57	38	54.28572	19000	1016.324	80.28348	77.07965	14.3265	34.21001	285.7768	27.8	83.19214	0.6130009	14.34844	0.8980007	1	3	1	0.15	3271	81	50.57127	42.0715	2.936621	140.9871	132.6859	0.7743528	10.12387	286.6756
9/22/2014 5:18:26 PM	17:18:26	105	G	16	51	72.85714	37244.57	38	54.28572	19000	1016.874	80.41569	77.10529	14.32575	34.22501	285.8664	27.63	83.28028	0.5760002	14.34729	0.8939991	1	3	1	0.15	3276	81.3999	50.77314	42.11575	2.939863	141.0369	132.911	0.7673481	10.03229	284.0823
9/22/2014 5:18:36 PM	17:18:36	115	G	16	51	72.85714	37244.57	38	54.28572	19000	1018.226	80.06313	77.10529	14.32613	34.16499	285.8216	27.69	83.104	0.5470009	14.34868	0.8969994	1	3	1	0.15	3268	81	50.40032	42.02113	2.933182	141.012	132.387	0.7748582	10.13048	286.8626
9/22/2014 5:18:46 PM	17:18:46	125	G	16	51	72.85714	37244.57	38	54.28572	19000	1018.479	80.5479	77.10529	14.32613	34.16499	285.7768	27.84	83.32435	0.6000004	14.34644	0.8939991	1	3	1	0.15	3276	81.3999	50.64857	42.35612	2.956565	140.9871	133.6565	0.7724863	10.09947	285.9845
9/22/2014 5:20:57 PM	17:20:57	0	G	16	51	72.85714	37244.57	38	55.71429	19500	1009.057	76.58155	77.27631	14.32463	33.28999	284.4784	28.175	83.104	0.5869999	14.34718	0.9020004	1	3	1	0.15	3300	82.3999	51.8992	42.39962	2.959911	140.2658	130.7979	0.7773684	10.16329	287.792
9/22/2014 5:21:07 PM	17:21:07	9	G	17	51	72.85714	37244.57	38	54.28572	19000	1011.127	76.53748	77.26776	14.32425	33.14	284.3888	28.23	83.28028	0.6229992	14.3451	0.9020004	1	3	1	0.15	3309	82.2002	51.7888	42.57425	2.97218	140.216	131.2337	0.7759189	10.14434	287.2553
9/22/2014 5:21:17 PM	17:21:17	19	G	17	51	72.85714	37244.57	39	55.71429	19500	1010.874	76.31712	77.26776	14.32425	33.14	284.3888	28.19	83.14807	0.6450005	14.34532	0.8990002	1	3	1	0.15	3306	81.7998	51.48981	42.55424	2.970783	140.216	131.0142	0.7785669	10.17896	288.2357
9/22/2014 5:21:27 PM	17:21:27	29	G	17	51	72.85714	37244.57	39	55.71429	19500	1011.001	76.8019	77.26776	14.32537	33.07001	284.4336	28.12	83.19214	0.5739994	14.34648	0.9039993	1	3	1	0.15	3320	81.6001	51.32883	42.88037	2.993316	140.2409	132.2384	0.775166	10.1345	286.9766
9/22/2014 5:21:37 PM	17:21:37	39	G	17	51	72.85714	37244.57	39	55.71429	19500	1010.24	76.66969	77.25919	14.325	33.16499	284.6575	28.16499	83.14807	0.5510006	14.34647	0.9109993	1	3	1	0.15	3318	82.2002	52.18229	42.575	2.972077	140.3653	131.3295	0.7790543	10.18534	288.4161
9/22/2014 5:21:47 PM	17:21:47	49	G	17	51	72.85714	37244.57	39	55.71429	19500	1011.508	76.62562	77.25919	14.325	33.16499	284.7022	28.325	83.05993	0.6060009	14.34495	0.9020004	1	3	1	0.15	3326	82.6001	52.43458	42.56	2.97103	140.3901	131.2563	0.7760661	10.14627	287.3098
9/22/2014 5:21:57 PM	17:21:57	59	G	17	51	72.85714	37244.57	39	55.71429	19500	1011.043	76.71376	77.25919	14.32463	33.24001	284.6575	28.21001	83.01585	0.6079998	14.34566	0.9039993	1	3	1	0.15	3332	82.3999	52.02176	42.11962	2.940365	140.3653	130.147	0.7769549	10.15789	287.6389
9/22/2014 5:22:07 PM	17:22:07	69	G	17	51	72.85714	37244.57	38	55.71429	19500	1012.691	76.40527	77.25919	14.325	33.255	284.5231	28.095	83.01585	0.6229992	14.34737	0.9069996	1	3	1	0.15	3324	82.6001	52.27665	42.485	2.965794	140.2906	130.8901	0.7783124	10.17564	288.1414
9/22/2014 5:22:17 PM	17:22:17	79	G	17	51	72.85714	37244.57	38	54.28572	19000	1012.944	76.62562	77.25919	14.325	33.255	284.6127	28.015	82.97179	0.6539993	14.34495	0.8980007	1	3	1	0.15	3318	81.2002	51.42407	42.5	2.966841	140.3404	131.0963	0.7744246	10.12481	286.7021
9/22/2014 5:22:27 PM	17:22:27	89	G	17	51	72.85714	37244.57	39	55.71429	19500	1013.747	76.84597	77.24207	14.32463	33.255	284.6127	28.11	83.104	0.6189995	14.34595	0.9060001	1	3	1	0.15	3317	82.6001	52.29269	42.41962	2.961308	140.3404	131.0505	0.7777562	10.16836	287.9355
9/22/2014 5:22:37 PM	17:22:37	99	G	17	51	72.85714	37244.57	38	54.28572	19000	1011.296	76.58155	77.24207	14.32463	33.16499	284.5231	28.38	83.01585	0.6399994	14.34747	0.9130001	1	3	1	0.15	3309	82.7998	52.16657	42.27962	2.951535	140.2906	130.4768	0.7808596	10.20894	289.0845
9/22/2014 5:22:47 PM	17:22:47	109	G	17	51	72.85714	37244.57	39	55.71429	19500	1011.592	76.84597	77.24207	14.32463	33.16499	284.3888	28.14	83.01585	0.6009998	14.34826	0.9190006	1	3	1	0.15	3320	82.3999	52.0872	42.41962	2.961308	140.216	131.0505	0.7821657	10.22601	289.568
9/22/2014 5:22:57 PM	17:22:57	119	G	17	51	72.85714	37244.57	39	55.71429	19500	1011.592	76.89004	77.25064	14.325	32.955	284.6127	28.08501	82.97179	0.6779995	14.34723	0.9080009	1	3	1	0.15	3323	82	51.88124	42.515	2.967889	140.3404	131.3356	0.7804588	10.2037	288.9361
9/22/2014 5:23:07 PM	17:23:07	129	G	17	51	72.85714	37244.57	39	55.71429	19500	1010.325	76.8019	77.24207	14.32463	32.84	284.6575	28.355	83.01585	0.6140003	14.3458	0.9099998	1	3	1	0.15	3321	82.7998	52.48234	42.76463	2.985392	140.3653	131.9369	0.7795328	10.19159	288.5932
9/22/2014 5:26:55 PM	17:26:55	0	G	17	52	74.28571	37974.86	41	58.57143	20500	1022.451	78.3003	77.26776	14.32537	33.30499	294.1944	30.44501	83.104	0.7040005	14.35129	0.9860001	1	3	1	0.15	3563	87.2002	59.15609	44.82537	3.129089	145.6636	138.462	0.8114349	10.60868	300.4039
9/22/2014 5:27:05 PM	17:27:05	6	H	18	53	74.28571	37974.86	41	58.57143	20500	1025.62	78.34438	77.26776	14.32537	33.30499	294.0153	30.19	83.28028	0.6630001	14.34832	0.9939995	1	3	1	0.15	3568	86.7998	58.9671	44.72537	3.122108	145.5641	138.2378	0.8132794	10.63279	301.0867
9/22/2014 5:27:15 PM	17:27:15	16	H	18	53	75.71429	38705.14	42	60	21000	1025.155	77.81553	77.27631	14.32425	33.07001	293.6571	30.02	83.28028	0.7019997	14.35067	0.9939995	1	3	1	0.15	3567	87.6001	59.4941	44.60925	3.114247	145.3651	137.5428	0.8145832	10.64984	301.5694
9/22/2014 5:27:25 PM	17:27:25	26	H	18	52	74.28571	37974.86	42	60	21000	1023.507	77.06632	77.30197	14.32463	33.03999	293.3885	30.175	83.14807	0.6989994	14.34783	0.9810009	1	3	1	0.15	3562	87.7998	59.54615	44.39962	3.099531	145.2158	136.4256	0.809249	10.5801	299.5946
9/22/2014 5:27:35 PM	17:27:35	36	H	18	53	75.71429	38705.14	42	60	21000	1022.746	77.41888	77.31049	14.32425	32.98	293.2542	30.19	83.28028	0.7110004	14.35056	0.9799995	1	3	1	0.15	3563	88	59.56287	44.53925	3.10936	145.1412	137.0589	0.8113023	10.60695	300.3547
9/22/2014 5:27:45 PM	17:27:45	46	H	18	52	74.28571	37974.86	41	60	21000	1022.493	77.02225	77.31049	14.32425	32.98	293.1198	30.13	83.14807	0.7049999	14.34771	0.9950008	1	3	1	0.15	3572	87	59.16936	44.45425	3.103426	145.0666	136.5027	0.8154225	10.66081	301.8801
9/22/2014 5:27:55 PM	17:27:55	56	H	18	52	74.28571	37974.86	42	60	21000	1024.056	76.71376	77.30197	14.32425	32.63499	293.1646	30.36501	83.19214	0.6970005	14.34875	0.993	1	3	1	0.15	3573	87.7998	59.73003	44.74425	3.123671	145.0915	137.0486	0.8141707	10.64445	301.4167
9/22/2014 5:28:05 PM	17:28:05	66	H	18	52	74.28571	37974.86	42	60	21000	1020.972	76.66969	77.30197	14.32425	32.63499	293.1646	30.2	83.19214	0.6569996	14.34948	0.9869995	1	3	1	0.15	3584	87.7998	59.91392	44.78426	3.126464	145.0915	137.1177	0.8117384	10.61265	300.5162
9/22/2014 5:28:15 PM	17:28:15	76	H	18	53	74.28571	37974.86	42	60	21000	1020.507	76.09677	77.31049	14.325	32.255	292.8512	30.44	83.14807	0.684	14.3473	1.002001	1	3	1	0.15	3578	88.3999	60.22243	44.84999	3.130889	144.9173	136.8421	0.8178284	10.69227	302.7708
9/22/2014 5:28:25 PM	17:28:25	86	H	18	53	75.71429	38705.14	42	60	21000	1023.169	76.40527	77.30197	14.32425	32.08501	293.0303	30.39	83.19214	0.6739998	14.34893	0.9890003	1	3	1	0.15	3582	88.3999	60.28976	44.59425	3.1132	145.0168	136.4265	0.8125303	10.623	300.8093
9/22/2014 5:28:35 PM	17:28:35	96	H	18	53	75.71429	38705.14	42	60	21000	1021.056	76.14084	77.2934	14.32463	31.965	292.9407	30.49001	83.104	0.7040005	14.34996	0.993	1	3	1	0.15	3574	88.7998	60.56347	44.65462	3.117333	144.9671	136.3769	0.8142734	10.64579	301.4547
9/22/2014 5:28:45 PM	17:28:45	106	H	18	52	75.71429	38705.14	42	60	21000	1023.338	75.61199	77.2934	14.32463	31.965	292.8064	30.465	82.97179	0.6609993	14.34696	0.9969997	1	3	1	0.15	3587	88.2002	60.23752	44.93462	3.13688	144.9671	136.6909	0.8130503	10.6298	301.0018
9/22/2014 5:28:55 PM	17:28:55	116	H	18	52	74.28571	37974.86	42	60	21000	1021.437	75.87642	77.30197	14.32463	31.855	292.7169	30.22	83.01585	0.6369991	14.34906	1.004	1	3	1	0.15	3589	88.3999	60.54438	44.82963	3.12955	144.8427	136.6243	0.8187897	10.70484	303.1267
9/22/2014 5:29:05 PM	17:29:05	126	H	18	53	75.71429	38705.14	42	60	21000	1022.451	75.56792	77.30197	14.32463	31.855	292.8064	30.545	83.01585	0.6550007	14.34945	0.9950008	1	3	1	0.15	3596	88.6001	60.7992	44.85963	3.131644	144.8925	136.4651	0.8151422	10.65715	301.7763
9/22/2014 5:29:22 PM	17:29:22	0	H	18	53	75.71429	38705.14	42	60	21000	1024.267	75.65607	77.27631	14.32463	31.96001	292.8512	30.67999	82.88364	0.6509991	14.35043	1.004	1	3	1	0.15	3597	88.2002	60.40546	44.86462	3.131992	144.9173	136.5453	0.8185248	10.70137	303.0286
9/22/2014 5:29:32 PM	17:29:32	0	H	18	52	74.28571	37974.86	42	60	21000	1022.746	75.43359	77.27631	14.32463	31.96001	292.7169	30.66499	82.88364	0.6700001	14.3514	1.000999	1	3	1	0.15	3599	88.3999	60.57589	44.64463	3.116635	144.8427	135.8107	0.8161308	10.67007	302.1423
9/22/2014 5:29:42 PM	17:29:42	0	H	18	53	75.71429	38705.14	42	60	21000	1025.281	76.18491	77.27631	14.32425	32.14	292.6273	30.465	82.88364	0.6830006	14.34691	0.9950008	1	3	1	0.15	3596	88.2002	60.5254	45.06924	3.14636	144.793	137.4771	0.8139525	10.64159	301.3359
9/22/2014 5:29:52 PM	17:29:52	0	H	18	53	75.71429	38705.14	42	60	21000	1023.634	76.18491	77.26776	14.32388	32.255	292.896	30.5	82.92772	0.6439991	14.34827	0.9969997	1	3	1	0.15	3598	89.2002	61.10731	44.77387	3.125821	144.9422	136.7232	0.81599	10.66823	302.0902
9/22/2014 5:30:02 PM	17:30:02	0	H	18	53	75.71429	38705.14	42	60	21000	1022.915	76.27305	77.26776	14.32388	32.255	292.9855	30.91499	82.75143	0.7450008	14.34852	0.9820004	1	3	1	0.15	3607	87.7998	60.16126	44.79888	3.127567	144.992	136.8549	0.8100065	10.59	299.875
9/22/2014 5:30:12 PM	17:30:12	0	H	18	53	75.71429	38705.14	43	61.42857	21500	1022.408	76.44933	77.25064	14.32463	32.49001	293.0751	30.44	82.70737	0.6800003	14.35079	0.9920006	1	3	1	0.15	3610	88.7998	60.89864	44.93462	3.13688	145.0417	137.332	0.8141953	10.64477	301.4258
9/22/2014 5:30:22 PM	17:30:22	0	H	18	53	75.71429	38705.14	42	60	21000	1023.296	76.71376	77.24207	14.32388	32.5	293.4333	30.515	82.66329	0.6429996	14.34993	1	1	3	1	0.15	3604	88.6001	60.66005	44.27888	3.091264	145.2407	135.85	0.8174529	10.68736	302.6318
9/22/2014 5:30:32 PM	17:30:32	1	H	19	52	74.28571	37974.86	42	61.42857	21500	1023.422	76.97818	77.24207	14.32388	32.5	293.3885	30.73	82.75143	0.7180004	14.35	1.004999	1	3	1	0.15	3614	88.7998	60.96612	44.59887	3.113604	145.2158	136.8792	0.8194523	10.7135	303.3719
9/22/2014 5:30:42 PM	17:30:42	11	H	19	53	75.71429	38705.14	42	61.42857	21500	1024.986	77.15446	77.24207	14.32388	32.5	293.4333	30.345	82.7955	0.6879997	14.35004	1.004	1	3	1	0.15	3614	88.7998	61.10354	45.26388	3.16003	145.2407	138.7208	0.8194215	10.71309	303.3605
9/22/2014 5:30:52 PM	17:30:52	21	H	19	53	75.71429	38705.14	42	60	21000	1022.915	77.06632	77.21643	14.3235	32.605	293.7467	30.58	82.70737	0.6730003	14.34833	0.9890003	1	3	1	0.15	3614	87.6001	60.27802	44.7085	3.121339	145.4148	137.2321	0.8178	10.6919	302.7603
9/22/2014 5:31:02 PM	17:31:02	31	H	19	53	75.71429	38705.14	43	61.42857	21500	1021.563	77.28667	77.21643	14.3235	32.605	293.7019	30.675	82.7955	0.6639996	14.34609	0.9969997	1	3	1	0.15	3618	88.2002	60.75812	45.0585	3.145775	145.39	138.2999	0.818078	10.69553	302.8632
9/22/2014 5:31:12 PM	17:31:12	41	H	19	52	75.71429	38705.14	43	61.42857	21500	1022.958	77.46296	77.25064	14.32425	32.55	294.0153	30.375	82.70737	0.6860008	14.34825	0.9960003	1	3	1	0.15	3620	87.7998	60.51573	44.64426	3.11669	145.5641	137.3637	0.8157662	10.66531	302.0073
9/22/2014 5:31:22 PM	17:31:22	51	H	19	52	74.28571	37974.86	42	60	21000	1023.845	77.37482	77.22501	14.32388	32.50999	293.9706	30.38499	82.66329	0.7059994	14.34762	0.9939995	1	3	1	0.15	3613	88	60.53643	44.67887	3.119189	145.4646	137.3886	0.8157704	10.66536	302.0089
9/22/2014 5:31:32 PM	17:31:32	61	H	19	53	75.71429	38705.14	42	60	21000	1024.352	78.07995	77.22501	14.32388	32.50999	294.284	30.61501	82.70737	0.7099991	14.34943	0.9950008	1	3	1	0.15	3606	88	60.41915	44.88888	3.13385	145.7133	138.4689	0.8153642	10.66005	301.8585
9/22/2014 5:31:42 PM	17:31:42	71	H	19	52	74.28571	37974.86	42	60	21000	1024.732	77.81553	77.22501	14.32425	32.36501	294.4183	30.44501	82.70737	0.7059994	14.34886	0.9969997	1	3	1	0.15	3604	88	60.66005	44.56425	3.111105	145.7879	137.4265	0.8161857	10.67079	302.1626
9/22/2014 5:31:52 PM	17:31:52	81	H	19	53	75.71429	38705.14	42	60	21000	1024.352	77.94774	77.21643	14.32425	32.50999	294.284	30.24001	82.70737	0.7110004	14.34821	0.9920006	1	3	1	0.15	3606	88	60.41915	44.59924	3.113548	145.7133	137.618	0.817391	10.68655	302.6088
9/22/2014 5:32:02 PM	17:32:02	91	H	19	52	75.71429	38705.14	42	60	21000	1026.042	77.99181	77.21643	14.32425	32.50999	294.5078	30.7	82.66329	0.6739998	14.3494	0.9909992	1	3	1	0.15	3602	87.7998	60.21483	44.43925	3.102379	145.8377	137.2376	0.8182643	10.69797	302.9321
9/22/2014 5:32:12 PM	17:32:12	101	H	19	53	75.71429	38705.14	42	60	21000	1025.789	78.16809	77.1908	14.32388	32.765	294.687	30.38499	82.83958	0.6849995	14.34841	1.000999	1	3	1	0.15	3600	88	60.1814	44.98388	3.140482	145.9372	138.7807	0.8127936	10.62644	300.9068
9/22/2014 5:32:22 PM	17:32:22	111	H	19	52	74.28571	37974.86	42	60	21000	1024.986	78.65286	77.20792	14.32388	32.925	294.7765	30.19501	82.7955	0.6809998	14.34635	0.9920006	1	3	1	0.15	3599	87.7998	60.16468	44.84388	3.130709	145.9869	138.7915	0.8164786	10.67462	302.2711
9/22/2014 5:32:32 PM	17:32:32	121	H	19	52	74.28571	37974.86	42	60	21000	1022.873	78.12402	77.20792	14.32388	32.925	295.0004	30.22	83.01585	0.6760006	14.34885	0.9950008	1	3	1	0.15	3607	88.2002	60.71054	44.31388	3.093708	146.1113	137.0163	0.8139027	10.64094	301.3174
9/22/2014 5:32:42 PM	17:32:42	131	H	19	53	75.71429	38705.14	42	60	21000	1026.169	77.72738	77.21643	14.3235	32.96001	294.7317	30.58	83.01585	0.7140007	14.34771	0.9990005	1	3	1	0.15	3606	87.6001	60.14458	44.5385	3.10947	145.9621	137.2986	0.8167378	10.67801	302.367
9/22/2014 5:33:35 PM	17:33:35	0	H	19	-1	0	0	0	0	0	537.415	79.97498	77.18225	14.32388	33.47	252.6097	-0.2100067	83.01585	-0.2530003	14.31368	-6.000519E-03	0	3	1	0.15	248	3.600098	0.1605404	14.11387	0.9853387	122.561	25.41295	-999	-999	-28288.48
